<?xml version="1.0" encoding="UTF-8" standalone="no" ?>
<gpx xmlns="http://www.topografix.com/GPX/1/1" xmlns:xsi="http://www.w3.org/2001/XMLSchema-instance" xsi:schemaLocation="http://www.topografix.com/GPX/1/1 http://www.topografix.com/GPX/1/1/gpx.xsd" version="1.1" creator="VisuGPX - https://www.visugpx.com">
  <metadata>
    <name>Découverte du cap de la Hague</name>
    <desc><![CDATA[Randonnée VTT ou VTC au départ de Beaumont Hague]]></desc>
  </metadata>
  <trk>
    <name><![CDATA[50 CycloHague]]></name>
    <cmt><![CDATA[À partir de la Piste Active]]></cmt>
    <trkseg>
    </trkseg>
    </trkseg>
    </trkseg>
      <trkpt lat="49.6634" lon="-1.83798">
        <ele>175.5</ele>
        <time>2016-08-16T08:53:01.000Z</time>
      </trkpt>
      <trkpt lat="49.66344" lon="-1.83802">
        <ele>175.480469</ele>
        <time>2016-08-16T08:57:13.000Z</time>
      </trkpt>
      <trkpt lat="49.66344" lon="-1.83802">
        <ele>175.292969</ele>
        <time>2016-08-16T08:57:29.000Z</time>
      </trkpt>
      <trkpt lat="49.66344" lon="-1.83802">
        <ele>175.292969</ele>
        <time>2016-08-16T08:57:29.000Z</time>
      </trkpt>
      <trkpt lat="49.66344" lon="-1.83802">
        <ele>175.023438</ele>
        <time>2016-08-16T08:57:37.000Z</time>
      </trkpt>
      <trkpt lat="49.66344" lon="-1.83802">
        <ele>175.023438</ele>
        <time>2016-08-16T08:57:37.000Z</time>
      </trkpt>
      <trkpt lat="49.66344" lon="-1.83802">
        <ele>174.976563</ele>
        <time>2016-08-16T08:57:38.000Z</time>
      </trkpt>
      <trkpt lat="49.66343" lon="-1.83802">
        <ele>174.203125</ele>
        <time>2016-08-16T08:57:55.000Z</time>
      </trkpt>
      <trkpt lat="49.66343" lon="-1.83802">
        <ele>174.203125</ele>
        <time>2016-08-16T08:57:55.000Z</time>
      </trkpt>
      <trkpt lat="49.66327" lon="-1.83785">
        <ele>175.199219</ele>
        <time>2016-08-16T08:59:50.000Z</time>
      </trkpt>
      <trkpt lat="49.66317" lon="-1.8378">
        <ele>174.398438</ele>
        <time>2016-08-16T09:00:03.000Z</time>
      </trkpt>
      <trkpt lat="49.6631" lon="-1.83792">
        <ele>174.296875</ele>
        <time>2016-08-16T09:00:09.000Z</time>
      </trkpt>
      <trkpt lat="49.66305" lon="-1.83805">
        <ele>173.5</ele>
        <time>2016-08-16T09:00:13.000Z</time>
      </trkpt>
      <trkpt lat="49.663" lon="-1.8382">
        <ele>171.597656</ele>
        <time>2016-08-16T09:00:17.000Z</time>
      </trkpt>
      <trkpt lat="49.66296" lon="-1.83837">
        <ele>172.097656</ele>
        <time>2016-08-16T09:00:21.000Z</time>
      </trkpt>
      <trkpt lat="49.66286" lon="-1.83866">
        <ele>172.597656</ele>
        <time>2016-08-16T09:00:27.000Z</time>
      </trkpt>
      <trkpt lat="49.6628" lon="-1.8388">
        <ele>172.796875</ele>
        <time>2016-08-16T09:00:30.000Z</time>
      </trkpt>
      <trkpt lat="49.66278" lon="-1.83894">
        <ele>174</ele>
        <time>2016-08-16T09:00:33.000Z</time>
      </trkpt>
      <trkpt lat="49.66281" lon="-1.83911">
        <ele>176.097656</ele>
        <time>2016-08-16T09:00:37.000Z</time>
      </trkpt>
      <trkpt lat="49.66283" lon="-1.83928">
        <ele>176</ele>
        <time>2016-08-16T09:00:40.000Z</time>
      </trkpt>
      <trkpt lat="49.66289" lon="-1.83944">
        <ele>175.699219</ele>
        <time>2016-08-16T09:00:43.000Z</time>
      </trkpt>
      <trkpt lat="49.66307" lon="-1.83994">
        <ele>176.199219</ele>
        <time>2016-08-16T09:00:52.000Z</time>
      </trkpt>
      <trkpt lat="49.66311" lon="-1.84012">
        <ele>176.398438</ele>
        <time>2016-08-16T09:00:55.000Z</time>
      </trkpt>
      <trkpt lat="49.66316" lon="-1.8403">
        <ele>176.097656</ele>
        <time>2016-08-16T09:00:58.000Z</time>
      </trkpt>
      <trkpt lat="49.66319" lon="-1.84046">
        <ele>176.199219</ele>
        <time>2016-08-16T09:01:01.000Z</time>
      </trkpt>
      <trkpt lat="49.66323" lon="-1.8406">
        <ele>176.398438</ele>
        <time>2016-08-16T09:01:04.000Z</time>
      </trkpt>
      <trkpt lat="49.66327" lon="-1.84078">
        <ele>176.796875</ele>
        <time>2016-08-16T09:01:08.000Z</time>
      </trkpt>
      <trkpt lat="49.66343" lon="-1.84158">
        <ele>173.398438</ele>
        <time>2016-08-16T09:01:23.000Z</time>
      </trkpt>
      <trkpt lat="49.66348" lon="-1.84175">
        <ele>174.898438</ele>
        <time>2016-08-16T09:01:26.000Z</time>
      </trkpt>
      <trkpt lat="49.66348" lon="-1.8419">
        <ele>175.199219</ele>
        <time>2016-08-16T09:04:06.000Z</time>
      </trkpt>
      <trkpt lat="49.66352" lon="-1.84206">
        <ele>175.5</ele>
        <time>2016-08-16T09:04:11.000Z</time>
      </trkpt>
      <trkpt lat="49.66372" lon="-1.84291">
        <ele>176.097656</ele>
        <time>2016-08-16T09:04:26.000Z</time>
      </trkpt>
      <trkpt lat="49.66378" lon="-1.84309">
        <ele>175.5</ele>
        <time>2016-08-16T09:04:29.000Z</time>
      </trkpt>
      <trkpt lat="49.66385" lon="-1.84326">
        <ele>175.296875</ele>
        <time>2016-08-16T09:04:32.000Z</time>
      </trkpt>
      <trkpt lat="49.66397" lon="-1.84367">
        <ele>174.796875</ele>
        <time>2016-08-16T09:04:38.000Z</time>
      </trkpt>
      <trkpt lat="49.66401" lon="-1.84381">
        <ele>174.597656</ele>
        <time>2016-08-16T09:04:40.000Z</time>
      </trkpt>
      <trkpt lat="49.66403" lon="-1.84395">
        <ele>174.5</ele>
        <time>2016-08-16T09:04:42.000Z</time>
      </trkpt>
      <trkpt lat="49.66407" lon="-1.84409">
        <ele>174.398438</ele>
        <time>2016-08-16T09:04:44.000Z</time>
      </trkpt>
      <trkpt lat="49.66416" lon="-1.84436">
        <ele>174.097656</ele>
        <time>2016-08-16T09:04:48.000Z</time>
      </trkpt>
      <trkpt lat="49.66422" lon="-1.84465">
        <ele>174.398438</ele>
        <time>2016-08-16T09:04:52.000Z</time>
      </trkpt>
      <trkpt lat="49.66427" lon="-1.84494">
        <ele>175.398438</ele>
        <time>2016-08-16T09:04:56.000Z</time>
      </trkpt>
      <trkpt lat="49.66428" lon="-1.84509">
        <ele>176.199219</ele>
        <time>2016-08-16T09:04:58.000Z</time>
      </trkpt>
      <trkpt lat="49.66432" lon="-1.84559">
        <ele>178.597656</ele>
        <time>2016-08-16T09:05:05.000Z</time>
      </trkpt>
      <trkpt lat="49.66433" lon="-1.84657">
        <ele>179.597656</ele>
        <time>2016-08-16T09:05:20.000Z</time>
      </trkpt>
      <trkpt lat="49.66435" lon="-1.84784">
        <ele>181.5</ele>
        <time>2016-08-16T09:05:41.000Z</time>
      </trkpt>
      <trkpt lat="49.66441" lon="-1.84795">
        <ele>181.199219</ele>
        <time>2016-08-16T09:05:44.000Z</time>
      </trkpt>
      <trkpt lat="49.66445" lon="-1.8481">
        <ele>180.699219</ele>
        <time>2016-08-16T09:05:47.000Z</time>
      </trkpt>
      <trkpt lat="49.66457" lon="-1.84856">
        <ele>178.097656</ele>
        <time>2016-08-16T09:05:54.000Z</time>
      </trkpt>
      <trkpt lat="49.66457" lon="-1.84872">
        <ele>177.898438</ele>
        <time>2016-08-16T09:05:56.000Z</time>
      </trkpt>
      <trkpt lat="49.66454" lon="-1.84887">
        <ele>177.796875</ele>
        <time>2016-08-16T09:05:58.000Z</time>
      </trkpt>
      <trkpt lat="49.6645" lon="-1.84903">
        <ele>176.699219</ele>
        <time>2016-08-16T09:06:00.000Z</time>
      </trkpt>
      <trkpt lat="49.66445" lon="-1.84921">
        <ele>176.597656</ele>
        <time>2016-08-16T09:06:04.000Z</time>
      </trkpt>
      <trkpt lat="49.66433" lon="-1.8492">
        <ele>177.097656</ele>
        <time>2016-08-16T09:06:09.000Z</time>
      </trkpt>
      <trkpt lat="49.66424" lon="-1.84917">
        <ele>177.296875</ele>
        <time>2016-08-16T09:06:12.000Z</time>
      </trkpt>
      <trkpt lat="49.66414" lon="-1.84917">
        <ele>177.796875</ele>
        <time>2016-08-16T09:06:15.000Z</time>
      </trkpt>
      <trkpt lat="49.66404" lon="-1.84919">
        <ele>178.097656</ele>
        <time>2016-08-16T09:06:18.000Z</time>
      </trkpt>
      <trkpt lat="49.66394" lon="-1.84924">
        <ele>178.398438</ele>
        <time>2016-08-16T09:06:21.000Z</time>
      </trkpt>
      <trkpt lat="49.66385" lon="-1.84931">
        <ele>178.5</ele>
        <time>2016-08-16T09:06:24.000Z</time>
      </trkpt>
      <trkpt lat="49.66374" lon="-1.84932">
        <ele>178.699219</ele>
        <time>2016-08-16T09:06:27.000Z</time>
      </trkpt>
      <trkpt lat="49.66364" lon="-1.84926">
        <ele>178.097656</ele>
        <time>2016-08-16T09:06:31.000Z</time>
      </trkpt>
      <trkpt lat="49.66355" lon="-1.84928">
        <ele>178.199219</ele>
        <time>2016-08-16T09:06:44.000Z</time>
      </trkpt>
      <trkpt lat="49.66346" lon="-1.84938">
        <ele>178.5</ele>
        <time>2016-08-16T09:06:48.000Z</time>
      </trkpt>
      <trkpt lat="49.66339" lon="-1.84947">
        <ele>178.296875</ele>
        <time>2016-08-16T09:06:51.000Z</time>
      </trkpt>
      <trkpt lat="49.66304" lon="-1.84996">
        <ele>177.097656</ele>
        <time>2016-08-16T09:07:03.000Z</time>
      </trkpt>
      <trkpt lat="49.66266" lon="-1.85051">
        <ele>171.199219</ele>
        <time>2016-08-16T09:07:13.000Z</time>
      </trkpt>
      <trkpt lat="49.66234" lon="-1.8509">
        <ele>169.296875</ele>
        <time>2016-08-16T09:07:19.000Z</time>
      </trkpt>
      <trkpt lat="49.66225" lon="-1.85106">
        <ele>168.796875</ele>
        <time>2016-08-16T09:07:21.000Z</time>
      </trkpt>
      <trkpt lat="49.66217" lon="-1.85124">
        <ele>168.699219</ele>
        <time>2016-08-16T09:07:23.000Z</time>
      </trkpt>
      <trkpt lat="49.66201" lon="-1.8516">
        <ele>168.597656</ele>
        <time>2016-08-16T09:07:27.000Z</time>
      </trkpt>
      <trkpt lat="49.66194" lon="-1.85179">
        <ele>168.597656</ele>
        <time>2016-08-16T09:07:29.000Z</time>
      </trkpt>
      <trkpt lat="49.66188" lon="-1.85199">
        <ele>168.898438</ele>
        <time>2016-08-16T09:07:31.000Z</time>
      </trkpt>
      <trkpt lat="49.66178" lon="-1.85236">
        <ele>169.199219</ele>
        <time>2016-08-16T09:07:35.000Z</time>
      </trkpt>
      <trkpt lat="49.66101" lon="-1.85591">
        <ele>170.097656</ele>
        <time>2016-08-16T09:08:15.000Z</time>
      </trkpt>
      <trkpt lat="49.66103" lon="-1.85605">
        <ele>169.796875</ele>
        <time>2016-08-16T09:08:17.000Z</time>
      </trkpt>
      <trkpt lat="49.6611" lon="-1.85615">
        <ele>169.699219</ele>
        <time>2016-08-16T09:08:19.000Z</time>
      </trkpt>
      <trkpt lat="49.66121" lon="-1.8562">
        <ele>169.5</ele>
        <time>2016-08-16T09:08:21.000Z</time>
      </trkpt>
      <trkpt lat="49.66143" lon="-1.85627">
        <ele>169</ele>
        <time>2016-08-16T09:08:25.000Z</time>
      </trkpt>
      <trkpt lat="49.66323" lon="-1.85677">
        <ele>164.199219</ele>
        <time>2016-08-16T09:08:51.000Z</time>
      </trkpt>
      <trkpt lat="49.66346" lon="-1.85689">
        <ele>163.699219</ele>
        <time>2016-08-16T09:08:55.000Z</time>
      </trkpt>
      <trkpt lat="49.66356" lon="-1.85696">
        <ele>163.699219</ele>
        <time>2016-08-16T09:08:57.000Z</time>
      </trkpt>
      <trkpt lat="49.66361" lon="-1.85709">
        <ele>163.199219</ele>
        <time>2016-08-16T09:08:59.000Z</time>
      </trkpt>
      <trkpt lat="49.66356" lon="-1.85729">
        <ele>162.699219</ele>
        <time>2016-08-16T09:09:02.000Z</time>
      </trkpt>
      <trkpt lat="49.66351" lon="-1.85743">
        <ele>162.199219</ele>
        <time>2016-08-16T09:09:04.000Z</time>
      </trkpt>
      <trkpt lat="49.66339" lon="-1.85776">
        <ele>160.898438</ele>
        <time>2016-08-16T09:09:08.000Z</time>
      </trkpt>
      <trkpt lat="49.66329" lon="-1.8579">
        <ele>160.597656</ele>
        <time>2016-08-16T09:09:10.000Z</time>
      </trkpt>
      <trkpt lat="49.66318" lon="-1.85802">
        <ele>159.898438</ele>
        <time>2016-08-16T09:09:12.000Z</time>
      </trkpt>
      <trkpt lat="49.66298" lon="-1.85826">
        <ele>159.296875</ele>
        <time>2016-08-16T09:09:16.000Z</time>
      </trkpt>
      <trkpt lat="49.66292" lon="-1.85842">
        <ele>159</ele>
        <time>2016-08-16T09:09:18.000Z</time>
      </trkpt>
      <trkpt lat="49.66287" lon="-1.85861">
        <ele>158.699219</ele>
        <time>2016-08-16T09:09:20.000Z</time>
      </trkpt>
      <trkpt lat="49.6628" lon="-1.859">
        <ele>158.597656</ele>
        <time>2016-08-16T09:09:24.000Z</time>
      </trkpt>
      <trkpt lat="49.66277" lon="-1.85919">
        <ele>158.597656</ele>
        <time>2016-08-16T09:09:26.000Z</time>
      </trkpt>
      <trkpt lat="49.66274" lon="-1.85938">
        <ele>159.296875</ele>
        <time>2016-08-16T09:09:28.000Z</time>
      </trkpt>
      <trkpt lat="49.66267" lon="-1.85974">
        <ele>159.5</ele>
        <time>2016-08-16T09:09:32.000Z</time>
      </trkpt>
      <trkpt lat="49.66266" lon="-1.85992">
        <ele>159.199219</ele>
        <time>2016-08-16T09:09:34.000Z</time>
      </trkpt>
      <trkpt lat="49.66256" lon="-1.8619">
        <ele>154.398438</ele>
        <time>2016-08-16T09:09:54.000Z</time>
      </trkpt>
      <trkpt lat="49.66257" lon="-1.86208">
        <ele>153.796875</ele>
        <time>2016-08-16T09:09:56.000Z</time>
      </trkpt>
      <trkpt lat="49.66262" lon="-1.86241">
        <ele>150.597656</ele>
        <time>2016-08-16T09:10:01.000Z</time>
      </trkpt>
      <trkpt lat="49.66266" lon="-1.86261">
        <ele>149.199219</ele>
        <time>2016-08-16T09:10:04.000Z</time>
      </trkpt>
      <trkpt lat="49.66271" lon="-1.86277">
        <ele>147.296875</ele>
        <time>2016-08-16T09:10:06.000Z</time>
      </trkpt>
      <trkpt lat="49.66281" lon="-1.86315">
        <ele>143</ele>
        <time>2016-08-16T09:10:10.000Z</time>
      </trkpt>
      <trkpt lat="49.66286" lon="-1.86341">
        <ele>141.296875</ele>
        <time>2016-08-16T09:10:12.000Z</time>
      </trkpt>
      <trkpt lat="49.66288" lon="-1.86367">
        <ele>139.597656</ele>
        <time>2016-08-16T09:10:14.000Z</time>
      </trkpt>
      <trkpt lat="49.66288" lon="-1.86393">
        <ele>138</ele>
        <time>2016-08-16T09:10:16.000Z</time>
      </trkpt>
      <trkpt lat="49.66285" lon="-1.86417">
        <ele>135.699219</ele>
        <time>2016-08-16T09:10:18.000Z</time>
      </trkpt>
      <trkpt lat="49.66276" lon="-1.86456">
        <ele>133.796875</ele>
        <time>2016-08-16T09:10:21.000Z</time>
      </trkpt>
      <trkpt lat="49.66273" lon="-1.8647">
        <ele>132.097656</ele>
        <time>2016-08-16T09:10:22.000Z</time>
      </trkpt>
      <trkpt lat="49.6627" lon="-1.86495">
        <ele>130.097656</ele>
        <time>2016-08-16T09:10:24.000Z</time>
      </trkpt>
      <trkpt lat="49.66266" lon="-1.86537">
        <ele>128.097656</ele>
        <time>2016-08-16T09:10:27.000Z</time>
      </trkpt>
      <trkpt lat="49.66264" lon="-1.8655">
        <ele>127.199219</ele>
        <time>2016-08-16T09:10:28.000Z</time>
      </trkpt>
      <trkpt lat="49.6626" lon="-1.86563">
        <ele>126.199219</ele>
        <time>2016-08-16T09:10:29.000Z</time>
      </trkpt>
      <trkpt lat="49.66246" lon="-1.866">
        <ele>121.597656</ele>
        <time>2016-08-16T09:10:32.000Z</time>
      </trkpt>
      <trkpt lat="49.66242" lon="-1.86627">
        <ele>120.199219</ele>
        <time>2016-08-16T09:10:34.000Z</time>
      </trkpt>
      <trkpt lat="49.66242" lon="-1.86642">
        <ele>118.898438</ele>
        <time>2016-08-16T09:10:35.000Z</time>
      </trkpt>
      <trkpt lat="49.66247" lon="-1.86732">
        <ele>110.296875</ele>
        <time>2016-08-16T09:10:41.000Z</time>
      </trkpt>
      <trkpt lat="49.66242" lon="-1.86758">
        <ele>109.199219</ele>
        <time>2016-08-16T09:10:43.000Z</time>
      </trkpt>
      <trkpt lat="49.66238" lon="-1.86771">
        <ele>107.898438</ele>
        <time>2016-08-16T09:10:44.000Z</time>
      </trkpt>
      <trkpt lat="49.66234" lon="-1.86785">
        <ele>106.5</ele>
        <time>2016-08-16T09:10:45.000Z</time>
      </trkpt>
      <trkpt lat="49.66227" lon="-1.86797">
        <ele>105</ele>
        <time>2016-08-16T09:10:46.000Z</time>
      </trkpt>
      <trkpt lat="49.6622" lon="-1.86809">
        <ele>103.5</ele>
        <time>2016-08-16T09:10:47.000Z</time>
      </trkpt>
      <trkpt lat="49.66204" lon="-1.86832">
        <ele>100.199219</ele>
        <time>2016-08-16T09:10:49.000Z</time>
      </trkpt>
      <trkpt lat="49.66197" lon="-1.86844">
        <ele>98.597656</ele>
        <time>2016-08-16T09:10:50.000Z</time>
      </trkpt>
      <trkpt lat="49.66192" lon="-1.86857">
        <ele>96.296875</ele>
        <time>2016-08-16T09:10:51.000Z</time>
      </trkpt>
      <trkpt lat="49.66191" lon="-1.86882">
        <ele>94.597656</ele>
        <time>2016-08-16T09:10:53.000Z</time>
      </trkpt>
      <trkpt lat="49.66196" lon="-1.86903">
        <ele>93</ele>
        <time>2016-08-16T09:10:55.000Z</time>
      </trkpt>
      <trkpt lat="49.66202" lon="-1.86925">
        <ele>91.5</ele>
        <time>2016-08-16T09:10:57.000Z</time>
      </trkpt>
      <trkpt lat="49.66209" lon="-1.86944">
        <ele>90</ele>
        <time>2016-08-16T09:10:59.000Z</time>
      </trkpt>
      <trkpt lat="49.66223" lon="-1.86957">
        <ele>88.398438</ele>
        <time>2016-08-16T09:11:01.000Z</time>
      </trkpt>
      <trkpt lat="49.66236" lon="-1.86966">
        <ele>87</ele>
        <time>2016-08-16T09:11:03.000Z</time>
      </trkpt>
      <trkpt lat="49.66248" lon="-1.86974">
        <ele>85</ele>
        <time>2016-08-16T09:11:05.000Z</time>
      </trkpt>
      <trkpt lat="49.6625" lon="-1.8699">
        <ele>82.796875</ele>
        <time>2016-08-16T09:11:08.000Z</time>
      </trkpt>
      <trkpt lat="49.66243" lon="-1.87003">
        <ele>80</ele>
        <time>2016-08-16T09:11:10.000Z</time>
      </trkpt>
      <trkpt lat="49.6623" lon="-1.87017">
        <ele>78.5</ele>
        <time>2016-08-16T09:11:12.000Z</time>
      </trkpt>
      <trkpt lat="49.66223" lon="-1.87026">
        <ele>76.796875</ele>
        <time>2016-08-16T09:11:13.000Z</time>
      </trkpt>
      <trkpt lat="49.66199" lon="-1.87059">
        <ele>71.097656</ele>
        <time>2016-08-16T09:11:16.000Z</time>
      </trkpt>
      <trkpt lat="49.6616" lon="-1.87119">
        <ele>60.398438</ele>
        <time>2016-08-16T09:11:21.000Z</time>
      </trkpt>
      <trkpt lat="49.66152" lon="-1.87126">
        <ele>59.199219</ele>
        <time>2016-08-16T09:11:22.000Z</time>
      </trkpt>
      <trkpt lat="49.66143" lon="-1.87129">
        <ele>58.199219</ele>
        <time>2016-08-16T09:11:23.000Z</time>
      </trkpt>
      <trkpt lat="49.66133" lon="-1.8713">
        <ele>57.597656</ele>
        <time>2016-08-16T09:11:24.000Z</time>
      </trkpt>
      <trkpt lat="49.66124" lon="-1.87128">
        <ele>57.097656</ele>
        <time>2016-08-16T09:11:25.000Z</time>
      </trkpt>
      <trkpt lat="49.6606" lon="-1.87116">
        <ele>54.699219</ele>
        <time>2016-08-16T09:11:31.000Z</time>
      </trkpt>
      <trkpt lat="49.66037" lon="-1.87116">
        <ele>53.898438</ele>
        <time>2016-08-16T09:11:33.000Z</time>
      </trkpt>
      <trkpt lat="49.66013" lon="-1.87119">
        <ele>53.296875</ele>
        <time>2016-08-16T09:11:35.000Z</time>
      </trkpt>
      <trkpt lat="49.65991" lon="-1.87124">
        <ele>52.796875</ele>
        <time>2016-08-16T09:11:37.000Z</time>
      </trkpt>
      <trkpt lat="49.6598" lon="-1.87128">
        <ele>52.5</ele>
        <time>2016-08-16T09:11:38.000Z</time>
      </trkpt>
      <trkpt lat="49.6597" lon="-1.87133">
        <ele>52.097656</ele>
        <time>2016-08-16T09:11:39.000Z</time>
      </trkpt>
      <trkpt lat="49.6596" lon="-1.8714">
        <ele>51.699219</ele>
        <time>2016-08-16T09:11:40.000Z</time>
      </trkpt>
      <trkpt lat="49.65871" lon="-1.87214">
        <ele>42.097656</ele>
        <time>2016-08-16T09:11:52.000Z</time>
      </trkpt>
      <trkpt lat="49.65861" lon="-1.87218">
        <ele>40.796875</ele>
        <time>2016-08-16T09:11:54.000Z</time>
      </trkpt>
      <trkpt lat="49.65852" lon="-1.87222">
        <ele>39.699219</ele>
        <time>2016-08-16T09:11:58.000Z</time>
      </trkpt>
      <trkpt lat="49.65846" lon="-1.87235">
        <ele>39.699219</ele>
        <time>2016-08-16T09:12:06.000Z</time>
      </trkpt>
      <trkpt lat="49.65844" lon="-1.8725">
        <ele>39.898438</ele>
        <time>2016-08-16T09:12:56.000Z</time>
      </trkpt>
      <trkpt lat="49.65839" lon="-1.87265">
        <ele>40.597656</ele>
        <time>2016-08-16T09:13:01.000Z</time>
      </trkpt>
      <trkpt lat="49.65837" lon="-1.87282">
        <ele>41.296875</ele>
        <time>2016-08-16T09:13:06.000Z</time>
      </trkpt>
      <trkpt lat="49.65833" lon="-1.87315">
        <ele>42.699219</ele>
        <time>2016-08-16T09:13:13.000Z</time>
      </trkpt>
      <trkpt lat="49.65833" lon="-1.8733">
        <ele>43.597656</ele>
        <time>2016-08-16T09:13:16.000Z</time>
      </trkpt>
      <trkpt lat="49.65834" lon="-1.87345">
        <ele>45</ele>
        <time>2016-08-16T09:13:19.000Z</time>
      </trkpt>
      <trkpt lat="49.65839" lon="-1.87361">
        <ele>46.699219</ele>
        <time>2016-08-16T09:13:23.000Z</time>
      </trkpt>
      <trkpt lat="49.65844" lon="-1.87374">
        <ele>48.597656</ele>
        <time>2016-08-16T09:13:27.000Z</time>
      </trkpt>
      <trkpt lat="49.6585" lon="-1.87385">
        <ele>50.898438</ele>
        <time>2016-08-16T09:13:31.000Z</time>
      </trkpt>
      <trkpt lat="49.65858" lon="-1.87397">
        <ele>52.898438</ele>
        <time>2016-08-16T09:13:36.000Z</time>
      </trkpt>
      <trkpt lat="49.65888" lon="-1.87444">
        <ele>60.699219</ele>
        <time>2016-08-16T09:13:56.000Z</time>
      </trkpt>
      <trkpt lat="49.65911" lon="-1.87491">
        <ele>65</ele>
        <time>2016-08-16T09:14:13.000Z</time>
      </trkpt>
      <trkpt lat="49.65922" lon="-1.87518">
        <ele>66.199219</ele>
        <time>2016-08-16T09:14:21.000Z</time>
      </trkpt>
      <trkpt lat="49.65932" lon="-1.87548">
        <ele>66.699219</ele>
        <time>2016-08-16T09:14:28.000Z</time>
      </trkpt>
      <trkpt lat="49.65957" lon="-1.87633">
        <ele>70.296875</ele>
        <time>2016-08-16T09:14:46.000Z</time>
      </trkpt>
      <trkpt lat="49.65963" lon="-1.87648">
        <ele>71.699219</ele>
        <time>2016-08-16T09:14:50.000Z</time>
      </trkpt>
      <trkpt lat="49.66007" lon="-1.87747">
        <ele>81.097656</ele>
        <time>2016-08-16T09:15:18.000Z</time>
      </trkpt>
      <trkpt lat="49.66012" lon="-1.87763">
        <ele>82.296875</ele>
        <time>2016-08-16T09:15:22.000Z</time>
      </trkpt>
      <trkpt lat="49.66015" lon="-1.8778">
        <ele>83.597656</ele>
        <time>2016-08-16T09:15:26.000Z</time>
      </trkpt>
      <trkpt lat="49.6604" lon="-1.87927">
        <ele>94.699219</ele>
        <time>2016-08-16T09:16:06.000Z</time>
      </trkpt>
      <trkpt lat="49.66043" lon="-1.87958">
        <ele>96.097656</ele>
        <time>2016-08-16T09:16:14.000Z</time>
      </trkpt>
      <trkpt lat="49.66044" lon="-1.87974">
        <ele>96.898438</ele>
        <time>2016-08-16T09:16:18.000Z</time>
      </trkpt>
      <trkpt lat="49.66045" lon="-1.88037">
        <ele>101</ele>
        <time>2016-08-16T09:16:34.000Z</time>
      </trkpt>
      <trkpt lat="49.66047" lon="-1.88051">
        <ele>102.097656</ele>
        <time>2016-08-16T09:16:38.000Z</time>
      </trkpt>
      <trkpt lat="49.66049" lon="-1.88065">
        <ele>103.199219</ele>
        <time>2016-08-16T09:16:42.000Z</time>
      </trkpt>
      <trkpt lat="49.66081" lon="-1.88236">
        <ele>111.597656</ele>
        <time>2016-08-16T09:17:30.000Z</time>
      </trkpt>
      <trkpt lat="49.66082" lon="-1.88251">
        <ele>118.898438</ele>
        <time>2016-08-16T09:17:35.000Z</time>
      </trkpt>
      <trkpt lat="49.6609" lon="-1.88242">
        <ele>120.398438</ele>
        <time>2016-08-16T09:20:36.000Z</time>
      </trkpt>
      <trkpt lat="49.66106" lon="-1.88222">
        <ele>123</ele>
        <time>2016-08-16T09:20:47.000Z</time>
      </trkpt>
      <trkpt lat="49.66114" lon="-1.8821">
        <ele>124.199219</ele>
        <time>2016-08-16T09:20:52.000Z</time>
      </trkpt>
      <trkpt lat="49.66122" lon="-1.88199">
        <ele>125.296875</ele>
        <time>2016-08-16T09:20:57.000Z</time>
      </trkpt>
      <trkpt lat="49.66139" lon="-1.88177">
        <ele>127.597656</ele>
        <time>2016-08-16T09:21:07.000Z</time>
      </trkpt>
      <trkpt lat="49.66158" lon="-1.88146">
        <ele>130.796875</ele>
        <time>2016-08-16T09:21:19.000Z</time>
      </trkpt>
      <trkpt lat="49.66167" lon="-1.88136">
        <ele>131.5</ele>
        <time>2016-08-16T09:21:24.000Z</time>
      </trkpt>
      <trkpt lat="49.66176" lon="-1.8813">
        <ele>131.796875</ele>
        <time>2016-08-16T09:21:28.000Z</time>
      </trkpt>
      <trkpt lat="49.66193" lon="-1.88119">
        <ele>132.097656</ele>
        <time>2016-08-16T09:21:36.000Z</time>
      </trkpt>
      <trkpt lat="49.66203" lon="-1.88112">
        <ele>132.199219</ele>
        <time>2016-08-16T09:21:40.000Z</time>
      </trkpt>
      <trkpt lat="49.66212" lon="-1.88106">
        <ele>131</ele>
        <time>2016-08-16T09:21:45.000Z</time>
      </trkpt>
      <trkpt lat="49.66221" lon="-1.88099">
        <ele>131.296875</ele>
        <time>2016-08-16T09:23:15.000Z</time>
      </trkpt>
      <trkpt lat="49.6623" lon="-1.88092">
        <ele>131.597656</ele>
        <time>2016-08-16T09:23:20.000Z</time>
      </trkpt>
      <trkpt lat="49.66239" lon="-1.88088">
        <ele>132.199219</ele>
        <time>2016-08-16T09:23:24.000Z</time>
      </trkpt>
      <trkpt lat="49.6625" lon="-1.88082">
        <ele>133</ele>
        <time>2016-08-16T09:23:28.000Z</time>
      </trkpt>
      <trkpt lat="49.6628" lon="-1.88069">
        <ele>136.097656</ele>
        <time>2016-08-16T09:23:40.000Z</time>
      </trkpt>
      <trkpt lat="49.663" lon="-1.88063">
        <ele>137.699219</ele>
        <time>2016-08-16T09:23:48.000Z</time>
      </trkpt>
      <trkpt lat="49.66384" lon="-1.88036">
        <ele>142</ele>
        <time>2016-08-16T09:24:16.000Z</time>
      </trkpt>
      <trkpt lat="49.6646" lon="-1.88002">
        <ele>146.296875</ele>
        <time>2016-08-16T09:24:40.000Z</time>
      </trkpt>
      <trkpt lat="49.66573" lon="-1.87937">
        <ele>150.5</ele>
        <time>2016-08-16T09:25:16.000Z</time>
      </trkpt>
      <trkpt lat="49.66583" lon="-1.87934">
        <ele>151</ele>
        <time>2016-08-16T09:25:19.000Z</time>
      </trkpt>
      <trkpt lat="49.66592" lon="-1.87933">
        <ele>151.5</ele>
        <time>2016-08-16T09:25:22.000Z</time>
      </trkpt>
      <trkpt lat="49.66611" lon="-1.87931">
        <ele>153</ele>
        <time>2016-08-16T09:25:28.000Z</time>
      </trkpt>
      <trkpt lat="49.66623" lon="-1.87928">
        <ele>154</ele>
        <time>2016-08-16T09:25:32.000Z</time>
      </trkpt>
      <trkpt lat="49.66634" lon="-1.87922">
        <ele>155</ele>
        <time>2016-08-16T09:25:36.000Z</time>
      </trkpt>
      <trkpt lat="49.66644" lon="-1.87915">
        <ele>155.796875</ele>
        <time>2016-08-16T09:25:40.000Z</time>
      </trkpt>
      <trkpt lat="49.66653" lon="-1.87904">
        <ele>156.296875</ele>
        <time>2016-08-16T09:25:44.000Z</time>
      </trkpt>
      <trkpt lat="49.6666" lon="-1.8789">
        <ele>156.699219</ele>
        <time>2016-08-16T09:25:48.000Z</time>
      </trkpt>
      <trkpt lat="49.66667" lon="-1.87876">
        <ele>157.398438</ele>
        <time>2016-08-16T09:25:52.000Z</time>
      </trkpt>
      <trkpt lat="49.66674" lon="-1.87866">
        <ele>158.097656</ele>
        <time>2016-08-16T09:25:55.000Z</time>
      </trkpt>
      <trkpt lat="49.66682" lon="-1.87858">
        <ele>158.699219</ele>
        <time>2016-08-16T09:25:58.000Z</time>
      </trkpt>
      <trkpt lat="49.6669" lon="-1.87851">
        <ele>159</ele>
        <time>2016-08-16T09:26:01.000Z</time>
      </trkpt>
      <trkpt lat="49.66701" lon="-1.87847">
        <ele>159.199219</ele>
        <time>2016-08-16T09:26:05.000Z</time>
      </trkpt>
      <trkpt lat="49.6671" lon="-1.87848">
        <ele>159.699219</ele>
        <time>2016-08-16T09:26:08.000Z</time>
      </trkpt>
      <trkpt lat="49.66752" lon="-1.87857">
        <ele>160.699219</ele>
        <time>2016-08-16T09:26:52.000Z</time>
      </trkpt>
      <trkpt lat="49.66762" lon="-1.87861">
        <ele>159.898438</ele>
        <time>2016-08-16T09:26:57.000Z</time>
      </trkpt>
      <trkpt lat="49.66774" lon="-1.87868">
        <ele>159.199219</ele>
        <time>2016-08-16T09:27:01.000Z</time>
      </trkpt>
      <trkpt lat="49.66796" lon="-1.87881">
        <ele>157.796875</ele>
        <time>2016-08-16T09:27:07.000Z</time>
      </trkpt>
      <trkpt lat="49.66806" lon="-1.8788">
        <ele>157.5</ele>
        <time>2016-08-16T09:27:09.000Z</time>
      </trkpt>
      <trkpt lat="49.66815" lon="-1.87875">
        <ele>157</ele>
        <time>2016-08-16T09:27:11.000Z</time>
      </trkpt>
      <trkpt lat="49.66825" lon="-1.8787">
        <ele>156.898438</ele>
        <time>2016-08-16T09:27:13.000Z</time>
      </trkpt>
      <trkpt lat="49.66835" lon="-1.87868">
        <ele>157</ele>
        <time>2016-08-16T09:27:15.000Z</time>
      </trkpt>
      <trkpt lat="49.66847" lon="-1.87868">
        <ele>157.097656</ele>
        <time>2016-08-16T09:27:18.000Z</time>
      </trkpt>
      <trkpt lat="49.66856" lon="-1.87872">
        <ele>157.296875</ele>
        <time>2016-08-16T09:27:21.000Z</time>
      </trkpt>
      <trkpt lat="49.66862" lon="-1.87883">
        <ele>158.398438</ele>
        <time>2016-08-16T09:27:24.000Z</time>
      </trkpt>
      <trkpt lat="49.66866" lon="-1.87896">
        <ele>160</ele>
        <time>2016-08-16T09:27:27.000Z</time>
      </trkpt>
      <trkpt lat="49.66874" lon="-1.87923">
        <ele>163.898438</ele>
        <time>2016-08-16T09:27:34.000Z</time>
      </trkpt>
      <trkpt lat="49.66879" lon="-1.87934">
        <ele>166.097656</ele>
        <time>2016-08-16T09:27:38.000Z</time>
      </trkpt>
      <trkpt lat="49.6689" lon="-1.87934">
        <ele>167.699219</ele>
        <time>2016-08-16T09:27:43.000Z</time>
      </trkpt>
      <trkpt lat="49.66901" lon="-1.87933">
        <ele>168.699219</ele>
        <time>2016-08-16T09:27:48.000Z</time>
      </trkpt>
      <trkpt lat="49.6691" lon="-1.87936">
        <ele>169.699219</ele>
        <time>2016-08-16T09:27:52.000Z</time>
      </trkpt>
      <trkpt lat="49.66919" lon="-1.87944">
        <ele>170.796875</ele>
        <time>2016-08-16T09:27:56.000Z</time>
      </trkpt>
      <trkpt lat="49.66925" lon="-1.87957">
        <ele>172.097656</ele>
        <time>2016-08-16T09:28:00.000Z</time>
      </trkpt>
      <trkpt lat="49.66933" lon="-1.8797">
        <ele>173.199219</ele>
        <time>2016-08-16T09:28:04.000Z</time>
      </trkpt>
      <trkpt lat="49.66941" lon="-1.87983">
        <ele>173.699219</ele>
        <time>2016-08-16T09:28:08.000Z</time>
      </trkpt>
      <trkpt lat="49.6695" lon="-1.87994">
        <ele>174.199219</ele>
        <time>2016-08-16T09:28:12.000Z</time>
      </trkpt>
      <trkpt lat="49.66976" lon="-1.88024">
        <ele>177</ele>
        <time>2016-08-16T09:28:23.000Z</time>
      </trkpt>
      <trkpt lat="49.66986" lon="-1.88033">
        <ele>178.398438</ele>
        <time>2016-08-16T09:28:27.000Z</time>
      </trkpt>
      <trkpt lat="49.66997" lon="-1.88039">
        <ele>179.398438</ele>
        <time>2016-08-16T09:28:31.000Z</time>
      </trkpt>
      <trkpt lat="49.6706" lon="-1.8807">
        <ele>180.597656</ele>
        <time>2016-08-16T09:28:53.000Z</time>
      </trkpt>
      <trkpt lat="49.67068" lon="-1.88076">
        <ele>180.5</ele>
        <time>2016-08-16T09:28:56.000Z</time>
      </trkpt>
      <trkpt lat="49.67076" lon="-1.88084">
        <ele>180.398438</ele>
        <time>2016-08-16T09:28:59.000Z</time>
      </trkpt>
      <trkpt lat="49.67084" lon="-1.88092">
        <ele>180.097656</ele>
        <time>2016-08-16T09:29:02.000Z</time>
      </trkpt>
      <trkpt lat="49.67095" lon="-1.88098">
        <ele>179.699219</ele>
        <time>2016-08-16T09:29:06.000Z</time>
      </trkpt>
      <trkpt lat="49.67247" lon="-1.88172">
        <ele>173.097656</ele>
        <time>2016-08-16T09:29:40.000Z</time>
      </trkpt>
      <trkpt lat="49.67259" lon="-1.88176">
        <ele>172.796875</ele>
        <time>2016-08-16T09:29:42.000Z</time>
      </trkpt>
      <trkpt lat="49.6728" lon="-1.88181">
        <ele>172.5</ele>
        <time>2016-08-16T09:29:46.000Z</time>
      </trkpt>
      <trkpt lat="49.67289" lon="-1.8819">
        <ele>172</ele>
        <time>2016-08-16T09:29:49.000Z</time>
      </trkpt>
      <trkpt lat="49.67325" lon="-1.88223">
        <ele>169</ele>
        <time>2016-08-16T09:29:59.000Z</time>
      </trkpt>
      <trkpt lat="49.67374" lon="-1.88259">
        <ele>163.699219</ele>
        <time>2016-08-16T09:30:09.000Z</time>
      </trkpt>
      <trkpt lat="49.67382" lon="-1.88269">
        <ele>163.898438</ele>
        <time>2016-08-16T09:30:11.000Z</time>
      </trkpt>
      <trkpt lat="49.67387" lon="-1.88283">
        <ele>165.796875</ele>
        <time>2016-08-16T09:30:13.000Z</time>
      </trkpt>
      <trkpt lat="49.67392" lon="-1.88297">
        <ele>167.898438</ele>
        <time>2016-08-16T09:30:16.000Z</time>
      </trkpt>
      <trkpt lat="49.67395" lon="-1.8831">
        <ele>168.5</ele>
        <time>2016-08-16T09:30:20.000Z</time>
      </trkpt>
      <trkpt lat="49.67397" lon="-1.88327">
        <ele>168.699219</ele>
        <time>2016-08-16T09:30:24.000Z</time>
      </trkpt>
      <trkpt lat="49.674" lon="-1.88343">
        <ele>168.699219</ele>
        <time>2016-08-16T09:30:27.000Z</time>
      </trkpt>
      <trkpt lat="49.67403" lon="-1.8836">
        <ele>168.398438</ele>
        <time>2016-08-16T09:30:30.000Z</time>
      </trkpt>
      <trkpt lat="49.67454" lon="-1.887">
        <ele>171.199219</ele>
        <time>2016-08-16T09:31:21.000Z</time>
      </trkpt>
      <trkpt lat="49.67455" lon="-1.88715">
        <ele>171.699219</ele>
        <time>2016-08-16T09:31:25.000Z</time>
      </trkpt>
      <trkpt lat="49.67446" lon="-1.88723">
        <ele>171.699219</ele>
        <time>2016-08-16T09:31:30.000Z</time>
      </trkpt>
      <trkpt lat="49.67437" lon="-1.88724">
        <ele>171.699219</ele>
        <time>2016-08-16T09:31:34.000Z</time>
      </trkpt>
      <trkpt lat="49.67427" lon="-1.88723">
        <ele>171.699219</ele>
        <time>2016-08-16T09:31:38.000Z</time>
      </trkpt>
      <trkpt lat="49.67417" lon="-1.88725">
        <ele>171.796875</ele>
        <time>2016-08-16T09:31:42.000Z</time>
      </trkpt>
      <trkpt lat="49.67407" lon="-1.88729">
        <ele>171.796875</ele>
        <time>2016-08-16T09:31:45.000Z</time>
      </trkpt>
      <trkpt lat="49.67396" lon="-1.88735">
        <ele>171.5</ele>
        <time>2016-08-16T09:31:48.000Z</time>
      </trkpt>
      <trkpt lat="49.67386" lon="-1.88745">
        <ele>171</ele>
        <time>2016-08-16T09:31:51.000Z</time>
      </trkpt>
      <trkpt lat="49.67296" lon="-1.88833">
        <ele>164.597656</ele>
        <time>2016-08-16T09:32:10.000Z</time>
      </trkpt>
      <trkpt lat="49.67284" lon="-1.88847">
        <ele>163.296875</ele>
        <time>2016-08-16T09:32:12.000Z</time>
      </trkpt>
      <trkpt lat="49.67276" lon="-1.88866">
        <ele>162.097656</ele>
        <time>2016-08-16T09:32:14.000Z</time>
      </trkpt>
      <trkpt lat="49.67271" lon="-1.88891">
        <ele>160.898438</ele>
        <time>2016-08-16T09:32:16.000Z</time>
      </trkpt>
      <trkpt lat="49.67267" lon="-1.88918">
        <ele>160.296875</ele>
        <time>2016-08-16T09:32:18.000Z</time>
      </trkpt>
      <trkpt lat="49.6726" lon="-1.88959">
        <ele>159.398438</ele>
        <time>2016-08-16T09:32:21.000Z</time>
      </trkpt>
      <trkpt lat="49.67257" lon="-1.88972">
        <ele>158.898438</ele>
        <time>2016-08-16T09:32:22.000Z</time>
      </trkpt>
      <trkpt lat="49.67238" lon="-1.89033">
        <ele>157.699219</ele>
        <time>2016-08-16T09:32:27.000Z</time>
      </trkpt>
      <trkpt lat="49.67236" lon="-1.89055">
        <ele>157.796875</ele>
        <time>2016-08-16T09:32:29.000Z</time>
      </trkpt>
      <trkpt lat="49.67243" lon="-1.89071">
        <ele>157.699219</ele>
        <time>2016-08-16T09:32:31.000Z</time>
      </trkpt>
      <trkpt lat="49.67251" lon="-1.89082">
        <ele>157.5</ele>
        <time>2016-08-16T09:32:33.000Z</time>
      </trkpt>
      <trkpt lat="49.67259" lon="-1.89095">
        <ele>157.199219</ele>
        <time>2016-08-16T09:32:35.000Z</time>
      </trkpt>
      <trkpt lat="49.67289" lon="-1.89149">
        <ele>156.398438</ele>
        <time>2016-08-16T09:32:43.000Z</time>
      </trkpt>
      <trkpt lat="49.6731" lon="-1.89201">
        <ele>155.097656</ele>
        <time>2016-08-16T09:32:49.000Z</time>
      </trkpt>
      <trkpt lat="49.6734" lon="-1.89282">
        <ele>153.796875</ele>
        <time>2016-08-16T09:32:57.000Z</time>
      </trkpt>
      <trkpt lat="49.67346" lon="-1.89303">
        <ele>154</ele>
        <time>2016-08-16T09:32:59.000Z</time>
      </trkpt>
      <trkpt lat="49.67351" lon="-1.89323">
        <ele>154.597656</ele>
        <time>2016-08-16T09:33:01.000Z</time>
      </trkpt>
      <trkpt lat="49.67353" lon="-1.89344">
        <ele>155.597656</ele>
        <time>2016-08-16T09:33:03.000Z</time>
      </trkpt>
      <trkpt lat="49.67354" lon="-1.89363">
        <ele>156.597656</ele>
        <time>2016-08-16T09:33:05.000Z</time>
      </trkpt>
      <trkpt lat="49.67359" lon="-1.89463">
        <ele>160.796875</ele>
        <time>2016-08-16T09:33:17.000Z</time>
      </trkpt>
      <trkpt lat="49.67363" lon="-1.89477">
        <ele>160.796875</ele>
        <time>2016-08-16T09:33:19.000Z</time>
      </trkpt>
      <trkpt lat="49.67369" lon="-1.89487">
        <ele>160.699219</ele>
        <time>2016-08-16T09:33:21.000Z</time>
      </trkpt>
      <trkpt lat="49.6738" lon="-1.89494">
        <ele>160.796875</ele>
        <time>2016-08-16T09:33:24.000Z</time>
      </trkpt>
      <trkpt lat="49.6739" lon="-1.89497">
        <ele>161</ele>
        <time>2016-08-16T09:33:27.000Z</time>
      </trkpt>
      <trkpt lat="49.67678" lon="-1.89583">
        <ele>167.597656</ele>
        <time>2016-08-16T09:35:02.000Z</time>
      </trkpt>
      <trkpt lat="49.67686" lon="-1.89595">
        <ele>167.699219</ele>
        <time>2016-08-16T09:35:07.000Z</time>
      </trkpt>
      <trkpt lat="49.67691" lon="-1.8961">
        <ele>167.796875</ele>
        <time>2016-08-16T09:35:12.000Z</time>
      </trkpt>
      <trkpt lat="49.67694" lon="-1.89626">
        <ele>167.796875</ele>
        <time>2016-08-16T09:35:18.000Z</time>
      </trkpt>
      <trkpt lat="49.67725" lon="-1.89802">
        <ele>168.898438</ele>
        <time>2016-08-16T09:35:47.000Z</time>
      </trkpt>
      <trkpt lat="49.67736" lon="-1.89839">
        <ele>169.796875</ele>
        <time>2016-08-16T09:35:53.000Z</time>
      </trkpt>
      <trkpt lat="49.67739" lon="-1.89856">
        <ele>169.398438</ele>
        <time>2016-08-16T09:35:56.000Z</time>
      </trkpt>
      <trkpt lat="49.67739" lon="-1.89874">
        <ele>169.5</ele>
        <time>2016-08-16T09:35:59.000Z</time>
      </trkpt>
      <trkpt lat="49.67741" lon="-1.89892">
        <ele>169.5</ele>
        <time>2016-08-16T09:36:02.000Z</time>
      </trkpt>
      <trkpt lat="49.6774" lon="-1.89909">
        <ele>169.796875</ele>
        <time>2016-08-16T09:36:05.000Z</time>
      </trkpt>
      <trkpt lat="49.67742" lon="-1.89926">
        <ele>170.898438</ele>
        <time>2016-08-16T09:36:08.000Z</time>
      </trkpt>
      <trkpt lat="49.67746" lon="-1.89941">
        <ele>171.5</ele>
        <time>2016-08-16T09:36:12.000Z</time>
      </trkpt>
      <trkpt lat="49.67745" lon="-1.89955">
        <ele>171.296875</ele>
        <time>2016-08-16T09:36:16.000Z</time>
      </trkpt>
      <trkpt lat="49.67741" lon="-1.89969">
        <ele>170.898438</ele>
        <time>2016-08-16T09:36:20.000Z</time>
      </trkpt>
      <trkpt lat="49.67736" lon="-1.89982">
        <ele>169.597656</ele>
        <time>2016-08-16T09:36:24.000Z</time>
      </trkpt>
      <trkpt lat="49.67724" lon="-1.90012">
        <ele>165.796875</ele>
        <time>2016-08-16T09:36:32.000Z</time>
      </trkpt>
      <trkpt lat="49.67684" lon="-1.90108">
        <ele>161.597656</ele>
        <time>2016-08-16T09:36:58.000Z</time>
      </trkpt>
      <trkpt lat="49.67665" lon="-1.9017">
        <ele>161.199219</ele>
        <time>2016-08-16T09:37:10.000Z</time>
      </trkpt>
      <trkpt lat="49.67659" lon="-1.90185">
        <ele>160.699219</ele>
        <time>2016-08-16T09:37:13.000Z</time>
      </trkpt>
      <trkpt lat="49.67641" lon="-1.90225">
        <ele>159.5</ele>
        <time>2016-08-16T09:37:23.000Z</time>
      </trkpt>
      <trkpt lat="49.67626" lon="-1.90249">
        <ele>158.699219</ele>
        <time>2016-08-16T09:37:29.000Z</time>
      </trkpt>
      <trkpt lat="49.67621" lon="-1.90262">
        <ele>158.597656</ele>
        <time>2016-08-16T09:37:32.000Z</time>
      </trkpt>
      <trkpt lat="49.6761" lon="-1.9029">
        <ele>158.597656</ele>
        <time>2016-08-16T09:37:39.000Z</time>
      </trkpt>
      <trkpt lat="49.67606" lon="-1.90303">
        <ele>158.699219</ele>
        <time>2016-08-16T09:37:42.000Z</time>
      </trkpt>
      <trkpt lat="49.67604" lon="-1.9032">
        <ele>158.796875</ele>
        <time>2016-08-16T09:37:46.000Z</time>
      </trkpt>
      <trkpt lat="49.67596" lon="-1.90378">
        <ele>159.796875</ele>
        <time>2016-08-16T09:37:59.000Z</time>
      </trkpt>
      <trkpt lat="49.67586" lon="-1.90444">
        <ele>158.296875</ele>
        <time>2016-08-16T09:38:13.000Z</time>
      </trkpt>
      <trkpt lat="49.67586" lon="-1.9046">
        <ele>156.898438</ele>
        <time>2016-08-16T09:38:16.000Z</time>
      </trkpt>
      <trkpt lat="49.6759" lon="-1.90523">
        <ele>150</ele>
        <time>2016-08-16T09:38:30.000Z</time>
      </trkpt>
      <trkpt lat="49.67587" lon="-1.90539">
        <ele>149.597656</ele>
        <time>2016-08-16T09:38:36.000Z</time>
      </trkpt>
      <trkpt lat="49.6758" lon="-1.9055">
        <ele>151.097656</ele>
        <time>2016-08-16T09:38:39.000Z</time>
      </trkpt>
      <trkpt lat="49.67586" lon="-1.90537">
        <ele>153.898438</ele>
        <time>2016-08-16T09:38:55.000Z</time>
      </trkpt>
      <trkpt lat="49.67595" lon="-1.90529">
        <ele>155.199219</ele>
        <time>2016-08-16T09:39:10.000Z</time>
      </trkpt>
      <trkpt lat="49.67604" lon="-1.90523">
        <ele>156.296875</ele>
        <time>2016-08-16T09:39:16.000Z</time>
      </trkpt>
      <trkpt lat="49.67622" lon="-1.90512">
        <ele>158.398438</ele>
        <time>2016-08-16T09:39:27.000Z</time>
      </trkpt>
      <trkpt lat="49.67631" lon="-1.90508">
        <ele>159.296875</ele>
        <time>2016-08-16T09:39:31.000Z</time>
      </trkpt>
      <trkpt lat="49.67641" lon="-1.90505">
        <ele>160.199219</ele>
        <time>2016-08-16T09:39:35.000Z</time>
      </trkpt>
      <trkpt lat="49.67652" lon="-1.90503">
        <ele>160.796875</ele>
        <time>2016-08-16T09:39:39.000Z</time>
      </trkpt>
      <trkpt lat="49.67661" lon="-1.90503">
        <ele>161.398438</ele>
        <time>2016-08-16T09:39:42.000Z</time>
      </trkpt>
      <trkpt lat="49.67671" lon="-1.90504">
        <ele>161.898438</ele>
        <time>2016-08-16T09:39:45.000Z</time>
      </trkpt>
      <trkpt lat="49.67689" lon="-1.90508">
        <ele>162.398438</ele>
        <time>2016-08-16T09:39:51.000Z</time>
      </trkpt>
      <trkpt lat="49.67735" lon="-1.90522">
        <ele>163.597656</ele>
        <time>2016-08-16T09:40:06.000Z</time>
      </trkpt>
      <trkpt lat="49.67746" lon="-1.90522">
        <ele>163.898438</ele>
        <time>2016-08-16T09:40:09.000Z</time>
      </trkpt>
      <trkpt lat="49.67844" lon="-1.90522">
        <ele>165.296875</ele>
        <time>2016-08-16T09:40:36.000Z</time>
      </trkpt>
      <trkpt lat="49.67877" lon="-1.90516">
        <ele>166.796875</ele>
        <time>2016-08-16T09:40:45.000Z</time>
      </trkpt>
      <trkpt lat="49.67887" lon="-1.90513">
        <ele>166.398438</ele>
        <time>2016-08-16T09:40:49.000Z</time>
      </trkpt>
      <trkpt lat="49.67876" lon="-1.9052">
        <ele>166</ele>
        <time>2016-08-16T09:40:59.000Z</time>
      </trkpt>
      <trkpt lat="49.67866" lon="-1.90522">
        <ele>166.097656</ele>
        <time>2016-08-16T09:41:02.000Z</time>
      </trkpt>
      <trkpt lat="49.67833" lon="-1.90528">
        <ele>167</ele>
        <time>2016-08-16T09:41:11.000Z</time>
      </trkpt>
      <trkpt lat="49.67826" lon="-1.90542">
        <ele>167.699219</ele>
        <time>2016-08-16T09:41:15.000Z</time>
      </trkpt>
      <trkpt lat="49.67828" lon="-1.90556">
        <ele>168.199219</ele>
        <time>2016-08-16T09:41:20.000Z</time>
      </trkpt>
      <trkpt lat="49.67831" lon="-1.9057">
        <ele>168.597656</ele>
        <time>2016-08-16T09:41:24.000Z</time>
      </trkpt>
      <trkpt lat="49.67835" lon="-1.90585">
        <ele>168.898438</ele>
        <time>2016-08-16T09:41:27.000Z</time>
      </trkpt>
      <trkpt lat="49.67838" lon="-1.906">
        <ele>169.398438</ele>
        <time>2016-08-16T09:41:30.000Z</time>
      </trkpt>
      <trkpt lat="49.6784" lon="-1.90614">
        <ele>169.597656</ele>
        <time>2016-08-16T09:41:33.000Z</time>
      </trkpt>
      <trkpt lat="49.67841" lon="-1.9063">
        <ele>169</ele>
        <time>2016-08-16T09:41:36.000Z</time>
      </trkpt>
      <trkpt lat="49.67845" lon="-1.90648">
        <ele>168.597656</ele>
        <time>2016-08-16T09:41:39.000Z</time>
      </trkpt>
      <trkpt lat="49.67851" lon="-1.90676">
        <ele>168.097656</ele>
        <time>2016-08-16T09:41:43.000Z</time>
      </trkpt>
      <trkpt lat="49.67853" lon="-1.90691">
        <ele>168</ele>
        <time>2016-08-16T09:41:45.000Z</time>
      </trkpt>
      <trkpt lat="49.67857" lon="-1.90737">
        <ele>167.597656</ele>
        <time>2016-08-16T09:41:51.000Z</time>
      </trkpt>
      <trkpt lat="49.67861" lon="-1.90832">
        <ele>167</ele>
        <time>2016-08-16T09:42:04.000Z</time>
      </trkpt>
      <trkpt lat="49.67865" lon="-1.90849">
        <ele>166.597656</ele>
        <time>2016-08-16T09:42:07.000Z</time>
      </trkpt>
      <trkpt lat="49.67872" lon="-1.90865">
        <ele>166.296875</ele>
        <time>2016-08-16T09:42:10.000Z</time>
      </trkpt>
      <trkpt lat="49.67883" lon="-1.90892">
        <ele>166.097656</ele>
        <time>2016-08-16T09:42:16.000Z</time>
      </trkpt>
      <trkpt lat="49.67882" lon="-1.90909">
        <ele>166.199219</ele>
        <time>2016-08-16T09:42:19.000Z</time>
      </trkpt>
      <trkpt lat="49.67879" lon="-1.90927">
        <ele>166.199219</ele>
        <time>2016-08-16T09:42:22.000Z</time>
      </trkpt>
      <trkpt lat="49.67843" lon="-1.91114">
        <ele>162.699219</ele>
        <time>2016-08-16T09:42:45.000Z</time>
      </trkpt>
      <trkpt lat="49.67761" lon="-1.91558">
        <ele>137.898438</ele>
        <time>2016-08-16T09:43:15.000Z</time>
      </trkpt>
      <trkpt lat="49.67756" lon="-1.91595">
        <ele>136.796875</ele>
        <time>2016-08-16T09:43:20.000Z</time>
      </trkpt>
      <trkpt lat="49.67756" lon="-1.9161">
        <ele>135.796875</ele>
        <time>2016-08-16T09:43:23.000Z</time>
      </trkpt>
      <trkpt lat="49.67766" lon="-1.9162">
        <ele>135</ele>
        <time>2016-08-16T09:43:26.000Z</time>
      </trkpt>
      <trkpt lat="49.67776" lon="-1.9162">
        <ele>135.398438</ele>
        <time>2016-08-16T09:43:28.000Z</time>
      </trkpt>
      <trkpt lat="49.67787" lon="-1.9162">
        <ele>138.898438</ele>
        <time>2016-08-16T09:43:31.000Z</time>
      </trkpt>
      <trkpt lat="49.67796" lon="-1.91626">
        <ele>138.699219</ele>
        <time>2016-08-16T09:43:51.000Z</time>
      </trkpt>
      <trkpt lat="49.678" lon="-1.91645">
        <ele>138.296875</ele>
        <time>2016-08-16T09:43:55.000Z</time>
      </trkpt>
      <trkpt lat="49.67803" lon="-1.9166">
        <ele>137.796875</ele>
        <time>2016-08-16T09:43:57.000Z</time>
      </trkpt>
      <trkpt lat="49.67805" lon="-1.91679">
        <ele>136.699219</ele>
        <time>2016-08-16T09:43:59.000Z</time>
      </trkpt>
      <trkpt lat="49.67806" lon="-1.91701">
        <ele>135.398438</ele>
        <time>2016-08-16T09:44:01.000Z</time>
      </trkpt>
      <trkpt lat="49.67806" lon="-1.91725">
        <ele>134.296875</ele>
        <time>2016-08-16T09:44:03.000Z</time>
      </trkpt>
      <trkpt lat="49.67805" lon="-1.91749">
        <ele>133.199219</ele>
        <time>2016-08-16T09:44:05.000Z</time>
      </trkpt>
      <trkpt lat="49.67803" lon="-1.91774">
        <ele>132.199219</ele>
        <time>2016-08-16T09:44:07.000Z</time>
      </trkpt>
      <trkpt lat="49.67797" lon="-1.91845">
        <ele>130.796875</ele>
        <time>2016-08-16T09:44:13.000Z</time>
      </trkpt>
      <trkpt lat="49.6779" lon="-1.91866">
        <ele>131.898438</ele>
        <time>2016-08-16T09:44:15.000Z</time>
      </trkpt>
      <trkpt lat="49.67785" lon="-1.91882">
        <ele>132.796875</ele>
        <time>2016-08-16T09:44:17.000Z</time>
      </trkpt>
      <trkpt lat="49.67784" lon="-1.91897">
        <ele>133.699219</ele>
        <time>2016-08-16T09:44:19.000Z</time>
      </trkpt>
      <trkpt lat="49.67783" lon="-1.91928">
        <ele>133.097656</ele>
        <time>2016-08-16T09:44:26.000Z</time>
      </trkpt>
      <trkpt lat="49.67782" lon="-1.91911">
        <ele>132.5</ele>
        <time>2016-08-16T09:44:32.000Z</time>
      </trkpt>
      <trkpt lat="49.67782" lon="-1.91897">
        <ele>131.5</ele>
        <time>2016-08-16T09:44:35.000Z</time>
      </trkpt>
      <trkpt lat="49.67777" lon="-1.9188">
        <ele>130.796875</ele>
        <time>2016-08-16T09:44:38.000Z</time>
      </trkpt>
      <trkpt lat="49.67767" lon="-1.91871">
        <ele>130.699219</ele>
        <time>2016-08-16T09:44:41.000Z</time>
      </trkpt>
      <trkpt lat="49.67758" lon="-1.91867">
        <ele>130.898438</ele>
        <time>2016-08-16T09:44:44.000Z</time>
      </trkpt>
      <trkpt lat="49.67747" lon="-1.91866">
        <ele>131.097656</ele>
        <time>2016-08-16T09:44:47.000Z</time>
      </trkpt>
      <trkpt lat="49.67705" lon="-1.91861">
        <ele>131.097656</ele>
        <time>2016-08-16T09:44:59.000Z</time>
      </trkpt>
      <trkpt lat="49.67695" lon="-1.91856">
        <ele>130.5</ele>
        <time>2016-08-16T09:45:02.000Z</time>
      </trkpt>
      <trkpt lat="49.67685" lon="-1.91849">
        <ele>130.199219</ele>
        <time>2016-08-16T09:45:05.000Z</time>
      </trkpt>
      <trkpt lat="49.67676" lon="-1.91839">
        <ele>130.296875</ele>
        <time>2016-08-16T09:45:08.000Z</time>
      </trkpt>
      <trkpt lat="49.6767" lon="-1.91824">
        <ele>130.398438</ele>
        <time>2016-08-16T09:45:11.000Z</time>
      </trkpt>
      <trkpt lat="49.67669" lon="-1.91807">
        <ele>130.597656</ele>
        <time>2016-08-16T09:45:14.000Z</time>
      </trkpt>
      <trkpt lat="49.67669" lon="-1.9179">
        <ele>130.796875</ele>
        <time>2016-08-16T09:45:17.000Z</time>
      </trkpt>
      <trkpt lat="49.67664" lon="-1.91774">
        <ele>131.199219</ele>
        <time>2016-08-16T09:45:20.000Z</time>
      </trkpt>
      <trkpt lat="49.67656" lon="-1.91761">
        <ele>131.5</ele>
        <time>2016-08-16T09:45:23.000Z</time>
      </trkpt>
      <trkpt lat="49.67647" lon="-1.9175">
        <ele>130.699219</ele>
        <time>2016-08-16T09:45:26.000Z</time>
      </trkpt>
      <trkpt lat="49.67638" lon="-1.91742">
        <ele>129.898438</ele>
        <time>2016-08-16T09:45:29.000Z</time>
      </trkpt>
      <trkpt lat="49.67628" lon="-1.91736">
        <ele>130.597656</ele>
        <time>2016-08-16T09:45:32.000Z</time>
      </trkpt>
      <trkpt lat="49.67617" lon="-1.91734">
        <ele>132.296875</ele>
        <time>2016-08-16T09:45:35.000Z</time>
      </trkpt>
      <trkpt lat="49.67607" lon="-1.91731">
        <ele>134.097656</ele>
        <time>2016-08-16T09:45:38.000Z</time>
      </trkpt>
      <trkpt lat="49.676" lon="-1.91743">
        <ele>135.296875</ele>
        <time>2016-08-16T09:45:42.000Z</time>
      </trkpt>
      <trkpt lat="49.676" lon="-1.91761">
        <ele>136.296875</ele>
        <time>2016-08-16T09:45:46.000Z</time>
      </trkpt>
      <trkpt lat="49.67605" lon="-1.92004">
        <ele>136.699219</ele>
        <time>2016-08-16T09:46:37.000Z</time>
      </trkpt>
      <trkpt lat="49.67606" lon="-1.92035">
        <ele>136</ele>
        <time>2016-08-16T09:46:41.000Z</time>
      </trkpt>
      <trkpt lat="49.67607" lon="-1.9207">
        <ele>135.296875</ele>
        <time>2016-08-16T09:46:45.000Z</time>
      </trkpt>
      <trkpt lat="49.67607" lon="-1.9209">
        <ele>134.898438</ele>
        <time>2016-08-16T09:46:47.000Z</time>
      </trkpt>
      <trkpt lat="49.67603" lon="-1.92268">
        <ele>133.199219</ele>
        <time>2016-08-16T09:47:03.000Z</time>
      </trkpt>
      <trkpt lat="49.67604" lon="-1.92497">
        <ele>133.597656</ele>
        <time>2016-08-16T09:47:27.000Z</time>
      </trkpt>
      <trkpt lat="49.67601" lon="-1.92544">
        <ele>132.398438</ele>
        <time>2016-08-16T09:47:31.000Z</time>
      </trkpt>
      <trkpt lat="49.67577" lon="-1.92782">
        <ele>127.796875</ele>
        <time>2016-08-16T09:47:49.000Z</time>
      </trkpt>
      <trkpt lat="49.67576" lon="-1.92809">
        <ele>127.398438</ele>
        <time>2016-08-16T09:47:51.000Z</time>
      </trkpt>
      <trkpt lat="49.67577" lon="-1.92837">
        <ele>126.898438</ele>
        <time>2016-08-16T09:47:53.000Z</time>
      </trkpt>
      <trkpt lat="49.67579" lon="-1.92864">
        <ele>126.398438</ele>
        <time>2016-08-16T09:47:55.000Z</time>
      </trkpt>
      <trkpt lat="49.67607" lon="-1.93117">
        <ele>123.296875</ele>
        <time>2016-08-16T09:48:14.000Z</time>
      </trkpt>
      <trkpt lat="49.67612" lon="-1.93192">
        <ele>123.097656</ele>
        <time>2016-08-16T09:48:20.000Z</time>
      </trkpt>
      <trkpt lat="49.67623" lon="-1.93265">
        <ele>122.5</ele>
        <time>2016-08-16T09:48:26.000Z</time>
      </trkpt>
      <trkpt lat="49.67628" lon="-1.93289">
        <ele>122.296875</ele>
        <time>2016-08-16T09:48:28.000Z</time>
      </trkpt>
      <trkpt lat="49.67646" lon="-1.93355">
        <ele>122.699219</ele>
        <time>2016-08-16T09:48:34.000Z</time>
      </trkpt>
      <trkpt lat="49.67652" lon="-1.93374">
        <ele>123</ele>
        <time>2016-08-16T09:48:36.000Z</time>
      </trkpt>
      <trkpt lat="49.67659" lon="-1.93391">
        <ele>123.296875</ele>
        <time>2016-08-16T09:48:38.000Z</time>
      </trkpt>
      <trkpt lat="49.67666" lon="-1.93406">
        <ele>123.5</ele>
        <time>2016-08-16T09:48:40.000Z</time>
      </trkpt>
      <trkpt lat="49.67691" lon="-1.93463">
        <ele>122.5</ele>
        <time>2016-08-16T09:48:48.000Z</time>
      </trkpt>
      <trkpt lat="49.67697" lon="-1.93479">
        <ele>122.199219</ele>
        <time>2016-08-16T09:48:50.000Z</time>
      </trkpt>
      <trkpt lat="49.67713" lon="-1.93546">
        <ele>120.699219</ele>
        <time>2016-08-16T09:48:58.000Z</time>
      </trkpt>
      <trkpt lat="49.67729" lon="-1.93615">
        <ele>119.296875</ele>
        <time>2016-08-16T09:49:06.000Z</time>
      </trkpt>
      <trkpt lat="49.67731" lon="-1.93632">
        <ele>119.097656</ele>
        <time>2016-08-16T09:49:08.000Z</time>
      </trkpt>
      <trkpt lat="49.67733" lon="-1.93649">
        <ele>118.796875</ele>
        <time>2016-08-16T09:49:10.000Z</time>
      </trkpt>
      <trkpt lat="49.67733" lon="-1.93666">
        <ele>118.5</ele>
        <time>2016-08-16T09:49:12.000Z</time>
      </trkpt>
      <trkpt lat="49.67737" lon="-1.93859">
        <ele>117.597656</ele>
        <time>2016-08-16T09:49:32.000Z</time>
      </trkpt>
      <trkpt lat="49.67735" lon="-1.93875">
        <ele>117.796875</ele>
        <time>2016-08-16T09:49:34.000Z</time>
      </trkpt>
      <trkpt lat="49.67732" lon="-1.93889">
        <ele>118.097656</ele>
        <time>2016-08-16T09:49:36.000Z</time>
      </trkpt>
      <trkpt lat="49.67728" lon="-1.93902">
        <ele>118.796875</ele>
        <time>2016-08-16T09:49:38.000Z</time>
      </trkpt>
      <trkpt lat="49.6769" lon="-1.94041">
        <ele>118.398438</ele>
        <time>2016-08-16T09:50:03.000Z</time>
      </trkpt>
      <trkpt lat="49.67681" lon="-1.94089">
        <ele>117.699219</ele>
        <time>2016-08-16T09:50:09.000Z</time>
      </trkpt>
      <trkpt lat="49.67674" lon="-1.94138">
        <ele>117</ele>
        <time>2016-08-16T09:50:15.000Z</time>
      </trkpt>
      <trkpt lat="49.67672" lon="-1.94173">
        <ele>116.597656</ele>
        <time>2016-08-16T09:50:19.000Z</time>
      </trkpt>
      <trkpt lat="49.67664" lon="-1.94323">
        <ele>117.5</ele>
        <time>2016-08-16T09:50:39.000Z</time>
      </trkpt>
      <trkpt lat="49.67665" lon="-1.94338">
        <ele>117.597656</ele>
        <time>2016-08-16T09:50:43.000Z</time>
      </trkpt>
      <trkpt lat="49.67663" lon="-1.94355">
        <ele>117.898438</ele>
        <time>2016-08-16T09:50:47.000Z</time>
      </trkpt>
      <trkpt lat="49.67659" lon="-1.944">
        <ele>119.796875</ele>
        <time>2016-08-16T09:50:57.000Z</time>
      </trkpt>
      <trkpt lat="49.6765" lon="-1.94408">
        <ele>120.296875</ele>
        <time>2016-08-16T09:51:03.000Z</time>
      </trkpt>
      <trkpt lat="49.67641" lon="-1.94409">
        <ele>119.699219</ele>
        <time>2016-08-16T09:51:15.000Z</time>
      </trkpt>
      <trkpt lat="49.67651" lon="-1.94405">
        <ele>119.199219</ele>
        <time>2016-08-16T09:57:36.000Z</time>
      </trkpt>
      <trkpt lat="49.67659" lon="-1.94397">
        <ele>118.699219</ele>
        <time>2016-08-16T09:57:43.000Z</time>
      </trkpt>
      <trkpt lat="49.67659" lon="-1.94381">
        <ele>118.398438</ele>
        <time>2016-08-16T09:57:47.000Z</time>
      </trkpt>
      <trkpt lat="49.6766" lon="-1.94365">
        <ele>118.199219</ele>
        <time>2016-08-16T09:57:50.000Z</time>
      </trkpt>
      <trkpt lat="49.67664" lon="-1.94333">
        <ele>117.898438</ele>
        <time>2016-08-16T09:57:57.000Z</time>
      </trkpt>
      <trkpt lat="49.67662" lon="-1.94318">
        <ele>117.597656</ele>
        <time>2016-08-16T09:58:01.000Z</time>
      </trkpt>
      <trkpt lat="49.67663" lon="-1.94302">
        <ele>117.097656</ele>
        <time>2016-08-16T09:58:04.000Z</time>
      </trkpt>
      <trkpt lat="49.67671" lon="-1.94143">
        <ele>116.5</ele>
        <time>2016-08-16T09:58:30.000Z</time>
      </trkpt>
      <trkpt lat="49.67672" lon="-1.94127">
        <ele>116.699219</ele>
        <time>2016-08-16T09:58:33.000Z</time>
      </trkpt>
      <trkpt lat="49.67679" lon="-1.9408">
        <ele>117.199219</ele>
        <time>2016-08-16T09:58:42.000Z</time>
      </trkpt>
      <trkpt lat="49.67687" lon="-1.94033">
        <ele>118.097656</ele>
        <time>2016-08-16T09:58:51.000Z</time>
      </trkpt>
      <trkpt lat="49.67706" lon="-1.93957">
        <ele>119.097656</ele>
        <time>2016-08-16T09:59:06.000Z</time>
      </trkpt>
      <trkpt lat="49.67719" lon="-1.93911">
        <ele>117.199219</ele>
        <time>2016-08-16T09:59:15.000Z</time>
      </trkpt>
      <trkpt lat="49.67732" lon="-1.9387">
        <ele>116.097656</ele>
        <time>2016-08-16T09:59:21.000Z</time>
      </trkpt>
      <trkpt lat="49.67734" lon="-1.93856">
        <ele>115.898438</ele>
        <time>2016-08-16T09:59:23.000Z</time>
      </trkpt>
      <trkpt lat="49.67733" lon="-1.93842">
        <ele>115.796875</ele>
        <time>2016-08-16T09:59:25.000Z</time>
      </trkpt>
      <trkpt lat="49.67728" lon="-1.93756">
        <ele>116.796875</ele>
        <time>2016-08-16T09:59:40.000Z</time>
      </trkpt>
      <trkpt lat="49.67728" lon="-1.93725">
        <ele>117.199219</ele>
        <time>2016-08-16T09:59:46.000Z</time>
      </trkpt>
      <trkpt lat="49.6773" lon="-1.93646">
        <ele>118</ele>
        <time>2016-08-16T10:00:01.000Z</time>
      </trkpt>
      <trkpt lat="49.67728" lon="-1.9363">
        <ele>118</ele>
        <time>2016-08-16T10:00:04.000Z</time>
      </trkpt>
      <trkpt lat="49.67726" lon="-1.93614">
        <ele>117.898438</ele>
        <time>2016-08-16T10:00:07.000Z</time>
      </trkpt>
      <trkpt lat="49.67723" lon="-1.93597">
        <ele>117.898438</ele>
        <time>2016-08-16T10:00:10.000Z</time>
      </trkpt>
      <trkpt lat="49.67706" lon="-1.93521">
        <ele>118.296875</ele>
        <time>2016-08-16T10:00:25.000Z</time>
      </trkpt>
      <trkpt lat="49.67694" lon="-1.93477">
        <ele>119.097656</ele>
        <time>2016-08-16T10:00:34.000Z</time>
      </trkpt>
      <trkpt lat="49.6769" lon="-1.93462">
        <ele>119.398438</ele>
        <time>2016-08-16T10:00:37.000Z</time>
      </trkpt>
      <trkpt lat="49.67685" lon="-1.93449">
        <ele>119.699219</ele>
        <time>2016-08-16T10:00:40.000Z</time>
      </trkpt>
      <trkpt lat="49.67673" lon="-1.93422">
        <ele>120.097656</ele>
        <time>2016-08-16T10:00:46.000Z</time>
      </trkpt>
      <trkpt lat="49.67659" lon="-1.93396">
        <ele>119.398438</ele>
        <time>2016-08-16T10:00:52.000Z</time>
      </trkpt>
      <trkpt lat="49.67653" lon="-1.9338">
        <ele>118.796875</ele>
        <time>2016-08-16T10:00:55.000Z</time>
      </trkpt>
      <trkpt lat="49.67647" lon="-1.93363">
        <ele>118.296875</ele>
        <time>2016-08-16T10:00:58.000Z</time>
      </trkpt>
      <trkpt lat="49.67642" lon="-1.93344">
        <ele>118</ele>
        <time>2016-08-16T10:01:01.000Z</time>
      </trkpt>
      <trkpt lat="49.67623" lon="-1.93277">
        <ele>118.5</ele>
        <time>2016-08-16T10:01:13.000Z</time>
      </trkpt>
      <trkpt lat="49.6762" lon="-1.93261">
        <ele>118.5</ele>
        <time>2016-08-16T10:01:16.000Z</time>
      </trkpt>
      <trkpt lat="49.67612" lon="-1.93212">
        <ele>118.796875</ele>
        <time>2016-08-16T10:01:25.000Z</time>
      </trkpt>
      <trkpt lat="49.67606" lon="-1.93165">
        <ele>119.097656</ele>
        <time>2016-08-16T10:01:34.000Z</time>
      </trkpt>
      <trkpt lat="49.67606" lon="-1.93149">
        <ele>119.097656</ele>
        <time>2016-08-16T10:01:37.000Z</time>
      </trkpt>
      <trkpt lat="49.676" lon="-1.93051">
        <ele>119.699219</ele>
        <time>2016-08-16T10:01:55.000Z</time>
      </trkpt>
      <trkpt lat="49.67573" lon="-1.92823">
        <ele>123.199219</ele>
        <time>2016-08-16T10:02:40.000Z</time>
      </trkpt>
      <trkpt lat="49.67572" lon="-1.92792">
        <ele>123.597656</ele>
        <time>2016-08-16T10:02:46.000Z</time>
      </trkpt>
      <trkpt lat="49.67573" lon="-1.92776">
        <ele>123.898438</ele>
        <time>2016-08-16T10:02:49.000Z</time>
      </trkpt>
      <trkpt lat="49.67603" lon="-1.9242">
        <ele>129</ele>
        <time>2016-08-16T10:04:03.000Z</time>
      </trkpt>
      <trkpt lat="49.67603" lon="-1.92368">
        <ele>128.398438</ele>
        <time>2016-08-16T10:04:12.000Z</time>
      </trkpt>
      <trkpt lat="49.67602" lon="-1.92349">
        <ele>127.699219</ele>
        <time>2016-08-16T10:04:15.000Z</time>
      </trkpt>
      <trkpt lat="49.67598" lon="-1.92203">
        <ele>128.5</ele>
        <time>2016-08-16T10:04:39.000Z</time>
      </trkpt>
      <trkpt lat="49.676" lon="-1.92154">
        <ele>129.5</ele>
        <time>2016-08-16T10:04:48.000Z</time>
      </trkpt>
      <trkpt lat="49.67605" lon="-1.92057">
        <ele>131.5</ele>
        <time>2016-08-16T10:05:06.000Z</time>
      </trkpt>
      <trkpt lat="49.67597" lon="-1.91733">
        <ele>132.796875</ele>
        <time>2016-08-16T10:06:04.000Z</time>
      </trkpt>
      <trkpt lat="49.67604" lon="-1.91722">
        <ele>137.199219</ele>
        <time>2016-08-16T10:06:12.000Z</time>
      </trkpt>
      <trkpt lat="49.67609" lon="-1.91735">
        <ele>137.898438</ele>
        <time>2016-08-16T10:07:44.000Z</time>
      </trkpt>
      <trkpt lat="49.67619" lon="-1.91734">
        <ele>137</ele>
        <time>2016-08-16T10:08:10.000Z</time>
      </trkpt>
      <trkpt lat="49.67628" lon="-1.91737">
        <ele>136.296875</ele>
        <time>2016-08-16T10:08:14.000Z</time>
      </trkpt>
      <trkpt lat="49.67638" lon="-1.91741">
        <ele>135.5</ele>
        <time>2016-08-16T10:08:17.000Z</time>
      </trkpt>
      <trkpt lat="49.67648" lon="-1.9175">
        <ele>135.199219</ele>
        <time>2016-08-16T10:08:20.000Z</time>
      </trkpt>
      <trkpt lat="49.67659" lon="-1.91763">
        <ele>134.597656</ele>
        <time>2016-08-16T10:08:23.000Z</time>
      </trkpt>
      <trkpt lat="49.67667" lon="-1.91778">
        <ele>133.898438</ele>
        <time>2016-08-16T10:08:26.000Z</time>
      </trkpt>
      <trkpt lat="49.6767" lon="-1.91798">
        <ele>133.398438</ele>
        <time>2016-08-16T10:08:29.000Z</time>
      </trkpt>
      <trkpt lat="49.6767" lon="-1.91818">
        <ele>133</ele>
        <time>2016-08-16T10:08:32.000Z</time>
      </trkpt>
      <trkpt lat="49.67676" lon="-1.91835">
        <ele>132.699219</ele>
        <time>2016-08-16T10:08:35.000Z</time>
      </trkpt>
      <trkpt lat="49.67686" lon="-1.91846">
        <ele>132.5</ele>
        <time>2016-08-16T10:08:38.000Z</time>
      </trkpt>
      <trkpt lat="49.67697" lon="-1.91856">
        <ele>132.199219</ele>
        <time>2016-08-16T10:08:41.000Z</time>
      </trkpt>
      <trkpt lat="49.67709" lon="-1.9186">
        <ele>132</ele>
        <time>2016-08-16T10:08:44.000Z</time>
      </trkpt>
      <trkpt lat="49.67722" lon="-1.91862">
        <ele>131.796875</ele>
        <time>2016-08-16T10:08:47.000Z</time>
      </trkpt>
      <trkpt lat="49.67756" lon="-1.91864">
        <ele>130.5</ele>
        <time>2016-08-16T10:08:55.000Z</time>
      </trkpt>
      <trkpt lat="49.67765" lon="-1.91867">
        <ele>130</ele>
        <time>2016-08-16T10:08:57.000Z</time>
      </trkpt>
      <trkpt lat="49.67774" lon="-1.91873">
        <ele>128.898438</ele>
        <time>2016-08-16T10:08:59.000Z</time>
      </trkpt>
      <trkpt lat="49.67785" lon="-1.91872">
        <ele>127.5</ele>
        <time>2016-08-16T10:09:02.000Z</time>
      </trkpt>
      <trkpt lat="49.67794" lon="-1.91864">
        <ele>125</ele>
        <time>2016-08-16T10:09:08.000Z</time>
      </trkpt>
      <trkpt lat="49.67823" lon="-1.91836">
        <ele>121.097656</ele>
        <time>2016-08-16T10:09:26.000Z</time>
      </trkpt>
      <trkpt lat="49.67831" lon="-1.91831">
        <ele>120.5</ele>
        <time>2016-08-16T10:09:28.000Z</time>
      </trkpt>
      <trkpt lat="49.67841" lon="-1.91829">
        <ele>120.796875</ele>
        <time>2016-08-16T10:09:30.000Z</time>
      </trkpt>
      <trkpt lat="49.67851" lon="-1.91822">
        <ele>121.398438</ele>
        <time>2016-08-16T10:09:32.000Z</time>
      </trkpt>
      <trkpt lat="49.6786" lon="-1.91815">
        <ele>121.398438</ele>
        <time>2016-08-16T10:09:34.000Z</time>
      </trkpt>
      <trkpt lat="49.67869" lon="-1.9181">
        <ele>122</ele>
        <time>2016-08-16T10:09:36.000Z</time>
      </trkpt>
      <trkpt lat="49.6789" lon="-1.91799">
        <ele>124.199219</ele>
        <time>2016-08-16T10:09:42.000Z</time>
      </trkpt>
      <trkpt lat="49.67898" lon="-1.91787">
        <ele>125.796875</ele>
        <time>2016-08-16T10:09:46.000Z</time>
      </trkpt>
      <trkpt lat="49.67903" lon="-1.91771">
        <ele>127.296875</ele>
        <time>2016-08-16T10:09:50.000Z</time>
      </trkpt>
      <trkpt lat="49.67911" lon="-1.91761">
        <ele>127.796875</ele>
        <time>2016-08-16T10:09:54.000Z</time>
      </trkpt>
      <trkpt lat="49.6792" lon="-1.91748">
        <ele>128.097656</ele>
        <time>2016-08-16T10:09:58.000Z</time>
      </trkpt>
      <trkpt lat="49.67926" lon="-1.91737">
        <ele>128.398438</ele>
        <time>2016-08-16T10:10:01.000Z</time>
      </trkpt>
      <trkpt lat="49.67938" lon="-1.91714">
        <ele>129.097656</ele>
        <time>2016-08-16T10:10:07.000Z</time>
      </trkpt>
      <trkpt lat="49.67945" lon="-1.91705">
        <ele>129.296875</ele>
        <time>2016-08-16T10:10:10.000Z</time>
      </trkpt>
      <trkpt lat="49.67977" lon="-1.91665">
        <ele>127.898438</ele>
        <time>2016-08-16T10:10:22.000Z</time>
      </trkpt>
      <trkpt lat="49.67987" lon="-1.91654">
        <ele>127.597656</ele>
        <time>2016-08-16T10:10:25.000Z</time>
      </trkpt>
      <trkpt lat="49.67998" lon="-1.91643">
        <ele>127.398438</ele>
        <time>2016-08-16T10:10:28.000Z</time>
      </trkpt>
      <trkpt lat="49.68038" lon="-1.91606">
        <ele>124.796875</ele>
        <time>2016-08-16T10:10:39.000Z</time>
      </trkpt>
      <trkpt lat="49.68054" lon="-1.91584">
        <ele>124.296875</ele>
        <time>2016-08-16T10:10:43.000Z</time>
      </trkpt>
      <trkpt lat="49.68064" lon="-1.91576">
        <ele>124.398438</ele>
        <time>2016-08-16T10:10:45.000Z</time>
      </trkpt>
      <trkpt lat="49.68116" lon="-1.9154">
        <ele>124.796875</ele>
        <time>2016-08-16T10:10:58.000Z</time>
      </trkpt>
      <trkpt lat="49.68126" lon="-1.91535">
        <ele>124.398438</ele>
        <time>2016-08-16T10:11:01.000Z</time>
      </trkpt>
      <trkpt lat="49.68138" lon="-1.91533">
        <ele>123.796875</ele>
        <time>2016-08-16T10:11:04.000Z</time>
      </trkpt>
      <trkpt lat="49.68188" lon="-1.91525">
        <ele>121.296875</ele>
        <time>2016-08-16T10:11:15.000Z</time>
      </trkpt>
      <trkpt lat="49.68199" lon="-1.91526">
        <ele>120.296875</ele>
        <time>2016-08-16T10:11:17.000Z</time>
      </trkpt>
      <trkpt lat="49.6821" lon="-1.91529">
        <ele>119.296875</ele>
        <time>2016-08-16T10:11:19.000Z</time>
      </trkpt>
      <trkpt lat="49.68237" lon="-1.91538">
        <ele>117.699219</ele>
        <time>2016-08-16T10:11:23.000Z</time>
      </trkpt>
      <trkpt lat="49.68251" lon="-1.91544">
        <ele>117.199219</ele>
        <time>2016-08-16T10:11:25.000Z</time>
      </trkpt>
      <trkpt lat="49.68262" lon="-1.91555">
        <ele>117.199219</ele>
        <time>2016-08-16T10:11:27.000Z</time>
      </trkpt>
      <trkpt lat="49.68269" lon="-1.91572">
        <ele>117.898438</ele>
        <time>2016-08-16T10:11:29.000Z</time>
      </trkpt>
      <trkpt lat="49.68274" lon="-1.91589">
        <ele>118.597656</ele>
        <time>2016-08-16T10:11:31.000Z</time>
      </trkpt>
      <trkpt lat="49.68284" lon="-1.91619">
        <ele>118.796875</ele>
        <time>2016-08-16T10:11:35.000Z</time>
      </trkpt>
      <trkpt lat="49.68291" lon="-1.91631">
        <ele>118.898438</ele>
        <time>2016-08-16T10:11:37.000Z</time>
      </trkpt>
      <trkpt lat="49.68298" lon="-1.9164">
        <ele>119.097656</ele>
        <time>2016-08-16T10:11:39.000Z</time>
      </trkpt>
      <trkpt lat="49.68306" lon="-1.91647">
        <ele>119.398438</ele>
        <time>2016-08-16T10:11:41.000Z</time>
      </trkpt>
      <trkpt lat="49.68386" lon="-1.91706">
        <ele>120.597656</ele>
        <time>2016-08-16T10:12:05.000Z</time>
      </trkpt>
      <trkpt lat="49.68407" lon="-1.91718">
        <ele>120.199219</ele>
        <time>2016-08-16T10:12:11.000Z</time>
      </trkpt>
      <trkpt lat="49.68483" lon="-1.91761">
        <ele>119.699219</ele>
        <time>2016-08-16T10:12:32.000Z</time>
      </trkpt>
      <trkpt lat="49.68494" lon="-1.91766">
        <ele>120.097656</ele>
        <time>2016-08-16T10:12:35.000Z</time>
      </trkpt>
      <trkpt lat="49.68515" lon="-1.91771">
        <ele>120.398438</ele>
        <time>2016-08-16T10:12:41.000Z</time>
      </trkpt>
      <trkpt lat="49.68525" lon="-1.91772">
        <ele>120.699219</ele>
        <time>2016-08-16T10:12:44.000Z</time>
      </trkpt>
      <trkpt lat="49.68555" lon="-1.91771">
        <ele>120.097656</ele>
        <time>2016-08-16T10:12:54.000Z</time>
      </trkpt>
      <trkpt lat="49.68564" lon="-1.91773">
        <ele>119.398438</ele>
        <time>2016-08-16T10:16:35.000Z</time>
      </trkpt>
      <trkpt lat="49.68574" lon="-1.91776">
        <ele>118.699219</ele>
        <time>2016-08-16T10:16:41.000Z</time>
      </trkpt>
      <trkpt lat="49.68583" lon="-1.91783">
        <ele>118.398438</ele>
        <time>2016-08-16T10:16:47.000Z</time>
      </trkpt>
      <trkpt lat="49.68592" lon="-1.91791">
        <ele>117.699219</ele>
        <time>2016-08-16T10:16:51.000Z</time>
      </trkpt>
      <trkpt lat="49.68602" lon="-1.91801">
        <ele>116.699219</ele>
        <time>2016-08-16T10:16:55.000Z</time>
      </trkpt>
      <trkpt lat="49.68611" lon="-1.91813">
        <ele>115.796875</ele>
        <time>2016-08-16T10:16:58.000Z</time>
      </trkpt>
      <trkpt lat="49.68619" lon="-1.91825">
        <ele>114.296875</ele>
        <time>2016-08-16T10:17:00.000Z</time>
      </trkpt>
      <trkpt lat="49.68627" lon="-1.91839">
        <ele>112.699219</ele>
        <time>2016-08-16T10:17:02.000Z</time>
      </trkpt>
      <trkpt lat="49.68646" lon="-1.91882">
        <ele>108.097656</ele>
        <time>2016-08-16T10:17:08.000Z</time>
      </trkpt>
      <trkpt lat="49.68654" lon="-1.91893">
        <ele>106.5</ele>
        <time>2016-08-16T10:17:11.000Z</time>
      </trkpt>
      <trkpt lat="49.68665" lon="-1.91898">
        <ele>104.898438</ele>
        <time>2016-08-16T10:17:15.000Z</time>
      </trkpt>
      <trkpt lat="49.68697" lon="-1.91912">
        <ele>101</ele>
        <time>2016-08-16T10:17:22.000Z</time>
      </trkpt>
      <trkpt lat="49.68712" lon="-1.91915">
        <ele>100.097656</ele>
        <time>2016-08-16T10:17:24.000Z</time>
      </trkpt>
      <trkpt lat="49.68727" lon="-1.91915">
        <ele>99.5</ele>
        <time>2016-08-16T10:17:26.000Z</time>
      </trkpt>
      <trkpt lat="49.68741" lon="-1.91911">
        <ele>99.199219</ele>
        <time>2016-08-16T10:17:28.000Z</time>
      </trkpt>
      <trkpt lat="49.68761" lon="-1.91902">
        <ele>99.5</ele>
        <time>2016-08-16T10:17:33.000Z</time>
      </trkpt>
      <trkpt lat="49.6878" lon="-1.91891">
        <ele>100.398438</ele>
        <time>2016-08-16T10:17:39.000Z</time>
      </trkpt>
      <trkpt lat="49.6879" lon="-1.91889">
        <ele>100.898438</ele>
        <time>2016-08-16T10:17:42.000Z</time>
      </trkpt>
      <trkpt lat="49.68799" lon="-1.9189">
        <ele>101.199219</ele>
        <time>2016-08-16T10:17:45.000Z</time>
      </trkpt>
      <trkpt lat="49.68809" lon="-1.91894">
        <ele>101.5</ele>
        <time>2016-08-16T10:17:48.000Z</time>
      </trkpt>
      <trkpt lat="49.6883" lon="-1.91905">
        <ele>102</ele>
        <time>2016-08-16T10:17:54.000Z</time>
      </trkpt>
      <trkpt lat="49.68839" lon="-1.91912">
        <ele>102</ele>
        <time>2016-08-16T10:17:57.000Z</time>
      </trkpt>
      <trkpt lat="49.68848" lon="-1.9192">
        <ele>102.199219</ele>
        <time>2016-08-16T10:18:00.000Z</time>
      </trkpt>
      <trkpt lat="49.68858" lon="-1.91926">
        <ele>102.296875</ele>
        <time>2016-08-16T10:18:03.000Z</time>
      </trkpt>
      <trkpt lat="49.68867" lon="-1.91932">
        <ele>101.796875</ele>
        <time>2016-08-16T10:18:06.000Z</time>
      </trkpt>
      <trkpt lat="49.68876" lon="-1.91943">
        <ele>101.398438</ele>
        <time>2016-08-16T10:18:09.000Z</time>
      </trkpt>
      <trkpt lat="49.68914" lon="-1.91996">
        <ele>99.199219</ele>
        <time>2016-08-16T10:18:20.000Z</time>
      </trkpt>
      <trkpt lat="49.68939" lon="-1.92032">
        <ele>97.199219</ele>
        <time>2016-08-16T10:18:28.000Z</time>
      </trkpt>
      <trkpt lat="49.68958" lon="-1.92051">
        <ele>96.5</ele>
        <time>2016-08-16T10:18:34.000Z</time>
      </trkpt>
      <trkpt lat="49.68967" lon="-1.9206">
        <ele>96.296875</ele>
        <time>2016-08-16T10:18:37.000Z</time>
      </trkpt>
      <trkpt lat="49.69006" lon="-1.92096">
        <ele>95.5</ele>
        <time>2016-08-16T10:18:49.000Z</time>
      </trkpt>
      <trkpt lat="49.69016" lon="-1.92108">
        <ele>95.199219</ele>
        <time>2016-08-16T10:18:52.000Z</time>
      </trkpt>
      <trkpt lat="49.69026" lon="-1.92122">
        <ele>94.898438</ele>
        <time>2016-08-16T10:18:55.000Z</time>
      </trkpt>
      <trkpt lat="49.69035" lon="-1.92136">
        <ele>94.796875</ele>
        <time>2016-08-16T10:18:58.000Z</time>
      </trkpt>
      <trkpt lat="49.69043" lon="-1.92152">
        <ele>94.699219</ele>
        <time>2016-08-16T10:19:01.000Z</time>
      </trkpt>
      <trkpt lat="49.69049" lon="-1.92169">
        <ele>95</ele>
        <time>2016-08-16T10:19:04.000Z</time>
      </trkpt>
      <trkpt lat="49.69075" lon="-1.92238">
        <ele>97.398438</ele>
        <time>2016-08-16T10:19:19.000Z</time>
      </trkpt>
      <trkpt lat="49.69082" lon="-1.92249">
        <ele>98.398438</ele>
        <time>2016-08-16T10:19:22.000Z</time>
      </trkpt>
      <trkpt lat="49.69091" lon="-1.92259">
        <ele>99.5</ele>
        <time>2016-08-16T10:19:26.000Z</time>
      </trkpt>
      <trkpt lat="49.69097" lon="-1.92275">
        <ele>99.796875</ele>
        <time>2016-08-16T10:19:30.000Z</time>
      </trkpt>
      <trkpt lat="49.69099" lon="-1.9229">
        <ele>100.199219</ele>
        <time>2016-08-16T10:19:33.000Z</time>
      </trkpt>
      <trkpt lat="49.69119" lon="-1.92435">
        <ele>103.597656</ele>
        <time>2016-08-16T10:20:03.000Z</time>
      </trkpt>
      <trkpt lat="49.69123" lon="-1.92448">
        <ele>103.796875</ele>
        <time>2016-08-16T10:20:06.000Z</time>
      </trkpt>
      <trkpt lat="49.69162" lon="-1.92607">
        <ele>106.296875</ele>
        <time>2016-08-16T10:20:39.000Z</time>
      </trkpt>
      <trkpt lat="49.69175" lon="-1.92673">
        <ele>105.398438</ele>
        <time>2016-08-16T10:20:51.000Z</time>
      </trkpt>
      <trkpt lat="49.69185" lon="-1.92703">
        <ele>105.699219</ele>
        <time>2016-08-16T10:20:57.000Z</time>
      </trkpt>
      <trkpt lat="49.69192" lon="-1.92716">
        <ele>106.796875</ele>
        <time>2016-08-16T10:21:01.000Z</time>
      </trkpt>
      <trkpt lat="49.692" lon="-1.92725">
        <ele>108</ele>
        <time>2016-08-16T10:21:05.000Z</time>
      </trkpt>
      <trkpt lat="49.69209" lon="-1.92729">
        <ele>109.296875</ele>
        <time>2016-08-16T10:21:10.000Z</time>
      </trkpt>
      <trkpt lat="49.69219" lon="-1.92731">
        <ele>110.5</ele>
        <time>2016-08-16T10:21:15.000Z</time>
      </trkpt>
      <trkpt lat="49.69228" lon="-1.92731">
        <ele>111.898438</ele>
        <time>2016-08-16T10:21:20.000Z</time>
      </trkpt>
      <trkpt lat="49.69246" lon="-1.9273">
        <ele>114.398438</ele>
        <time>2016-08-16T10:21:30.000Z</time>
      </trkpt>
      <trkpt lat="49.69255" lon="-1.92728">
        <ele>113.796875</ele>
        <time>2016-08-16T10:21:35.000Z</time>
      </trkpt>
      <trkpt lat="49.69265" lon="-1.9273">
        <ele>112.5</ele>
        <time>2016-08-16T10:22:05.000Z</time>
      </trkpt>
      <trkpt lat="49.69267" lon="-1.92746">
        <ele>111.296875</ele>
        <time>2016-08-16T10:22:10.000Z</time>
      </trkpt>
      <trkpt lat="49.69271" lon="-1.92777">
        <ele>111.5</ele>
        <time>2016-08-16T10:22:20.000Z</time>
      </trkpt>
      <trkpt lat="49.69269" lon="-1.92794">
        <ele>109.5</ele>
        <time>2016-08-16T10:23:40.000Z</time>
      </trkpt>
      <trkpt lat="49.69268" lon="-1.9281">
        <ele>107</ele>
        <time>2016-08-16T10:23:45.000Z</time>
      </trkpt>
      <trkpt lat="49.69266" lon="-1.92824">
        <ele>106</ele>
        <time>2016-08-16T10:23:50.000Z</time>
      </trkpt>
      <trkpt lat="49.69251" lon="-1.92915">
        <ele>103.5</ele>
        <time>2016-08-16T10:24:18.000Z</time>
      </trkpt>
      <trkpt lat="49.69246" lon="-1.92957">
        <ele>96.5</ele>
        <time>2016-08-16T10:24:35.000Z</time>
      </trkpt>
      <trkpt lat="49.69242" lon="-1.92972">
        <ele>95</ele>
        <time>2016-08-16T10:24:42.000Z</time>
      </trkpt>
      <trkpt lat="49.69238" lon="-1.92986">
        <ele>94.5</ele>
        <time>2016-08-16T10:24:50.000Z</time>
      </trkpt>
      <trkpt lat="49.69235" lon="-1.93001">
        <ele>94.097656</ele>
        <time>2016-08-16T10:24:55.000Z</time>
      </trkpt>
      <trkpt lat="49.69234" lon="-1.93017">
        <ele>94.5</ele>
        <time>2016-08-16T10:24:59.000Z</time>
      </trkpt>
      <trkpt lat="49.69235" lon="-1.93031">
        <ele>96.398438</ele>
        <time>2016-08-16T10:25:02.000Z</time>
      </trkpt>
      <trkpt lat="49.6924" lon="-1.93046">
        <ele>98.597656</ele>
        <time>2016-08-16T10:25:06.000Z</time>
      </trkpt>
      <trkpt lat="49.69248" lon="-1.93058">
        <ele>99.699219</ele>
        <time>2016-08-16T10:25:11.000Z</time>
      </trkpt>
      <trkpt lat="49.69254" lon="-1.93069">
        <ele>100.597656</ele>
        <time>2016-08-16T10:25:15.000Z</time>
      </trkpt>
      <trkpt lat="49.69258" lon="-1.93084">
        <ele>105.296875</ele>
        <time>2016-08-16T10:25:19.000Z</time>
      </trkpt>
      <trkpt lat="49.69268" lon="-1.9311">
        <ele>105.597656</ele>
        <time>2016-08-16T10:26:59.000Z</time>
      </trkpt>
      <trkpt lat="49.69284" lon="-1.93151">
        <ele>105.5</ele>
        <time>2016-08-16T10:27:13.000Z</time>
      </trkpt>
      <trkpt lat="49.69287" lon="-1.93165">
        <ele>105.199219</ele>
        <time>2016-08-16T10:27:17.000Z</time>
      </trkpt>
      <trkpt lat="49.6929" lon="-1.93181">
        <ele>105</ele>
        <time>2016-08-16T10:27:21.000Z</time>
      </trkpt>
      <trkpt lat="49.69296" lon="-1.93193">
        <ele>105.199219</ele>
        <time>2016-08-16T10:27:25.000Z</time>
      </trkpt>
      <trkpt lat="49.69305" lon="-1.93196">
        <ele>105.699219</ele>
        <time>2016-08-16T10:27:29.000Z</time>
      </trkpt>
      <trkpt lat="49.69325" lon="-1.93201">
        <ele>107.296875</ele>
        <time>2016-08-16T10:27:37.000Z</time>
      </trkpt>
      <trkpt lat="49.69334" lon="-1.93207">
        <ele>108.796875</ele>
        <time>2016-08-16T10:27:41.000Z</time>
      </trkpt>
      <trkpt lat="49.69343" lon="-1.93215">
        <ele>110.398438</ele>
        <time>2016-08-16T10:27:46.000Z</time>
      </trkpt>
      <trkpt lat="49.69351" lon="-1.93225">
        <ele>111.699219</ele>
        <time>2016-08-16T10:27:51.000Z</time>
      </trkpt>
      <trkpt lat="49.69384" lon="-1.9326">
        <ele>112</ele>
        <time>2016-08-16T10:28:06.000Z</time>
      </trkpt>
      <trkpt lat="49.69395" lon="-1.9327">
        <ele>111.699219</ele>
        <time>2016-08-16T10:28:09.000Z</time>
      </trkpt>
      <trkpt lat="49.69406" lon="-1.93279">
        <ele>111.898438</ele>
        <time>2016-08-16T10:28:12.000Z</time>
      </trkpt>
      <trkpt lat="49.69414" lon="-1.93285">
        <ele>112.296875</ele>
        <time>2016-08-16T10:28:15.000Z</time>
      </trkpt>
      <trkpt lat="49.69423" lon="-1.93294">
        <ele>112.898438</ele>
        <time>2016-08-16T10:28:19.000Z</time>
      </trkpt>
      <trkpt lat="49.6943" lon="-1.93307">
        <ele>113.097656</ele>
        <time>2016-08-16T10:28:23.000Z</time>
      </trkpt>
      <trkpt lat="49.69435" lon="-1.93319">
        <ele>113.296875</ele>
        <time>2016-08-16T10:28:29.000Z</time>
      </trkpt>
      <trkpt lat="49.69444" lon="-1.93325">
        <ele>111.796875</ele>
        <time>2016-08-16T10:31:13.000Z</time>
      </trkpt>
      <trkpt lat="49.69453" lon="-1.93336">
        <ele>110.898438</ele>
        <time>2016-08-16T10:31:17.000Z</time>
      </trkpt>
      <trkpt lat="49.69484" lon="-1.93371">
        <ele>109.5</ele>
        <time>2016-08-16T10:31:26.000Z</time>
      </trkpt>
      <trkpt lat="49.69495" lon="-1.93377">
        <ele>108.5</ele>
        <time>2016-08-16T10:31:29.000Z</time>
      </trkpt>
      <trkpt lat="49.69505" lon="-1.93379">
        <ele>107.199219</ele>
        <time>2016-08-16T10:31:31.000Z</time>
      </trkpt>
      <trkpt lat="49.69531" lon="-1.93387">
        <ele>105</ele>
        <time>2016-08-16T10:31:35.000Z</time>
      </trkpt>
      <trkpt lat="49.69545" lon="-1.93393">
        <ele>104.597656</ele>
        <time>2016-08-16T10:31:37.000Z</time>
      </trkpt>
      <trkpt lat="49.69558" lon="-1.934">
        <ele>104.699219</ele>
        <time>2016-08-16T10:31:39.000Z</time>
      </trkpt>
      <trkpt lat="49.6957" lon="-1.93408">
        <ele>105</ele>
        <time>2016-08-16T10:31:41.000Z</time>
      </trkpt>
      <trkpt lat="49.69588" lon="-1.93423">
        <ele>105.5</ele>
        <time>2016-08-16T10:31:45.000Z</time>
      </trkpt>
      <trkpt lat="49.696" lon="-1.93434">
        <ele>105.796875</ele>
        <time>2016-08-16T10:31:48.000Z</time>
      </trkpt>
      <trkpt lat="49.69609" lon="-1.93446">
        <ele>106.296875</ele>
        <time>2016-08-16T10:31:51.000Z</time>
      </trkpt>
      <trkpt lat="49.69634" lon="-1.93476">
        <ele>106.398438</ele>
        <time>2016-08-16T10:32:00.000Z</time>
      </trkpt>
      <trkpt lat="49.69645" lon="-1.93484">
        <ele>106.097656</ele>
        <time>2016-08-16T10:32:03.000Z</time>
      </trkpt>
      <trkpt lat="49.69658" lon="-1.93489">
        <ele>105.699219</ele>
        <time>2016-08-16T10:32:06.000Z</time>
      </trkpt>
      <trkpt lat="49.69671" lon="-1.93489">
        <ele>105.296875</ele>
        <time>2016-08-16T10:32:09.000Z</time>
      </trkpt>
      <trkpt lat="49.69691" lon="-1.93491">
        <ele>104</ele>
        <time>2016-08-16T10:32:13.000Z</time>
      </trkpt>
      <trkpt lat="49.69702" lon="-1.93493">
        <ele>103.199219</ele>
        <time>2016-08-16T10:32:15.000Z</time>
      </trkpt>
      <trkpt lat="49.69714" lon="-1.93497">
        <ele>102.097656</ele>
        <time>2016-08-16T10:32:17.000Z</time>
      </trkpt>
      <trkpt lat="49.69727" lon="-1.93501">
        <ele>100.898438</ele>
        <time>2016-08-16T10:32:19.000Z</time>
      </trkpt>
      <trkpt lat="49.69738" lon="-1.93507">
        <ele>99.796875</ele>
        <time>2016-08-16T10:32:21.000Z</time>
      </trkpt>
      <trkpt lat="49.69747" lon="-1.93515">
        <ele>98.699219</ele>
        <time>2016-08-16T10:32:23.000Z</time>
      </trkpt>
      <trkpt lat="49.69754" lon="-1.93525">
        <ele>97.5</ele>
        <time>2016-08-16T10:32:25.000Z</time>
      </trkpt>
      <trkpt lat="49.69761" lon="-1.93536">
        <ele>96.5</ele>
        <time>2016-08-16T10:32:27.000Z</time>
      </trkpt>
      <trkpt lat="49.69766" lon="-1.93551">
        <ele>95.699219</ele>
        <time>2016-08-16T10:32:29.000Z</time>
      </trkpt>
      <trkpt lat="49.6977" lon="-1.9357">
        <ele>94.898438</ele>
        <time>2016-08-16T10:32:31.000Z</time>
      </trkpt>
      <trkpt lat="49.69782" lon="-1.9365">
        <ele>91.597656</ele>
        <time>2016-08-16T10:32:39.000Z</time>
      </trkpt>
      <trkpt lat="49.69792" lon="-1.93709">
        <ele>87.398438</ele>
        <time>2016-08-16T10:32:45.000Z</time>
      </trkpt>
      <trkpt lat="49.69796" lon="-1.9373">
        <ele>86.199219</ele>
        <time>2016-08-16T10:32:47.000Z</time>
      </trkpt>
      <trkpt lat="49.69812" lon="-1.93811">
        <ele>82</ele>
        <time>2016-08-16T10:32:55.000Z</time>
      </trkpt>
      <trkpt lat="49.69815" lon="-1.93831">
        <ele>81.699219</ele>
        <time>2016-08-16T10:32:57.000Z</time>
      </trkpt>
      <trkpt lat="49.6982" lon="-1.93849">
        <ele>81.699219</ele>
        <time>2016-08-16T10:32:59.000Z</time>
      </trkpt>
      <trkpt lat="49.69827" lon="-1.93864">
        <ele>81.898438</ele>
        <time>2016-08-16T10:33:01.000Z</time>
      </trkpt>
      <trkpt lat="49.69834" lon="-1.93877">
        <ele>82.296875</ele>
        <time>2016-08-16T10:33:03.000Z</time>
      </trkpt>
      <trkpt lat="49.69846" lon="-1.93901">
        <ele>83.699219</ele>
        <time>2016-08-16T10:33:11.000Z</time>
      </trkpt>
      <trkpt lat="49.69855" lon="-1.93908">
        <ele>83.898438</ele>
        <time>2016-08-16T10:33:16.000Z</time>
      </trkpt>
      <trkpt lat="49.69864" lon="-1.93911">
        <ele>83.398438</ele>
        <time>2016-08-16T10:33:20.000Z</time>
      </trkpt>
      <trkpt lat="49.69875" lon="-1.93912">
        <ele>83.097656</ele>
        <time>2016-08-16T10:33:24.000Z</time>
      </trkpt>
      <trkpt lat="49.69886" lon="-1.93909">
        <ele>82.699219</ele>
        <time>2016-08-16T10:33:27.000Z</time>
      </trkpt>
      <trkpt lat="49.69896" lon="-1.93902">
        <ele>82.398438</ele>
        <time>2016-08-16T10:33:30.000Z</time>
      </trkpt>
      <trkpt lat="49.69905" lon="-1.93891">
        <ele>82</ele>
        <time>2016-08-16T10:33:33.000Z</time>
      </trkpt>
      <trkpt lat="49.69914" lon="-1.93878">
        <ele>81.296875</ele>
        <time>2016-08-16T10:33:36.000Z</time>
      </trkpt>
      <trkpt lat="49.69921" lon="-1.9386">
        <ele>80.5</ele>
        <time>2016-08-16T10:33:39.000Z</time>
      </trkpt>
      <trkpt lat="49.6993" lon="-1.93831">
        <ele>78.796875</ele>
        <time>2016-08-16T10:33:43.000Z</time>
      </trkpt>
      <trkpt lat="49.69937" lon="-1.93815">
        <ele>77.597656</ele>
        <time>2016-08-16T10:33:45.000Z</time>
      </trkpt>
      <trkpt lat="49.69946" lon="-1.93801">
        <ele>76.296875</ele>
        <time>2016-08-16T10:33:47.000Z</time>
      </trkpt>
      <trkpt lat="49.69957" lon="-1.93786">
        <ele>75.398438</ele>
        <time>2016-08-16T10:33:49.000Z</time>
      </trkpt>
      <trkpt lat="49.69968" lon="-1.93772">
        <ele>74.898438</ele>
        <time>2016-08-16T10:33:51.000Z</time>
      </trkpt>
      <trkpt lat="49.6998" lon="-1.93761">
        <ele>74.796875</ele>
        <time>2016-08-16T10:33:53.000Z</time>
      </trkpt>
      <trkpt lat="49.69992" lon="-1.93754">
        <ele>74.898438</ele>
        <time>2016-08-16T10:33:55.000Z</time>
      </trkpt>
      <trkpt lat="49.70003" lon="-1.93752">
        <ele>74.898438</ele>
        <time>2016-08-16T10:33:57.000Z</time>
      </trkpt>
      <trkpt lat="49.70015" lon="-1.93752">
        <ele>75</ele>
        <time>2016-08-16T10:33:59.000Z</time>
      </trkpt>
      <trkpt lat="49.70065" lon="-1.93753">
        <ele>74.699219</ele>
        <time>2016-08-16T10:34:12.000Z</time>
      </trkpt>
      <trkpt lat="49.70056" lon="-1.93758">
        <ele>74.699219</ele>
        <time>2016-08-16T10:34:28.000Z</time>
      </trkpt>
      <trkpt lat="49.70046" lon="-1.93757">
        <ele>74.699219</ele>
        <time>2016-08-16T10:34:31.000Z</time>
      </trkpt>
      <trkpt lat="49.70002" lon="-1.93755">
        <ele>74.5</ele>
        <time>2016-08-16T10:34:41.000Z</time>
      </trkpt>
      <trkpt lat="49.69993" lon="-1.93758">
        <ele>74.5</ele>
        <time>2016-08-16T10:34:43.000Z</time>
      </trkpt>
      <trkpt lat="49.69984" lon="-1.93763">
        <ele>74.5</ele>
        <time>2016-08-16T10:34:45.000Z</time>
      </trkpt>
      <trkpt lat="49.69976" lon="-1.9377">
        <ele>74.699219</ele>
        <time>2016-08-16T10:34:47.000Z</time>
      </trkpt>
      <trkpt lat="49.69968" lon="-1.93778">
        <ele>75.296875</ele>
        <time>2016-08-16T10:34:49.000Z</time>
      </trkpt>
      <trkpt lat="49.69943" lon="-1.93809">
        <ele>78.199219</ele>
        <time>2016-08-16T10:34:58.000Z</time>
      </trkpt>
      <trkpt lat="49.69936" lon="-1.93823">
        <ele>79.097656</ele>
        <time>2016-08-16T10:35:02.000Z</time>
      </trkpt>
      <trkpt lat="49.69931" lon="-1.93835">
        <ele>79.898438</ele>
        <time>2016-08-16T10:35:05.000Z</time>
      </trkpt>
      <trkpt lat="49.69918" lon="-1.93873">
        <ele>82.597656</ele>
        <time>2016-08-16T10:35:14.000Z</time>
      </trkpt>
      <trkpt lat="49.69912" lon="-1.93884">
        <ele>83.796875</ele>
        <time>2016-08-16T10:35:17.000Z</time>
      </trkpt>
      <trkpt lat="49.69911" lon="-1.93898">
        <ele>84.699219</ele>
        <time>2016-08-16T10:35:21.000Z</time>
      </trkpt>
      <trkpt lat="49.6992" lon="-1.93895">
        <ele>85.898438</ele>
        <time>2016-08-16T10:35:25.000Z</time>
      </trkpt>
      <trkpt lat="49.6993" lon="-1.9389">
        <ele>86.5</ele>
        <time>2016-08-16T10:35:29.000Z</time>
      </trkpt>
      <trkpt lat="49.6994" lon="-1.9389">
        <ele>86.097656</ele>
        <time>2016-08-16T10:35:33.000Z</time>
      </trkpt>
      <trkpt lat="49.6995" lon="-1.93894">
        <ele>85.796875</ele>
        <time>2016-08-16T10:35:46.000Z</time>
      </trkpt>
      <trkpt lat="49.69991" lon="-1.93919">
        <ele>82.398438</ele>
        <time>2016-08-16T10:35:57.000Z</time>
      </trkpt>
      <trkpt lat="49.70002" lon="-1.93928">
        <ele>81.796875</ele>
        <time>2016-08-16T10:35:59.000Z</time>
      </trkpt>
      <trkpt lat="49.70013" lon="-1.93939">
        <ele>80.796875</ele>
        <time>2016-08-16T10:36:01.000Z</time>
      </trkpt>
      <trkpt lat="49.70024" lon="-1.93953">
        <ele>79.296875</ele>
        <time>2016-08-16T10:36:03.000Z</time>
      </trkpt>
      <trkpt lat="49.70038" lon="-1.93964">
        <ele>78.398438</ele>
        <time>2016-08-16T10:36:05.000Z</time>
      </trkpt>
      <trkpt lat="49.70055" lon="-1.93971">
        <ele>77.898438</ele>
        <time>2016-08-16T10:36:07.000Z</time>
      </trkpt>
      <trkpt lat="49.70158" lon="-1.94012">
        <ele>80.199219</ele>
        <time>2016-08-16T10:36:24.000Z</time>
      </trkpt>
      <trkpt lat="49.7017" lon="-1.94011">
        <ele>79.597656</ele>
        <time>2016-08-16T10:36:27.000Z</time>
      </trkpt>
      <trkpt lat="49.70181" lon="-1.94002">
        <ele>78.898438</ele>
        <time>2016-08-16T10:36:30.000Z</time>
      </trkpt>
      <trkpt lat="49.70189" lon="-1.93997">
        <ele>78</ele>
        <time>2016-08-16T10:36:32.000Z</time>
      </trkpt>
      <trkpt lat="49.702" lon="-1.93996">
        <ele>77.199219</ele>
        <time>2016-08-16T10:36:34.000Z</time>
      </trkpt>
      <trkpt lat="49.70212" lon="-1.94001">
        <ele>76.296875</ele>
        <time>2016-08-16T10:36:36.000Z</time>
      </trkpt>
      <trkpt lat="49.70275" lon="-1.94032">
        <ele>74.5</ele>
        <time>2016-08-16T10:36:46.000Z</time>
      </trkpt>
      <trkpt lat="49.70311" lon="-1.94054">
        <ele>73.597656</ele>
        <time>2016-08-16T10:36:52.000Z</time>
      </trkpt>
      <trkpt lat="49.70322" lon="-1.94059">
        <ele>73.597656</ele>
        <time>2016-08-16T10:36:54.000Z</time>
      </trkpt>
      <trkpt lat="49.70355" lon="-1.94067">
        <ele>73.5</ele>
        <time>2016-08-16T10:37:00.000Z</time>
      </trkpt>
      <trkpt lat="49.70365" lon="-1.94067">
        <ele>73.296875</ele>
        <time>2016-08-16T10:37:02.000Z</time>
      </trkpt>
      <trkpt lat="49.70376" lon="-1.94067">
        <ele>73</ele>
        <time>2016-08-16T10:37:04.000Z</time>
      </trkpt>
      <trkpt lat="49.70387" lon="-1.94063">
        <ele>72.597656</ele>
        <time>2016-08-16T10:37:06.000Z</time>
      </trkpt>
      <trkpt lat="49.70398" lon="-1.94058">
        <ele>72.296875</ele>
        <time>2016-08-16T10:37:08.000Z</time>
      </trkpt>
      <trkpt lat="49.70489" lon="-1.94009">
        <ele>68.398438</ele>
        <time>2016-08-16T10:37:24.000Z</time>
      </trkpt>
      <trkpt lat="49.70498" lon="-1.94003">
        <ele>67.699219</ele>
        <time>2016-08-16T10:37:26.000Z</time>
      </trkpt>
      <trkpt lat="49.70508" lon="-1.93996">
        <ele>67.296875</ele>
        <time>2016-08-16T10:37:28.000Z</time>
      </trkpt>
      <trkpt lat="49.70519" lon="-1.93992">
        <ele>67</ele>
        <time>2016-08-16T10:37:30.000Z</time>
      </trkpt>
      <trkpt lat="49.7053" lon="-1.93991">
        <ele>66.5</ele>
        <time>2016-08-16T10:37:32.000Z</time>
      </trkpt>
      <trkpt lat="49.70541" lon="-1.9399">
        <ele>65.796875</ele>
        <time>2016-08-16T10:37:34.000Z</time>
      </trkpt>
      <trkpt lat="49.70553" lon="-1.93991">
        <ele>65</ele>
        <time>2016-08-16T10:37:36.000Z</time>
      </trkpt>
      <trkpt lat="49.70565" lon="-1.93994">
        <ele>64</ele>
        <time>2016-08-16T10:37:38.000Z</time>
      </trkpt>
      <trkpt lat="49.70577" lon="-1.93999">
        <ele>63.5</ele>
        <time>2016-08-16T10:37:40.000Z</time>
      </trkpt>
      <trkpt lat="49.70586" lon="-1.93993">
        <ele>62.898438</ele>
        <time>2016-08-16T10:37:42.000Z</time>
      </trkpt>
      <trkpt lat="49.70592" lon="-1.93975">
        <ele>61.796875</ele>
        <time>2016-08-16T10:37:45.000Z</time>
      </trkpt>
      <trkpt lat="49.70596" lon="-1.93961">
        <ele>60</ele>
        <time>2016-08-16T10:37:47.000Z</time>
      </trkpt>
      <trkpt lat="49.70602" lon="-1.93946">
        <ele>57.796875</ele>
        <time>2016-08-16T10:37:49.000Z</time>
      </trkpt>
      <trkpt lat="49.70612" lon="-1.93933">
        <ele>55.398438</ele>
        <time>2016-08-16T10:37:51.000Z</time>
      </trkpt>
      <trkpt lat="49.70622" lon="-1.93925">
        <ele>53.398438</ele>
        <time>2016-08-16T10:37:53.000Z</time>
      </trkpt>
      <trkpt lat="49.70642" lon="-1.93914">
        <ele>49.796875</ele>
        <time>2016-08-16T10:37:57.000Z</time>
      </trkpt>
      <trkpt lat="49.70651" lon="-1.93909">
        <ele>47.796875</ele>
        <time>2016-08-16T10:38:01.000Z</time>
      </trkpt>
      <trkpt lat="49.70657" lon="-1.93922">
        <ele>46.796875</ele>
        <time>2016-08-16T10:38:42.000Z</time>
      </trkpt>
      <trkpt lat="49.70663" lon="-1.93935">
        <ele>45.597656</ele>
        <time>2016-08-16T10:38:46.000Z</time>
      </trkpt>
      <trkpt lat="49.70672" lon="-1.93951">
        <ele>44.597656</ele>
        <time>2016-08-16T10:38:49.000Z</time>
      </trkpt>
      <trkpt lat="49.70681" lon="-1.93963">
        <ele>43.398438</ele>
        <time>2016-08-16T10:38:51.000Z</time>
      </trkpt>
      <trkpt lat="49.70691" lon="-1.93979">
        <ele>41.796875</ele>
        <time>2016-08-16T10:38:53.000Z</time>
      </trkpt>
      <trkpt lat="49.707" lon="-1.93998">
        <ele>40.898438</ele>
        <time>2016-08-16T10:38:55.000Z</time>
      </trkpt>
      <trkpt lat="49.70708" lon="-1.94021">
        <ele>40.296875</ele>
        <time>2016-08-16T10:38:57.000Z</time>
      </trkpt>
      <trkpt lat="49.7071" lon="-1.94047">
        <ele>39.5</ele>
        <time>2016-08-16T10:38:59.000Z</time>
      </trkpt>
      <trkpt lat="49.70708" lon="-1.94074">
        <ele>38.898438</ele>
        <time>2016-08-16T10:39:01.000Z</time>
      </trkpt>
      <trkpt lat="49.70703" lon="-1.94117">
        <ele>36.898438</ele>
        <time>2016-08-16T10:39:04.000Z</time>
      </trkpt>
      <trkpt lat="49.70704" lon="-1.94144">
        <ele>36.5</ele>
        <time>2016-08-16T10:39:06.000Z</time>
      </trkpt>
      <trkpt lat="49.70712" lon="-1.94166">
        <ele>36.5</ele>
        <time>2016-08-16T10:39:08.000Z</time>
      </trkpt>
      <trkpt lat="49.70725" lon="-1.94179">
        <ele>36.398438</ele>
        <time>2016-08-16T10:39:10.000Z</time>
      </trkpt>
      <trkpt lat="49.7075" lon="-1.94202">
        <ele>35.796875</ele>
        <time>2016-08-16T10:39:14.000Z</time>
      </trkpt>
      <trkpt lat="49.7076" lon="-1.94217">
        <ele>35</ele>
        <time>2016-08-16T10:39:16.000Z</time>
      </trkpt>
      <trkpt lat="49.70771" lon="-1.94234">
        <ele>34</ele>
        <time>2016-08-16T10:39:18.000Z</time>
      </trkpt>
      <trkpt lat="49.70807" lon="-1.94289">
        <ele>29.597656</ele>
        <time>2016-08-16T10:39:24.000Z</time>
      </trkpt>
      <trkpt lat="49.70819" lon="-1.9431">
        <ele>28.097656</ele>
        <time>2016-08-16T10:39:26.000Z</time>
      </trkpt>
      <trkpt lat="49.70828" lon="-1.94332">
        <ele>26.796875</ele>
        <time>2016-08-16T10:39:28.000Z</time>
      </trkpt>
      <trkpt lat="49.70836" lon="-1.94351">
        <ele>25.699219</ele>
        <time>2016-08-16T10:39:30.000Z</time>
      </trkpt>
      <trkpt lat="49.70846" lon="-1.94367">
        <ele>24.699219</ele>
        <time>2016-08-16T10:39:32.000Z</time>
      </trkpt>
      <trkpt lat="49.70857" lon="-1.94381">
        <ele>24</ele>
        <time>2016-08-16T10:39:34.000Z</time>
      </trkpt>
      <trkpt lat="49.70868" lon="-1.94393">
        <ele>24</ele>
        <time>2016-08-16T10:39:36.000Z</time>
      </trkpt>
      <trkpt lat="49.70889" lon="-1.9441">
        <ele>24.097656</ele>
        <time>2016-08-16T10:39:40.000Z</time>
      </trkpt>
      <trkpt lat="49.709" lon="-1.94411">
        <ele>23.699219</ele>
        <time>2016-08-16T10:39:43.000Z</time>
      </trkpt>
      <trkpt lat="49.70911" lon="-1.94408">
        <ele>23.097656</ele>
        <time>2016-08-16T10:39:47.000Z</time>
      </trkpt>
      <trkpt lat="49.70921" lon="-1.94398">
        <ele>23.097656</ele>
        <time>2016-08-16T10:39:51.000Z</time>
      </trkpt>
      <trkpt lat="49.70924" lon="-1.94384">
        <ele>23.898438</ele>
        <time>2016-08-16T10:39:54.000Z</time>
      </trkpt>
      <trkpt lat="49.70919" lon="-1.94368">
        <ele>24.796875</ele>
        <time>2016-08-16T10:39:58.000Z</time>
      </trkpt>
      <trkpt lat="49.70914" lon="-1.94353">
        <ele>25.796875</ele>
        <time>2016-08-16T10:40:02.000Z</time>
      </trkpt>
      <trkpt lat="49.7091" lon="-1.94337">
        <ele>25.398438</ele>
        <time>2016-08-16T10:40:06.000Z</time>
      </trkpt>
      <trkpt lat="49.70914" lon="-1.94324">
        <ele>24.699219</ele>
        <time>2016-08-16T10:40:09.000Z</time>
      </trkpt>
      <trkpt lat="49.70924" lon="-1.94312">
        <ele>24.199219</ele>
        <time>2016-08-16T10:40:12.000Z</time>
      </trkpt>
      <trkpt lat="49.70931" lon="-1.94304">
        <ele>23.898438</ele>
        <time>2016-08-16T10:40:14.000Z</time>
      </trkpt>
      <trkpt lat="49.70945" lon="-1.94283">
        <ele>23.296875</ele>
        <time>2016-08-16T10:40:18.000Z</time>
      </trkpt>
      <trkpt lat="49.70953" lon="-1.94275">
        <ele>23.199219</ele>
        <time>2016-08-16T10:40:20.000Z</time>
      </trkpt>
      <trkpt lat="49.70977" lon="-1.9425">
        <ele>23.097656</ele>
        <time>2016-08-16T10:40:26.000Z</time>
      </trkpt>
      <trkpt lat="49.70993" lon="-1.94235">
        <ele>23.398438</ele>
        <time>2016-08-16T10:40:30.000Z</time>
      </trkpt>
      <trkpt lat="49.71004" lon="-1.94223">
        <ele>24</ele>
        <time>2016-08-16T10:40:33.000Z</time>
      </trkpt>
      <trkpt lat="49.7101" lon="-1.94209">
        <ele>24.5</ele>
        <time>2016-08-16T10:40:36.000Z</time>
      </trkpt>
      <trkpt lat="49.71013" lon="-1.94194">
        <ele>25.097656</ele>
        <time>2016-08-16T10:40:39.000Z</time>
      </trkpt>
      <trkpt lat="49.71017" lon="-1.94182">
        <ele>25.898438</ele>
        <time>2016-08-16T10:40:42.000Z</time>
      </trkpt>
      <trkpt lat="49.71024" lon="-1.94168">
        <ele>26.699219</ele>
        <time>2016-08-16T10:40:46.000Z</time>
      </trkpt>
      <trkpt lat="49.71039" lon="-1.94144">
        <ele>28</ele>
        <time>2016-08-16T10:40:54.000Z</time>
      </trkpt>
      <trkpt lat="49.71047" lon="-1.94135">
        <ele>28.898438</ele>
        <time>2016-08-16T10:40:59.000Z</time>
      </trkpt>
      <trkpt lat="49.7108" lon="-1.94091">
        <ele>32</ele>
        <time>2016-08-16T10:41:14.000Z</time>
      </trkpt>
      <trkpt lat="49.71103" lon="-1.94056">
        <ele>34.597656</ele>
        <time>2016-08-16T10:41:26.000Z</time>
      </trkpt>
      <trkpt lat="49.71118" lon="-1.94032">
        <ele>36.097656</ele>
        <time>2016-08-16T10:41:34.000Z</time>
      </trkpt>
      <trkpt lat="49.71127" lon="-1.94022">
        <ele>36.796875</ele>
        <time>2016-08-16T10:41:38.000Z</time>
      </trkpt>
      <trkpt lat="49.71178" lon="-1.93962">
        <ele>41.199219</ele>
        <time>2016-08-16T10:42:02.000Z</time>
      </trkpt>
      <trkpt lat="49.71185" lon="-1.93951">
        <ele>41.898438</ele>
        <time>2016-08-16T10:42:06.000Z</time>
      </trkpt>
      <trkpt lat="49.71188" lon="-1.93936">
        <ele>42.597656</ele>
        <time>2016-08-16T10:42:10.000Z</time>
      </trkpt>
      <trkpt lat="49.71187" lon="-1.93922">
        <ele>43.296875</ele>
        <time>2016-08-16T10:42:14.000Z</time>
      </trkpt>
      <trkpt lat="49.71184" lon="-1.93908">
        <ele>44.097656</ele>
        <time>2016-08-16T10:42:18.000Z</time>
      </trkpt>
      <trkpt lat="49.7118" lon="-1.93894">
        <ele>45</ele>
        <time>2016-08-16T10:42:22.000Z</time>
      </trkpt>
      <trkpt lat="49.71171" lon="-1.9387">
        <ele>46.699219</ele>
        <time>2016-08-16T10:42:30.000Z</time>
      </trkpt>
      <trkpt lat="49.71168" lon="-1.93857">
        <ele>47.398438</ele>
        <time>2016-08-16T10:42:34.000Z</time>
      </trkpt>
      <trkpt lat="49.71167" lon="-1.93842">
        <ele>48.296875</ele>
        <time>2016-08-16T10:42:38.000Z</time>
      </trkpt>
      <trkpt lat="49.71168" lon="-1.93828">
        <ele>48.699219</ele>
        <time>2016-08-16T10:42:42.000Z</time>
      </trkpt>
      <trkpt lat="49.71174" lon="-1.93785">
        <ele>50.699219</ele>
        <time>2016-08-16T10:42:54.000Z</time>
      </trkpt>
      <trkpt lat="49.71174" lon="-1.93771">
        <ele>51.597656</ele>
        <time>2016-08-16T10:42:58.000Z</time>
      </trkpt>
      <trkpt lat="49.71174" lon="-1.93756">
        <ele>52.5</ele>
        <time>2016-08-16T10:43:02.000Z</time>
      </trkpt>
      <trkpt lat="49.71162" lon="-1.93429">
        <ele>59.398438</ele>
        <time>2016-08-16T10:44:20.000Z</time>
      </trkpt>
      <trkpt lat="49.71154" lon="-1.93338">
        <ele>58.898438</ele>
        <time>2016-08-16T10:44:40.000Z</time>
      </trkpt>
      <trkpt lat="49.71156" lon="-1.93324">
        <ele>58.796875</ele>
        <time>2016-08-16T10:44:43.000Z</time>
      </trkpt>
      <trkpt lat="49.71156" lon="-1.93306">
        <ele>59.097656</ele>
        <time>2016-08-16T10:44:47.000Z</time>
      </trkpt>
      <trkpt lat="49.71159" lon="-1.93273">
        <ele>60.296875</ele>
        <time>2016-08-16T10:44:55.000Z</time>
      </trkpt>
      <trkpt lat="49.71161" lon="-1.93259">
        <ele>60.796875</ele>
        <time>2016-08-16T10:44:59.000Z</time>
      </trkpt>
      <trkpt lat="49.71163" lon="-1.93245">
        <ele>61.398438</ele>
        <time>2016-08-16T10:45:03.000Z</time>
      </trkpt>
      <trkpt lat="49.71169" lon="-1.93217">
        <ele>58.699219</ele>
        <time>2016-08-16T10:45:13.000Z</time>
      </trkpt>
      <trkpt lat="49.71173" lon="-1.93202">
        <ele>58.097656</ele>
        <time>2016-08-16T10:45:17.000Z</time>
      </trkpt>
      <trkpt lat="49.71175" lon="-1.93187">
        <ele>62.097656</ele>
        <time>2016-08-16T10:45:21.000Z</time>
      </trkpt>
      <trkpt lat="49.7118" lon="-1.93173">
        <ele>61.597656</ele>
        <time>2016-08-16T10:45:55.000Z</time>
      </trkpt>
      <trkpt lat="49.71189" lon="-1.93159">
        <ele>61.097656</ele>
        <time>2016-08-16T10:45:59.000Z</time>
      </trkpt>
      <trkpt lat="49.71198" lon="-1.9315">
        <ele>59.699219</ele>
        <time>2016-08-16T10:46:02.000Z</time>
      </trkpt>
      <trkpt lat="49.71204" lon="-1.93134">
        <ele>58.199219</ele>
        <time>2016-08-16T10:46:06.000Z</time>
      </trkpt>
      <trkpt lat="49.712" lon="-1.93116">
        <ele>57</ele>
        <time>2016-08-16T10:46:09.000Z</time>
      </trkpt>
      <trkpt lat="49.71193" lon="-1.93086">
        <ele>55.296875</ele>
        <time>2016-08-16T10:46:13.000Z</time>
      </trkpt>
      <trkpt lat="49.71191" lon="-1.93068">
        <ele>54.898438</ele>
        <time>2016-08-16T10:46:15.000Z</time>
      </trkpt>
      <trkpt lat="49.71191" lon="-1.93049">
        <ele>54</ele>
        <time>2016-08-16T10:46:17.000Z</time>
      </trkpt>
      <trkpt lat="49.71194" lon="-1.93031">
        <ele>53.199219</ele>
        <time>2016-08-16T10:46:19.000Z</time>
      </trkpt>
      <trkpt lat="49.712" lon="-1.92999">
        <ele>51.5</ele>
        <time>2016-08-16T10:46:24.000Z</time>
      </trkpt>
      <trkpt lat="49.71204" lon="-1.92985">
        <ele>51</ele>
        <time>2016-08-16T10:46:28.000Z</time>
      </trkpt>
      <trkpt lat="49.71212" lon="-1.92952">
        <ele>51.097656</ele>
        <time>2016-08-16T10:46:34.000Z</time>
      </trkpt>
      <trkpt lat="49.71215" lon="-1.92936">
        <ele>52</ele>
        <time>2016-08-16T10:46:37.000Z</time>
      </trkpt>
      <trkpt lat="49.71213" lon="-1.92919">
        <ele>53.097656</ele>
        <time>2016-08-16T10:46:41.000Z</time>
      </trkpt>
      <trkpt lat="49.71209" lon="-1.92904">
        <ele>53.898438</ele>
        <time>2016-08-16T10:46:45.000Z</time>
      </trkpt>
      <trkpt lat="49.71199" lon="-1.92871">
        <ele>55.097656</ele>
        <time>2016-08-16T10:46:53.000Z</time>
      </trkpt>
      <trkpt lat="49.71156" lon="-1.92729">
        <ele>58.296875</ele>
        <time>2016-08-16T10:47:26.000Z</time>
      </trkpt>
      <trkpt lat="49.71153" lon="-1.92714">
        <ele>58.199219</ele>
        <time>2016-08-16T10:47:29.000Z</time>
      </trkpt>
      <trkpt lat="49.71138" lon="-1.92613">
        <ele>57.898438</ele>
        <time>2016-08-16T10:47:47.000Z</time>
      </trkpt>
      <trkpt lat="49.71119" lon="-1.92426">
        <ele>57.597656</ele>
        <time>2016-08-16T10:48:23.000Z</time>
      </trkpt>
      <trkpt lat="49.71118" lon="-1.9241">
        <ele>57.597656</ele>
        <time>2016-08-16T10:48:26.000Z</time>
      </trkpt>
      <trkpt lat="49.71118" lon="-1.92393">
        <ele>56.898438</ele>
        <time>2016-08-16T10:48:29.000Z</time>
      </trkpt>
      <trkpt lat="49.7112" lon="-1.92356">
        <ele>54.597656</ele>
        <time>2016-08-16T10:48:34.000Z</time>
      </trkpt>
      <trkpt lat="49.71116" lon="-1.92338">
        <ele>53.398438</ele>
        <time>2016-08-16T10:48:36.000Z</time>
      </trkpt>
      <trkpt lat="49.71109" lon="-1.92318">
        <ele>52.796875</ele>
        <time>2016-08-16T10:48:38.000Z</time>
      </trkpt>
      <trkpt lat="49.71101" lon="-1.92298">
        <ele>52.796875</ele>
        <time>2016-08-16T10:48:40.000Z</time>
      </trkpt>
      <trkpt lat="49.71099" lon="-1.92278">
        <ele>52.597656</ele>
        <time>2016-08-16T10:48:42.000Z</time>
      </trkpt>
      <trkpt lat="49.711" lon="-1.9226">
        <ele>53</ele>
        <time>2016-08-16T10:48:44.000Z</time>
      </trkpt>
      <trkpt lat="49.71107" lon="-1.92244">
        <ele>53.898438</ele>
        <time>2016-08-16T10:48:47.000Z</time>
      </trkpt>
      <trkpt lat="49.71113" lon="-1.92229">
        <ele>54.097656</ele>
        <time>2016-08-16T10:48:51.000Z</time>
      </trkpt>
      <trkpt lat="49.71118" lon="-1.92214">
        <ele>54.5</ele>
        <time>2016-08-16T10:48:55.000Z</time>
      </trkpt>
      <trkpt lat="49.71118" lon="-1.922">
        <ele>55.097656</ele>
        <time>2016-08-16T10:48:58.000Z</time>
      </trkpt>
      <trkpt lat="49.71113" lon="-1.92187">
        <ele>55.5</ele>
        <time>2016-08-16T10:49:03.000Z</time>
      </trkpt>
      <trkpt lat="49.71105" lon="-1.92175">
        <ele>56</ele>
        <time>2016-08-16T10:49:08.000Z</time>
      </trkpt>
      <trkpt lat="49.71097" lon="-1.92165">
        <ele>60.296875</ele>
        <time>2016-08-16T10:49:17.000Z</time>
      </trkpt>
      <trkpt lat="49.71107" lon="-1.92168">
        <ele>59.898438</ele>
        <time>2016-08-16T10:50:08.000Z</time>
      </trkpt>
      <trkpt lat="49.71117" lon="-1.92179">
        <ele>59.5</ele>
        <time>2016-08-16T10:50:12.000Z</time>
      </trkpt>
      <trkpt lat="49.71126" lon="-1.92187">
        <ele>58.5</ele>
        <time>2016-08-16T10:50:16.000Z</time>
      </trkpt>
      <trkpt lat="49.71136" lon="-1.92189">
        <ele>57.5</ele>
        <time>2016-08-16T10:50:19.000Z</time>
      </trkpt>
      <trkpt lat="49.71156" lon="-1.92192">
        <ele>56.398438</ele>
        <time>2016-08-16T10:50:23.000Z</time>
      </trkpt>
      <trkpt lat="49.71168" lon="-1.92196">
        <ele>55.398438</ele>
        <time>2016-08-16T10:50:25.000Z</time>
      </trkpt>
      <trkpt lat="49.7118" lon="-1.92202">
        <ele>54.398438</ele>
        <time>2016-08-16T10:50:27.000Z</time>
      </trkpt>
      <trkpt lat="49.71195" lon="-1.92205">
        <ele>53</ele>
        <time>2016-08-16T10:50:29.000Z</time>
      </trkpt>
      <trkpt lat="49.71212" lon="-1.92207">
        <ele>52.398438</ele>
        <time>2016-08-16T10:50:31.000Z</time>
      </trkpt>
      <trkpt lat="49.71221" lon="-1.92206">
        <ele>51.796875</ele>
        <time>2016-08-16T10:50:32.000Z</time>
      </trkpt>
      <trkpt lat="49.7123" lon="-1.92205">
        <ele>50.699219</ele>
        <time>2016-08-16T10:50:33.000Z</time>
      </trkpt>
      <trkpt lat="49.71292" lon="-1.92196">
        <ele>43.898438</ele>
        <time>2016-08-16T10:50:39.000Z</time>
      </trkpt>
      <trkpt lat="49.71313" lon="-1.92195">
        <ele>42.097656</ele>
        <time>2016-08-16T10:50:41.000Z</time>
      </trkpt>
      <trkpt lat="49.71324" lon="-1.92196">
        <ele>41.199219</ele>
        <time>2016-08-16T10:50:42.000Z</time>
      </trkpt>
      <trkpt lat="49.71407" lon="-1.92205">
        <ele>35.398438</ele>
        <time>2016-08-16T10:50:51.000Z</time>
      </trkpt>
      <trkpt lat="49.71421" lon="-1.92203">
        <ele>34.5</ele>
        <time>2016-08-16T10:50:53.000Z</time>
      </trkpt>
      <trkpt lat="49.71433" lon="-1.922">
        <ele>33.5</ele>
        <time>2016-08-16T10:50:55.000Z</time>
      </trkpt>
      <trkpt lat="49.71445" lon="-1.92199">
        <ele>32.5</ele>
        <time>2016-08-16T10:50:57.000Z</time>
      </trkpt>
      <trkpt lat="49.71457" lon="-1.92201">
        <ele>31.597656</ele>
        <time>2016-08-16T10:50:59.000Z</time>
      </trkpt>
      <trkpt lat="49.71468" lon="-1.92202">
        <ele>29.898438</ele>
        <time>2016-08-16T10:51:01.000Z</time>
      </trkpt>
      <trkpt lat="49.7148" lon="-1.92196">
        <ele>29.5</ele>
        <time>2016-08-16T10:51:04.000Z</time>
      </trkpt>
      <trkpt lat="49.71489" lon="-1.92188">
        <ele>29.398438</ele>
        <time>2016-08-16T10:51:06.000Z</time>
      </trkpt>
      <trkpt lat="49.71507" lon="-1.92175">
        <ele>29.296875</ele>
        <time>2016-08-16T10:51:10.000Z</time>
      </trkpt>
      <trkpt lat="49.71517" lon="-1.9217">
        <ele>29.296875</ele>
        <time>2016-08-16T10:51:12.000Z</time>
      </trkpt>
      <trkpt lat="49.71669" lon="-1.92093">
        <ele>28.699219</ele>
        <time>2016-08-16T10:51:42.000Z</time>
      </trkpt>
      <trkpt lat="49.71679" lon="-1.92089">
        <ele>28.699219</ele>
        <time>2016-08-16T10:51:44.000Z</time>
      </trkpt>
      <trkpt lat="49.71689" lon="-1.92086">
        <ele>28.796875</ele>
        <time>2016-08-16T10:51:46.000Z</time>
      </trkpt>
      <trkpt lat="49.717" lon="-1.92081">
        <ele>28.796875</ele>
        <time>2016-08-16T10:51:48.000Z</time>
      </trkpt>
      <trkpt lat="49.7171" lon="-1.92075">
        <ele>28.796875</ele>
        <time>2016-08-16T10:51:50.000Z</time>
      </trkpt>
      <trkpt lat="49.71752" lon="-1.92047">
        <ele>28.597656</ele>
        <time>2016-08-16T10:51:58.000Z</time>
      </trkpt>
      <trkpt lat="49.71763" lon="-1.92043">
        <ele>28.796875</ele>
        <time>2016-08-16T10:52:00.000Z</time>
      </trkpt>
      <trkpt lat="49.71774" lon="-1.92041">
        <ele>28.898438</ele>
        <time>2016-08-16T10:52:02.000Z</time>
      </trkpt>
      <trkpt lat="49.71871" lon="-1.92017">
        <ele>26.699219</ele>
        <time>2016-08-16T10:52:18.000Z</time>
      </trkpt>
      <trkpt lat="49.71883" lon="-1.92017">
        <ele>26.398438</ele>
        <time>2016-08-16T10:52:20.000Z</time>
      </trkpt>
      <trkpt lat="49.7192" lon="-1.92019">
        <ele>25.699219</ele>
        <time>2016-08-16T10:52:26.000Z</time>
      </trkpt>
      <trkpt lat="49.71944" lon="-1.92022">
        <ele>25.296875</ele>
        <time>2016-08-16T10:52:30.000Z</time>
      </trkpt>
      <trkpt lat="49.71956" lon="-1.92025">
        <ele>25</ele>
        <time>2016-08-16T10:52:32.000Z</time>
      </trkpt>
      <trkpt lat="49.71968" lon="-1.9203">
        <ele>24.597656</ele>
        <time>2016-08-16T10:52:34.000Z</time>
      </trkpt>
      <trkpt lat="49.7198" lon="-1.92037">
        <ele>24.296875</ele>
        <time>2016-08-16T10:52:36.000Z</time>
      </trkpt>
      <trkpt lat="49.71992" lon="-1.92046">
        <ele>23.796875</ele>
        <time>2016-08-16T10:52:38.000Z</time>
      </trkpt>
      <trkpt lat="49.72039" lon="-1.92087">
        <ele>22</ele>
        <time>2016-08-16T10:52:46.000Z</time>
      </trkpt>
      <trkpt lat="49.72051" lon="-1.92098">
        <ele>21.5</ele>
        <time>2016-08-16T10:52:48.000Z</time>
      </trkpt>
      <trkpt lat="49.72062" lon="-1.92111">
        <ele>21.199219</ele>
        <time>2016-08-16T10:52:50.000Z</time>
      </trkpt>
      <trkpt lat="49.72072" lon="-1.92124">
        <ele>21</ele>
        <time>2016-08-16T10:52:52.000Z</time>
      </trkpt>
      <trkpt lat="49.72083" lon="-1.92134">
        <ele>20.898438</ele>
        <time>2016-08-16T10:52:54.000Z</time>
      </trkpt>
      <trkpt lat="49.72094" lon="-1.9214">
        <ele>20.898438</ele>
        <time>2016-08-16T10:52:56.000Z</time>
      </trkpt>
      <trkpt lat="49.72135" lon="-1.92163">
        <ele>21</ele>
        <time>2016-08-16T10:53:04.000Z</time>
      </trkpt>
      <trkpt lat="49.72144" lon="-1.92169">
        <ele>21</ele>
        <time>2016-08-16T10:53:06.000Z</time>
      </trkpt>
      <trkpt lat="49.72152" lon="-1.92176">
        <ele>21.097656</ele>
        <time>2016-08-16T10:53:08.000Z</time>
      </trkpt>
      <trkpt lat="49.72176" lon="-1.92199">
        <ele>20.699219</ele>
        <time>2016-08-16T10:53:14.000Z</time>
      </trkpt>
      <trkpt lat="49.72225" lon="-1.92257">
        <ele>20</ele>
        <time>2016-08-16T10:53:26.000Z</time>
      </trkpt>
      <trkpt lat="49.72235" lon="-1.92263">
        <ele>19.898438</ele>
        <time>2016-08-16T10:53:28.000Z</time>
      </trkpt>
      <trkpt lat="49.72274" lon="-1.92279">
        <ele>19.796875</ele>
        <time>2016-08-16T10:53:36.000Z</time>
      </trkpt>
      <trkpt lat="49.72282" lon="-1.92286">
        <ele>19.796875</ele>
        <time>2016-08-16T10:53:38.000Z</time>
      </trkpt>
      <trkpt lat="49.72336" lon="-1.92328">
        <ele>19.597656</ele>
        <time>2016-08-16T10:53:51.000Z</time>
      </trkpt>
      <trkpt lat="49.72348" lon="-1.92335">
        <ele>19.699219</ele>
        <time>2016-08-16T10:53:54.000Z</time>
      </trkpt>
      <trkpt lat="49.7236" lon="-1.92341">
        <ele>19.699219</ele>
        <time>2016-08-16T10:53:57.000Z</time>
      </trkpt>
      <trkpt lat="49.72385" lon="-1.92351">
        <ele>19.5</ele>
        <time>2016-08-16T10:54:03.000Z</time>
      </trkpt>
      <trkpt lat="49.72397" lon="-1.92354">
        <ele>19.199219</ele>
        <time>2016-08-16T10:54:06.000Z</time>
      </trkpt>
      <trkpt lat="49.7241" lon="-1.92356">
        <ele>19.097656</ele>
        <time>2016-08-16T10:54:09.000Z</time>
      </trkpt>
      <trkpt lat="49.72423" lon="-1.92353">
        <ele>19.097656</ele>
        <time>2016-08-16T10:54:12.000Z</time>
      </trkpt>
      <trkpt lat="49.72436" lon="-1.92347">
        <ele>19.097656</ele>
        <time>2016-08-16T10:54:15.000Z</time>
      </trkpt>
      <trkpt lat="49.7246" lon="-1.92336">
        <ele>19.296875</ele>
        <time>2016-08-16T10:54:21.000Z</time>
      </trkpt>
      <trkpt lat="49.72471" lon="-1.92334">
        <ele>19.296875</ele>
        <time>2016-08-16T10:54:24.000Z</time>
      </trkpt>
      <trkpt lat="49.72483" lon="-1.92333">
        <ele>18.898438</ele>
        <time>2016-08-16T10:54:27.000Z</time>
      </trkpt>
      <trkpt lat="49.72628" lon="-1.92473">
        <ele>3</ele>
        <time>2016-08-16T10:56:28.000Z</time>
      </trkpt>
      <trkpt lat="49.72633" lon="-1.92476">
        <ele>9.183594</ele>
        <time>2016-08-16T10:58:52.000Z</time>
      </trkpt>
      <trkpt lat="49.72633" lon="-1.92477">
        <ele>4.199219</ele>
        <time>2016-08-16T11:25:02.000Z</time>
      </trkpt>
      <trkpt lat="49.72633" lon="-1.92477">
        <ele>6.167969</ele>
        <time>2016-08-16T11:25:56.000Z</time>
      </trkpt>
      <trkpt lat="49.72651" lon="-1.92469">
        <ele>-10.125</ele>
        <time>2016-08-16T11:33:02.000Z</time>
      </trkpt>
      <trkpt lat="49.72643" lon="-1.92475">
        <ele>6.398438</ele>
        <time>2016-08-16T11:33:17.000Z</time>
      </trkpt>
      <trkpt lat="49.72634" lon="-1.9247">
        <ele>7.097656</ele>
        <time>2016-08-16T11:33:50.000Z</time>
      </trkpt>
      <trkpt lat="49.72628" lon="-1.92459">
        <ele>7.597656</ele>
        <time>2016-08-16T11:34:11.000Z</time>
      </trkpt>
      <trkpt lat="49.72624" lon="-1.92447">
        <ele>8.398438</ele>
        <time>2016-08-16T11:34:17.000Z</time>
      </trkpt>
      <trkpt lat="49.7262" lon="-1.92434">
        <ele>8.597656</ele>
        <time>2016-08-16T11:34:24.000Z</time>
      </trkpt>
      <trkpt lat="49.72612" lon="-1.92424">
        <ele>9</ele>
        <time>2016-08-16T11:34:28.000Z</time>
      </trkpt>
      <trkpt lat="49.72596" lon="-1.92404">
        <ele>11.5</ele>
        <time>2016-08-16T11:34:35.000Z</time>
      </trkpt>
      <trkpt lat="49.72587" lon="-1.92395">
        <ele>12.199219</ele>
        <time>2016-08-16T11:36:12.000Z</time>
      </trkpt>
      <trkpt lat="49.72579" lon="-1.92383">
        <ele>13.097656</ele>
        <time>2016-08-16T11:36:21.000Z</time>
      </trkpt>
      <trkpt lat="49.72563" lon="-1.92363">
        <ele>15.398438</ele>
        <time>2016-08-16T11:36:34.000Z</time>
      </trkpt>
      <trkpt lat="49.72554" lon="-1.92356">
        <ele>16.597656</ele>
        <time>2016-08-16T11:36:38.000Z</time>
      </trkpt>
      <trkpt lat="49.72545" lon="-1.92351">
        <ele>17.398438</ele>
        <time>2016-08-16T11:36:43.000Z</time>
      </trkpt>
      <trkpt lat="49.72536" lon="-1.92346">
        <ele>18.296875</ele>
        <time>2016-08-16T11:36:47.000Z</time>
      </trkpt>
      <trkpt lat="49.72526" lon="-1.92342">
        <ele>18.898438</ele>
        <time>2016-08-16T11:36:51.000Z</time>
      </trkpt>
      <trkpt lat="49.72515" lon="-1.92339">
        <ele>19.5</ele>
        <time>2016-08-16T11:36:55.000Z</time>
      </trkpt>
      <trkpt lat="49.72505" lon="-1.92337">
        <ele>20.296875</ele>
        <time>2016-08-16T11:36:59.000Z</time>
      </trkpt>
      <trkpt lat="49.72482" lon="-1.92336">
        <ele>20.898438</ele>
        <time>2016-08-16T11:37:07.000Z</time>
      </trkpt>
      <trkpt lat="49.72473" lon="-1.92337">
        <ele>20.699219</ele>
        <time>2016-08-16T11:37:10.000Z</time>
      </trkpt>
      <trkpt lat="49.72462" lon="-1.92339">
        <ele>20.796875</ele>
        <time>2016-08-16T11:37:13.000Z</time>
      </trkpt>
      <trkpt lat="49.72451" lon="-1.92342">
        <ele>20.796875</ele>
        <time>2016-08-16T11:37:16.000Z</time>
      </trkpt>
      <trkpt lat="49.7244" lon="-1.92348">
        <ele>20.898438</ele>
        <time>2016-08-16T11:37:19.000Z</time>
      </trkpt>
      <trkpt lat="49.72429" lon="-1.92354">
        <ele>21</ele>
        <time>2016-08-16T11:37:22.000Z</time>
      </trkpt>
      <trkpt lat="49.72419" lon="-1.92358">
        <ele>21.199219</ele>
        <time>2016-08-16T11:37:25.000Z</time>
      </trkpt>
      <trkpt lat="49.72408" lon="-1.92359">
        <ele>21.296875</ele>
        <time>2016-08-16T11:37:29.000Z</time>
      </trkpt>
      <trkpt lat="49.72397" lon="-1.92358">
        <ele>21.296875</ele>
        <time>2016-08-16T11:37:32.000Z</time>
      </trkpt>
      <trkpt lat="49.72386" lon="-1.92355">
        <ele>21.398438</ele>
        <time>2016-08-16T11:37:35.000Z</time>
      </trkpt>
      <trkpt lat="49.72354" lon="-1.92344">
        <ele>21.097656</ele>
        <time>2016-08-16T11:37:44.000Z</time>
      </trkpt>
      <trkpt lat="49.72344" lon="-1.92338">
        <ele>21</ele>
        <time>2016-08-16T11:38:23.000Z</time>
      </trkpt>
      <trkpt lat="49.72313" lon="-1.92316">
        <ele>20.898438</ele>
        <time>2016-08-16T11:38:33.000Z</time>
      </trkpt>
      <trkpt lat="49.72269" lon="-1.92281">
        <ele>20.699219</ele>
        <time>2016-08-16T11:38:45.000Z</time>
      </trkpt>
      <trkpt lat="49.72257" lon="-1.92274">
        <ele>20.699219</ele>
        <time>2016-08-16T11:38:48.000Z</time>
      </trkpt>
      <trkpt lat="49.72245" lon="-1.9227">
        <ele>20.699219</ele>
        <time>2016-08-16T11:38:51.000Z</time>
      </trkpt>
      <trkpt lat="49.72233" lon="-1.92266">
        <ele>20.699219</ele>
        <time>2016-08-16T11:38:54.000Z</time>
      </trkpt>
      <trkpt lat="49.72222" lon="-1.92258">
        <ele>20.796875</ele>
        <time>2016-08-16T11:38:57.000Z</time>
      </trkpt>
      <trkpt lat="49.72212" lon="-1.92248">
        <ele>20.898438</ele>
        <time>2016-08-16T11:39:00.000Z</time>
      </trkpt>
      <trkpt lat="49.72203" lon="-1.92237">
        <ele>21</ele>
        <time>2016-08-16T11:39:03.000Z</time>
      </trkpt>
      <trkpt lat="49.72158" lon="-1.92188">
        <ele>21.597656</ele>
        <time>2016-08-16T11:39:18.000Z</time>
      </trkpt>
      <trkpt lat="49.72137" lon="-1.9217">
        <ele>21.097656</ele>
        <time>2016-08-16T11:39:24.000Z</time>
      </trkpt>
      <trkpt lat="49.72125" lon="-1.92162">
        <ele>20.898438</ele>
        <time>2016-08-16T11:39:27.000Z</time>
      </trkpt>
      <trkpt lat="49.72101" lon="-1.92148">
        <ele>20.597656</ele>
        <time>2016-08-16T11:39:33.000Z</time>
      </trkpt>
      <trkpt lat="49.72077" lon="-1.92135">
        <ele>20.597656</ele>
        <time>2016-08-16T11:39:39.000Z</time>
      </trkpt>
      <trkpt lat="49.72067" lon="-1.92125">
        <ele>20.699219</ele>
        <time>2016-08-16T11:39:42.000Z</time>
      </trkpt>
      <trkpt lat="49.7205" lon="-1.92102">
        <ele>20.796875</ele>
        <time>2016-08-16T11:39:48.000Z</time>
      </trkpt>
      <trkpt lat="49.72041" lon="-1.92094">
        <ele>21.296875</ele>
        <time>2016-08-16T11:39:51.000Z</time>
      </trkpt>
      <trkpt lat="49.7198" lon="-1.9204">
        <ele>24</ele>
        <time>2016-08-16T11:40:12.000Z</time>
      </trkpt>
      <trkpt lat="49.71971" lon="-1.92035">
        <ele>24.296875</ele>
        <time>2016-08-16T11:40:15.000Z</time>
      </trkpt>
      <trkpt lat="49.71961" lon="-1.9203">
        <ele>24.699219</ele>
        <time>2016-08-16T11:40:18.000Z</time>
      </trkpt>
      <trkpt lat="49.71951" lon="-1.92027">
        <ele>24.898438</ele>
        <time>2016-08-16T11:40:21.000Z</time>
      </trkpt>
      <trkpt lat="49.71941" lon="-1.92025">
        <ele>25</ele>
        <time>2016-08-16T11:40:24.000Z</time>
      </trkpt>
      <trkpt lat="49.7189" lon="-1.9202">
        <ele>26.296875</ele>
        <time>2016-08-16T11:40:39.000Z</time>
      </trkpt>
      <trkpt lat="49.71869" lon="-1.9202">
        <ele>26.796875</ele>
        <time>2016-08-16T11:40:45.000Z</time>
      </trkpt>
      <trkpt lat="49.71859" lon="-1.92022">
        <ele>27</ele>
        <time>2016-08-16T11:40:48.000Z</time>
      </trkpt>
      <trkpt lat="49.71848" lon="-1.92024">
        <ele>27.097656</ele>
        <time>2016-08-16T11:40:51.000Z</time>
      </trkpt>
      <trkpt lat="49.71765" lon="-1.9205">
        <ele>27.898438</ele>
        <time>2016-08-16T11:42:01.000Z</time>
      </trkpt>
      <trkpt lat="49.71756" lon="-1.92053">
        <ele>27.699219</ele>
        <time>2016-08-16T11:42:04.000Z</time>
      </trkpt>
      <trkpt lat="49.71747" lon="-1.92059">
        <ele>27.898438</ele>
        <time>2016-08-16T11:42:07.000Z</time>
      </trkpt>
      <trkpt lat="49.71698" lon="-1.92092">
        <ele>29.296875</ele>
        <time>2016-08-16T11:42:22.000Z</time>
      </trkpt>
      <trkpt lat="49.71687" lon="-1.92095">
        <ele>29.597656</ele>
        <time>2016-08-16T11:42:25.000Z</time>
      </trkpt>
      <trkpt lat="49.71666" lon="-1.92102">
        <ele>30</ele>
        <time>2016-08-16T11:42:31.000Z</time>
      </trkpt>
      <trkpt lat="49.71581" lon="-1.92143">
        <ele>31.097656</ele>
        <time>2016-08-16T11:42:55.000Z</time>
      </trkpt>
      <trkpt lat="49.7151" lon="-1.92183">
        <ele>32.597656</ele>
        <time>2016-08-16T11:43:16.000Z</time>
      </trkpt>
      <trkpt lat="49.715" lon="-1.9219">
        <ele>32.796875</ele>
        <time>2016-08-16T11:43:19.000Z</time>
      </trkpt>
      <trkpt lat="49.71482" lon="-1.92205">
        <ele>34</ele>
        <time>2016-08-16T11:43:25.000Z</time>
      </trkpt>
      <trkpt lat="49.71473" lon="-1.92208">
        <ele>34.296875</ele>
        <time>2016-08-16T11:43:28.000Z</time>
      </trkpt>
      <trkpt lat="49.71463" lon="-1.92207">
        <ele>35</ele>
        <time>2016-08-16T11:43:31.000Z</time>
      </trkpt>
      <trkpt lat="49.71443" lon="-1.92206">
        <ele>36.199219</ele>
        <time>2016-08-16T11:43:37.000Z</time>
      </trkpt>
      <trkpt lat="49.71433" lon="-1.92209">
        <ele>36.796875</ele>
        <time>2016-08-16T11:43:40.000Z</time>
      </trkpt>
      <trkpt lat="49.71423" lon="-1.92211">
        <ele>37.398438</ele>
        <time>2016-08-16T11:43:43.000Z</time>
      </trkpt>
      <trkpt lat="49.71413" lon="-1.92211">
        <ele>38.097656</ele>
        <time>2016-08-16T11:43:46.000Z</time>
      </trkpt>
      <trkpt lat="49.71402" lon="-1.9221">
        <ele>38.699219</ele>
        <time>2016-08-16T11:43:49.000Z</time>
      </trkpt>
      <trkpt lat="49.71298" lon="-1.92199">
        <ele>46.296875</ele>
        <time>2016-08-16T11:44:24.000Z</time>
      </trkpt>
      <trkpt lat="49.71258" lon="-1.92203">
        <ele>51.597656</ele>
        <time>2016-08-16T11:44:40.000Z</time>
      </trkpt>
      <trkpt lat="49.71248" lon="-1.92205">
        <ele>53.199219</ele>
        <time>2016-08-16T11:44:44.000Z</time>
      </trkpt>
      <trkpt lat="49.71218" lon="-1.92212">
        <ele>56.296875</ele>
        <time>2016-08-16T11:44:56.000Z</time>
      </trkpt>
      <trkpt lat="49.71209" lon="-1.92212">
        <ele>57.398438</ele>
        <time>2016-08-16T11:45:00.000Z</time>
      </trkpt>
      <trkpt lat="49.71199" lon="-1.92211">
        <ele>58.398438</ele>
        <time>2016-08-16T11:45:04.000Z</time>
      </trkpt>
      <trkpt lat="49.71189" lon="-1.92209">
        <ele>59.296875</ele>
        <time>2016-08-16T11:45:08.000Z</time>
      </trkpt>
      <trkpt lat="49.71171" lon="-1.92199">
        <ele>61.296875</ele>
        <time>2016-08-16T11:45:16.000Z</time>
      </trkpt>
      <trkpt lat="49.71161" lon="-1.92198">
        <ele>62.398438</ele>
        <time>2016-08-16T11:45:20.000Z</time>
      </trkpt>
      <trkpt lat="49.71141" lon="-1.92196">
        <ele>64.796875</ele>
        <time>2016-08-16T11:45:28.000Z</time>
      </trkpt>
      <trkpt lat="49.71132" lon="-1.92197">
        <ele>65.199219</ele>
        <time>2016-08-16T11:45:32.000Z</time>
      </trkpt>
      <trkpt lat="49.71123" lon="-1.92195">
        <ele>65.699219</ele>
        <time>2016-08-16T11:45:36.000Z</time>
      </trkpt>
      <trkpt lat="49.71115" lon="-1.92185">
        <ele>65.699219</ele>
        <time>2016-08-16T11:45:41.000Z</time>
      </trkpt>
      <trkpt lat="49.71107" lon="-1.92172">
        <ele>65.898438</ele>
        <time>2016-08-16T11:46:45.000Z</time>
      </trkpt>
      <trkpt lat="49.71101" lon="-1.9216">
        <ele>66.097656</ele>
        <time>2016-08-16T11:46:49.000Z</time>
      </trkpt>
      <trkpt lat="49.71096" lon="-1.92146">
        <ele>65.898438</ele>
        <time>2016-08-16T11:46:53.000Z</time>
      </trkpt>
      <trkpt lat="49.71092" lon="-1.92128">
        <ele>65.5</ele>
        <time>2016-08-16T11:46:57.000Z</time>
      </trkpt>
      <trkpt lat="49.7109" lon="-1.92113">
        <ele>65</ele>
        <time>2016-08-16T11:47:00.000Z</time>
      </trkpt>
      <trkpt lat="49.7109" lon="-1.92096">
        <ele>64.296875</ele>
        <time>2016-08-16T11:47:04.000Z</time>
      </trkpt>
      <trkpt lat="49.71094" lon="-1.92079">
        <ele>63.199219</ele>
        <time>2016-08-16T11:47:07.000Z</time>
      </trkpt>
      <trkpt lat="49.71099" lon="-1.9206">
        <ele>62.398438</ele>
        <time>2016-08-16T11:47:10.000Z</time>
      </trkpt>
      <trkpt lat="49.71102" lon="-1.92044">
        <ele>62.199219</ele>
        <time>2016-08-16T11:47:12.000Z</time>
      </trkpt>
      <trkpt lat="49.71104" lon="-1.92027">
        <ele>62.398438</ele>
        <time>2016-08-16T11:47:14.000Z</time>
      </trkpt>
      <trkpt lat="49.71102" lon="-1.92011">
        <ele>62.898438</ele>
        <time>2016-08-16T11:47:16.000Z</time>
      </trkpt>
      <trkpt lat="49.71099" lon="-1.91993">
        <ele>63.097656</ele>
        <time>2016-08-16T11:47:19.000Z</time>
      </trkpt>
      <trkpt lat="49.71096" lon="-1.91977">
        <ele>63.699219</ele>
        <time>2016-08-16T11:47:22.000Z</time>
      </trkpt>
      <trkpt lat="49.71078" lon="-1.91908">
        <ele>66</ele>
        <time>2016-08-16T11:47:37.000Z</time>
      </trkpt>
      <trkpt lat="49.71079" lon="-1.9189">
        <ele>67</ele>
        <time>2016-08-16T11:47:41.000Z</time>
      </trkpt>
      <trkpt lat="49.71086" lon="-1.9174">
        <ele>72.898438</ele>
        <time>2016-08-16T11:48:17.000Z</time>
      </trkpt>
      <trkpt lat="49.7109" lon="-1.91723">
        <ele>73.097656</ele>
        <time>2016-08-16T11:48:21.000Z</time>
      </trkpt>
      <trkpt lat="49.71102" lon="-1.91675">
        <ele>73.597656</ele>
        <time>2016-08-16T11:48:32.000Z</time>
      </trkpt>
      <trkpt lat="49.7111" lon="-1.91648">
        <ele>73.898438</ele>
        <time>2016-08-16T11:48:38.000Z</time>
      </trkpt>
      <trkpt lat="49.71123" lon="-1.91609">
        <ele>74.398438</ele>
        <time>2016-08-16T11:48:47.000Z</time>
      </trkpt>
      <trkpt lat="49.71144" lon="-1.91551">
        <ele>74</ele>
        <time>2016-08-16T11:49:00.000Z</time>
      </trkpt>
      <trkpt lat="49.71151" lon="-1.91537">
        <ele>73.699219</ele>
        <time>2016-08-16T11:49:03.000Z</time>
      </trkpt>
      <trkpt lat="49.7117" lon="-1.91499">
        <ele>72.199219</ele>
        <time>2016-08-16T11:49:14.000Z</time>
      </trkpt>
      <trkpt lat="49.71176" lon="-1.91509">
        <ele>72.796875</ele>
        <time>2016-08-16T11:49:46.000Z</time>
      </trkpt>
      <trkpt lat="49.71168" lon="-1.91515">
        <ele>73.398438</ele>
        <time>2016-08-16T11:49:50.000Z</time>
      </trkpt>
      <trkpt lat="49.71161" lon="-1.91524">
        <ele>73.898438</ele>
        <time>2016-08-16T11:49:54.000Z</time>
      </trkpt>
      <trkpt lat="49.71154" lon="-1.91537">
        <ele>74.296875</ele>
        <time>2016-08-16T11:49:58.000Z</time>
      </trkpt>
      <trkpt lat="49.71148" lon="-1.91549">
        <ele>74.597656</ele>
        <time>2016-08-16T11:50:01.000Z</time>
      </trkpt>
      <trkpt lat="49.71142" lon="-1.91565">
        <ele>74.796875</ele>
        <time>2016-08-16T11:50:05.000Z</time>
      </trkpt>
      <trkpt lat="49.71132" lon="-1.91574">
        <ele>75.398438</ele>
        <time>2016-08-16T11:50:09.000Z</time>
      </trkpt>
      <trkpt lat="49.71121" lon="-1.91572">
        <ele>76.796875</ele>
        <time>2016-08-16T11:50:13.000Z</time>
      </trkpt>
      <trkpt lat="49.71109" lon="-1.91568">
        <ele>78.097656</ele>
        <time>2016-08-16T11:50:17.000Z</time>
      </trkpt>
      <trkpt lat="49.71098" lon="-1.91563">
        <ele>79.296875</ele>
        <time>2016-08-16T11:50:21.000Z</time>
      </trkpt>
      <trkpt lat="49.71089" lon="-1.91553">
        <ele>80.296875</ele>
        <time>2016-08-16T11:50:25.000Z</time>
      </trkpt>
      <trkpt lat="49.71081" lon="-1.91541">
        <ele>81.296875</ele>
        <time>2016-08-16T11:50:29.000Z</time>
      </trkpt>
      <trkpt lat="49.71075" lon="-1.91527">
        <ele>82.097656</ele>
        <time>2016-08-16T11:50:33.000Z</time>
      </trkpt>
      <trkpt lat="49.71069" lon="-1.91511">
        <ele>82.898438</ele>
        <time>2016-08-16T11:50:37.000Z</time>
      </trkpt>
      <trkpt lat="49.71065" lon="-1.91498">
        <ele>83.699219</ele>
        <time>2016-08-16T11:50:40.000Z</time>
      </trkpt>
      <trkpt lat="49.71061" lon="-1.91481">
        <ele>84.296875</ele>
        <time>2016-08-16T11:50:44.000Z</time>
      </trkpt>
      <trkpt lat="49.71057" lon="-1.91465">
        <ele>84.898438</ele>
        <time>2016-08-16T11:50:48.000Z</time>
      </trkpt>
      <trkpt lat="49.71055" lon="-1.91451">
        <ele>85.699219</ele>
        <time>2016-08-16T11:50:51.000Z</time>
      </trkpt>
      <trkpt lat="49.71052" lon="-1.91419">
        <ele>86.097656</ele>
        <time>2016-08-16T11:50:58.000Z</time>
      </trkpt>
      <trkpt lat="49.71049" lon="-1.91405">
        <ele>85.898438</ele>
        <time>2016-08-16T11:51:01.000Z</time>
      </trkpt>
      <trkpt lat="49.71044" lon="-1.91373">
        <ele>85.199219</ele>
        <time>2016-08-16T11:51:07.000Z</time>
      </trkpt>
      <trkpt lat="49.71039" lon="-1.91357">
        <ele>85</ele>
        <time>2016-08-16T11:51:10.000Z</time>
      </trkpt>
      <trkpt lat="49.71033" lon="-1.91341">
        <ele>84.796875</ele>
        <time>2016-08-16T11:51:13.000Z</time>
      </trkpt>
      <trkpt lat="49.71026" lon="-1.91328">
        <ele>84.699219</ele>
        <time>2016-08-16T11:51:16.000Z</time>
      </trkpt>
      <trkpt lat="49.71018" lon="-1.91314">
        <ele>84.597656</ele>
        <time>2016-08-16T11:51:19.000Z</time>
      </trkpt>
      <trkpt lat="49.71009" lon="-1.91303">
        <ele>84.699219</ele>
        <time>2016-08-16T11:51:22.000Z</time>
      </trkpt>
      <trkpt lat="49.71" lon="-1.91291">
        <ele>84.597656</ele>
        <time>2016-08-16T11:51:25.000Z</time>
      </trkpt>
      <trkpt lat="49.70957" lon="-1.91232">
        <ele>83.199219</ele>
        <time>2016-08-16T11:51:40.000Z</time>
      </trkpt>
      <trkpt lat="49.70946" lon="-1.91221">
        <ele>83</ele>
        <time>2016-08-16T11:51:43.000Z</time>
      </trkpt>
      <trkpt lat="49.70937" lon="-1.91214">
        <ele>82.699219</ele>
        <time>2016-08-16T11:51:45.000Z</time>
      </trkpt>
      <trkpt lat="49.70929" lon="-1.91208">
        <ele>82.5</ele>
        <time>2016-08-16T11:51:47.000Z</time>
      </trkpt>
      <trkpt lat="49.7092" lon="-1.91202">
        <ele>82.296875</ele>
        <time>2016-08-16T11:51:49.000Z</time>
      </trkpt>
      <trkpt lat="49.70869" lon="-1.91173">
        <ele>81</ele>
        <time>2016-08-16T11:52:01.000Z</time>
      </trkpt>
      <trkpt lat="49.70852" lon="-1.91159">
        <ele>80.699219</ele>
        <time>2016-08-16T11:52:05.000Z</time>
      </trkpt>
      <trkpt lat="49.70717" lon="-1.91043">
        <ele>77.796875</ele>
        <time>2016-08-16T11:52:35.000Z</time>
      </trkpt>
      <trkpt lat="49.70706" lon="-1.91037">
        <ele>77.5</ele>
        <time>2016-08-16T11:52:37.000Z</time>
      </trkpt>
      <trkpt lat="49.70685" lon="-1.91028">
        <ele>76.597656</ele>
        <time>2016-08-16T11:52:41.000Z</time>
      </trkpt>
      <trkpt lat="49.70635" lon="-1.9101">
        <ele>74</ele>
        <time>2016-08-16T11:52:49.000Z</time>
      </trkpt>
      <trkpt lat="49.70622" lon="-1.91001">
        <ele>73.199219</ele>
        <time>2016-08-16T11:52:51.000Z</time>
      </trkpt>
      <trkpt lat="49.70613" lon="-1.90985">
        <ele>72.699219</ele>
        <time>2016-08-16T11:52:53.000Z</time>
      </trkpt>
      <trkpt lat="49.70608" lon="-1.90965">
        <ele>71.796875</ele>
        <time>2016-08-16T11:52:55.000Z</time>
      </trkpt>
      <trkpt lat="49.70603" lon="-1.90944">
        <ele>71</ele>
        <time>2016-08-16T11:52:57.000Z</time>
      </trkpt>
      <trkpt lat="49.706" lon="-1.90922">
        <ele>70.296875</ele>
        <time>2016-08-16T11:52:59.000Z</time>
      </trkpt>
      <trkpt lat="49.70599" lon="-1.90903">
        <ele>69.898438</ele>
        <time>2016-08-16T11:53:01.000Z</time>
      </trkpt>
      <trkpt lat="49.70598" lon="-1.90887">
        <ele>69.5</ele>
        <time>2016-08-16T11:53:03.000Z</time>
      </trkpt>
      <trkpt lat="49.70596" lon="-1.90873">
        <ele>68.296875</ele>
        <time>2016-08-16T11:53:06.000Z</time>
      </trkpt>
      <trkpt lat="49.70586" lon="-1.90863">
        <ele>67.699219</ele>
        <time>2016-08-16T11:53:22.000Z</time>
      </trkpt>
      <trkpt lat="49.70576" lon="-1.90859">
        <ele>67</ele>
        <time>2016-08-16T11:53:25.000Z</time>
      </trkpt>
      <trkpt lat="49.70564" lon="-1.90851">
        <ele>66.597656</ele>
        <time>2016-08-16T11:53:28.000Z</time>
      </trkpt>
      <trkpt lat="49.70555" lon="-1.90844">
        <ele>66.398438</ele>
        <time>2016-08-16T11:53:30.000Z</time>
      </trkpt>
      <trkpt lat="49.70546" lon="-1.90839">
        <ele>66.5</ele>
        <time>2016-08-16T11:53:32.000Z</time>
      </trkpt>
      <trkpt lat="49.70536" lon="-1.90839">
        <ele>66.597656</ele>
        <time>2016-08-16T11:53:34.000Z</time>
      </trkpt>
      <trkpt lat="49.70527" lon="-1.90842">
        <ele>66.699219</ele>
        <time>2016-08-16T11:53:36.000Z</time>
      </trkpt>
      <trkpt lat="49.70515" lon="-1.90849">
        <ele>66.898438</ele>
        <time>2016-08-16T11:53:39.000Z</time>
      </trkpt>
      <trkpt lat="49.70504" lon="-1.90855">
        <ele>67.199219</ele>
        <time>2016-08-16T11:53:42.000Z</time>
      </trkpt>
      <trkpt lat="49.70459" lon="-1.90885">
        <ele>69.796875</ele>
        <time>2016-08-16T11:53:57.000Z</time>
      </trkpt>
      <trkpt lat="49.70447" lon="-1.90889">
        <ele>70.597656</ele>
        <time>2016-08-16T11:54:01.000Z</time>
      </trkpt>
      <trkpt lat="49.70437" lon="-1.90891">
        <ele>71.699219</ele>
        <time>2016-08-16T11:54:05.000Z</time>
      </trkpt>
      <trkpt lat="49.70427" lon="-1.90892">
        <ele>72.898438</ele>
        <time>2016-08-16T11:54:09.000Z</time>
      </trkpt>
      <trkpt lat="49.70417" lon="-1.9089">
        <ele>74.097656</ele>
        <time>2016-08-16T11:54:13.000Z</time>
      </trkpt>
      <trkpt lat="49.70371" lon="-1.90881">
        <ele>80.398438</ele>
        <time>2016-08-16T11:54:33.000Z</time>
      </trkpt>
      <trkpt lat="49.7036" lon="-1.90877">
        <ele>81.5</ele>
        <time>2016-08-16T11:54:38.000Z</time>
      </trkpt>
      <trkpt lat="49.70352" lon="-1.90872">
        <ele>82.5</ele>
        <time>2016-08-16T11:54:42.000Z</time>
      </trkpt>
      <trkpt lat="49.70333" lon="-1.90862">
        <ele>85.199219</ele>
        <time>2016-08-16T11:54:51.000Z</time>
      </trkpt>
      <trkpt lat="49.70324" lon="-1.9086">
        <ele>86.398438</ele>
        <time>2016-08-16T11:54:55.000Z</time>
      </trkpt>
      <trkpt lat="49.70314" lon="-1.90859">
        <ele>87.597656</ele>
        <time>2016-08-16T11:54:59.000Z</time>
      </trkpt>
      <trkpt lat="49.70296" lon="-1.90859">
        <ele>88.699219</ele>
        <time>2016-08-16T11:55:07.000Z</time>
      </trkpt>
      <trkpt lat="49.7024" lon="-1.90858">
        <ele>95.097656</ele>
        <time>2016-08-16T11:55:31.000Z</time>
      </trkpt>
      <trkpt lat="49.70231" lon="-1.90855">
        <ele>96.398438</ele>
        <time>2016-08-16T11:55:35.000Z</time>
      </trkpt>
      <trkpt lat="49.70222" lon="-1.90851">
        <ele>97.398438</ele>
        <time>2016-08-16T11:55:39.000Z</time>
      </trkpt>
      <trkpt lat="49.70214" lon="-1.90845">
        <ele>98.5</ele>
        <time>2016-08-16T11:55:43.000Z</time>
      </trkpt>
      <trkpt lat="49.70181" lon="-1.90815">
        <ele>101.796875</ele>
        <time>2016-08-16T11:55:59.000Z</time>
      </trkpt>
      <trkpt lat="49.70172" lon="-1.90811">
        <ele>102.296875</ele>
        <time>2016-08-16T11:56:03.000Z</time>
      </trkpt>
      <trkpt lat="49.7013" lon="-1.90792">
        <ele>105.699219</ele>
        <time>2016-08-16T11:56:19.000Z</time>
      </trkpt>
      <trkpt lat="49.70109" lon="-1.90779">
        <ele>106.898438</ele>
        <time>2016-08-16T11:56:27.000Z</time>
      </trkpt>
      <trkpt lat="49.701" lon="-1.90769">
        <ele>107.199219</ele>
        <time>2016-08-16T11:56:31.000Z</time>
      </trkpt>
      <trkpt lat="49.70094" lon="-1.90758">
        <ele>107.5</ele>
        <time>2016-08-16T11:56:34.000Z</time>
      </trkpt>
      <trkpt lat="49.70077" lon="-1.90722">
        <ele>108.898438</ele>
        <time>2016-08-16T11:56:43.000Z</time>
      </trkpt>
      <trkpt lat="49.7007" lon="-1.90713">
        <ele>109.597656</ele>
        <time>2016-08-16T11:56:46.000Z</time>
      </trkpt>
      <trkpt lat="49.70061" lon="-1.90701">
        <ele>110.398438</ele>
        <time>2016-08-16T11:56:50.000Z</time>
      </trkpt>
      <trkpt lat="49.70033" lon="-1.90671">
        <ele>112.097656</ele>
        <time>2016-08-16T11:57:02.000Z</time>
      </trkpt>
      <trkpt lat="49.70008" lon="-1.90646">
        <ele>113.597656</ele>
        <time>2016-08-16T11:57:12.000Z</time>
      </trkpt>
      <trkpt lat="49.7" lon="-1.90639">
        <ele>114.199219</ele>
        <time>2016-08-16T11:57:15.000Z</time>
      </trkpt>
      <trkpt lat="49.69989" lon="-1.90634">
        <ele>115.097656</ele>
        <time>2016-08-16T11:57:19.000Z</time>
      </trkpt>
      <trkpt lat="49.69979" lon="-1.90634">
        <ele>115.699219</ele>
        <time>2016-08-16T11:57:23.000Z</time>
      </trkpt>
      <trkpt lat="49.69968" lon="-1.90638">
        <ele>115.796875</ele>
        <time>2016-08-16T11:57:28.000Z</time>
      </trkpt>
      <trkpt lat="49.69948" lon="-1.90643">
        <ele>115.796875</ele>
        <time>2016-08-16T11:57:36.000Z</time>
      </trkpt>
      <trkpt lat="49.69936" lon="-1.90645">
        <ele>116</ele>
        <time>2016-08-16T11:57:40.000Z</time>
      </trkpt>
      <trkpt lat="49.69916" lon="-1.90647">
        <ele>117.296875</ele>
        <time>2016-08-16T11:57:49.000Z</time>
      </trkpt>
      <trkpt lat="49.69907" lon="-1.90643">
        <ele>116.898438</ele>
        <time>2016-08-16T11:58:36.000Z</time>
      </trkpt>
      <trkpt lat="49.69897" lon="-1.90643">
        <ele>116.699219</ele>
        <time>2016-08-16T11:58:42.000Z</time>
      </trkpt>
      <trkpt lat="49.69825" lon="-1.90642">
        <ele>116.097656</ele>
        <time>2016-08-16T11:59:11.000Z</time>
      </trkpt>
      <trkpt lat="49.69787" lon="-1.90633">
        <ele>115.296875</ele>
        <time>2016-08-16T11:59:20.000Z</time>
      </trkpt>
      <trkpt lat="49.69747" lon="-1.90619">
        <ele>115.398438</ele>
        <time>2016-08-16T11:59:29.000Z</time>
      </trkpt>
      <trkpt lat="49.69735" lon="-1.90612">
        <ele>115.5</ele>
        <time>2016-08-16T11:59:32.000Z</time>
      </trkpt>
      <trkpt lat="49.69724" lon="-1.90604">
        <ele>115.398438</ele>
        <time>2016-08-16T11:59:35.000Z</time>
      </trkpt>
      <trkpt lat="49.69693" lon="-1.90578">
        <ele>114.699219</ele>
        <time>2016-08-16T11:59:44.000Z</time>
      </trkpt>
      <trkpt lat="49.6968" lon="-1.90571">
        <ele>114.398438</ele>
        <time>2016-08-16T11:59:47.000Z</time>
      </trkpt>
      <trkpt lat="49.69671" lon="-1.90568">
        <ele>114.199219</ele>
        <time>2016-08-16T11:59:49.000Z</time>
      </trkpt>
      <trkpt lat="49.69633" lon="-1.90554">
        <ele>113.796875</ele>
        <time>2016-08-16T11:59:57.000Z</time>
      </trkpt>
      <trkpt lat="49.69624" lon="-1.90554">
        <ele>114.097656</ele>
        <time>2016-08-16T11:59:59.000Z</time>
      </trkpt>
      <trkpt lat="49.69612" lon="-1.90558">
        <ele>114.199219</ele>
        <time>2016-08-16T12:00:02.000Z</time>
      </trkpt>
      <trkpt lat="49.69602" lon="-1.90564">
        <ele>114.199219</ele>
        <time>2016-08-16T12:00:05.000Z</time>
      </trkpt>
      <trkpt lat="49.69517" lon="-1.90604">
        <ele>116.597656</ele>
        <time>2016-08-16T12:00:33.000Z</time>
      </trkpt>
      <trkpt lat="49.69494" lon="-1.90612">
        <ele>117.398438</ele>
        <time>2016-08-16T12:00:41.000Z</time>
      </trkpt>
      <trkpt lat="49.6946" lon="-1.90621">
        <ele>121.597656</ele>
        <time>2016-08-16T12:00:53.000Z</time>
      </trkpt>
      <trkpt lat="49.69451" lon="-1.90617">
        <ele>122.597656</ele>
        <time>2016-08-16T12:00:57.000Z</time>
      </trkpt>
      <trkpt lat="49.69446" lon="-1.90603">
        <ele>123.398438</ele>
        <time>2016-08-16T12:01:01.000Z</time>
      </trkpt>
      <trkpt lat="49.69444" lon="-1.90586">
        <ele>124.5</ele>
        <time>2016-08-16T12:01:05.000Z</time>
      </trkpt>
      <trkpt lat="49.69443" lon="-1.9057">
        <ele>125.097656</ele>
        <time>2016-08-16T12:01:09.000Z</time>
      </trkpt>
      <trkpt lat="49.69441" lon="-1.90552">
        <ele>125.796875</ele>
        <time>2016-08-16T12:01:13.000Z</time>
      </trkpt>
      <trkpt lat="49.69435" lon="-1.9052">
        <ele>125.898438</ele>
        <time>2016-08-16T12:01:20.000Z</time>
      </trkpt>
      <trkpt lat="49.69432" lon="-1.90505">
        <ele>125.796875</ele>
        <time>2016-08-16T12:01:23.000Z</time>
      </trkpt>
      <trkpt lat="49.69403" lon="-1.90395">
        <ele>122.898438</ele>
        <time>2016-08-16T12:01:42.000Z</time>
      </trkpt>
      <trkpt lat="49.69402" lon="-1.9038">
        <ele>122.5</ele>
        <time>2016-08-16T12:01:46.000Z</time>
      </trkpt>
      <trkpt lat="49.6941" lon="-1.90373">
        <ele>121.199219</ele>
        <time>2016-08-16T12:01:51.000Z</time>
      </trkpt>
      <trkpt lat="49.69419" lon="-1.90368">
        <ele>120.398438</ele>
        <time>2016-08-16T12:01:55.000Z</time>
      </trkpt>
      <trkpt lat="49.69431" lon="-1.90364">
        <ele>120.097656</ele>
        <time>2016-08-16T12:01:59.000Z</time>
      </trkpt>
      <trkpt lat="49.69489" lon="-1.9035">
        <ele>117.898438</ele>
        <time>2016-08-16T12:02:14.000Z</time>
      </trkpt>
      <trkpt lat="49.69502" lon="-1.90348">
        <ele>117.898438</ele>
        <time>2016-08-16T12:02:17.000Z</time>
      </trkpt>
      <trkpt lat="49.69514" lon="-1.90347">
        <ele>118.199219</ele>
        <time>2016-08-16T12:02:20.000Z</time>
      </trkpt>
      <trkpt lat="49.69548" lon="-1.90344">
        <ele>118</ele>
        <time>2016-08-16T12:02:29.000Z</time>
      </trkpt>
      <trkpt lat="49.69559" lon="-1.90339">
        <ele>116.898438</ele>
        <time>2016-08-16T12:02:32.000Z</time>
      </trkpt>
      <trkpt lat="49.69564" lon="-1.90321">
        <ele>115.597656</ele>
        <time>2016-08-16T12:02:35.000Z</time>
      </trkpt>
      <trkpt lat="49.69564" lon="-1.90304">
        <ele>114</ele>
        <time>2016-08-16T12:02:37.000Z</time>
      </trkpt>
      <trkpt lat="49.69562" lon="-1.90259">
        <ele>110.5</ele>
        <time>2016-08-16T12:02:41.000Z</time>
      </trkpt>
      <trkpt lat="49.69563" lon="-1.90232">
        <ele>109.699219</ele>
        <time>2016-08-16T12:02:43.000Z</time>
      </trkpt>
      <trkpt lat="49.69565" lon="-1.90218">
        <ele>108.796875</ele>
        <time>2016-08-16T12:02:44.000Z</time>
      </trkpt>
      <trkpt lat="49.69575" lon="-1.90163">
        <ele>106.699219</ele>
        <time>2016-08-16T12:02:48.000Z</time>
      </trkpt>
      <trkpt lat="49.69588" lon="-1.90096">
        <ele>109.398438</ele>
        <time>2016-08-16T12:02:54.000Z</time>
      </trkpt>
      <trkpt lat="49.6959" lon="-1.9008">
        <ele>110.296875</ele>
        <time>2016-08-16T12:02:56.000Z</time>
      </trkpt>
      <trkpt lat="49.69595" lon="-1.90062">
        <ele>110</ele>
        <time>2016-08-16T12:02:59.000Z</time>
      </trkpt>
      <trkpt lat="49.69601" lon="-1.90045">
        <ele>109.398438</ele>
        <time>2016-08-16T12:03:02.000Z</time>
      </trkpt>
      <trkpt lat="49.69629" lon="-1.89974">
        <ele>105.5</ele>
        <time>2016-08-16T12:03:12.000Z</time>
      </trkpt>
      <trkpt lat="49.69636" lon="-1.89961">
        <ele>104.5</ele>
        <time>2016-08-16T12:03:14.000Z</time>
      </trkpt>
      <trkpt lat="49.69645" lon="-1.89954">
        <ele>104.097656</ele>
        <time>2016-08-16T12:03:16.000Z</time>
      </trkpt>
      <trkpt lat="49.69653" lon="-1.89944">
        <ele>104</ele>
        <time>2016-08-16T12:03:18.000Z</time>
      </trkpt>
      <trkpt lat="49.69655" lon="-1.8993">
        <ele>104.296875</ele>
        <time>2016-08-16T12:03:20.000Z</time>
      </trkpt>
      <trkpt lat="49.69656" lon="-1.89911">
        <ele>105.097656</ele>
        <time>2016-08-16T12:03:23.000Z</time>
      </trkpt>
      <trkpt lat="49.69656" lon="-1.89896">
        <ele>106.199219</ele>
        <time>2016-08-16T12:03:26.000Z</time>
      </trkpt>
      <trkpt lat="49.69656" lon="-1.89863">
        <ele>108.199219</ele>
        <time>2016-08-16T12:03:34.000Z</time>
      </trkpt>
      <trkpt lat="49.69658" lon="-1.89849">
        <ele>108.5</ele>
        <time>2016-08-16T12:03:42.000Z</time>
      </trkpt>
      <trkpt lat="49.69662" lon="-1.89834">
        <ele>108.5</ele>
        <time>2016-08-16T12:03:46.000Z</time>
      </trkpt>
      <trkpt lat="49.69669" lon="-1.89807">
        <ele>107.796875</ele>
        <time>2016-08-16T12:03:52.000Z</time>
      </trkpt>
      <trkpt lat="49.69676" lon="-1.89793">
        <ele>107.296875</ele>
        <time>2016-08-16T12:03:56.000Z</time>
      </trkpt>
      <trkpt lat="49.69707" lon="-1.89718">
        <ele>103.699219</ele>
        <time>2016-08-16T12:04:08.000Z</time>
      </trkpt>
      <trkpt lat="49.6972" lon="-1.89683">
        <ele>102.199219</ele>
        <time>2016-08-16T12:04:12.000Z</time>
      </trkpt>
      <trkpt lat="49.69725" lon="-1.89666">
        <ele>101.597656</ele>
        <time>2016-08-16T12:04:14.000Z</time>
      </trkpt>
      <trkpt lat="49.69728" lon="-1.89649">
        <ele>100.796875</ele>
        <time>2016-08-16T12:04:16.000Z</time>
      </trkpt>
      <trkpt lat="49.69729" lon="-1.8963">
        <ele>99.296875</ele>
        <time>2016-08-16T12:04:18.000Z</time>
      </trkpt>
      <trkpt lat="49.69732" lon="-1.89609">
        <ele>97</ele>
        <time>2016-08-16T12:04:20.000Z</time>
      </trkpt>
      <trkpt lat="49.6974" lon="-1.89586">
        <ele>95.597656</ele>
        <time>2016-08-16T12:04:22.000Z</time>
      </trkpt>
      <trkpt lat="49.69745" lon="-1.89574">
        <ele>94.199219</ele>
        <time>2016-08-16T12:04:23.000Z</time>
      </trkpt>
      <trkpt lat="49.69749" lon="-1.89561">
        <ele>92.699219</ele>
        <time>2016-08-16T12:04:24.000Z</time>
      </trkpt>
      <trkpt lat="49.69752" lon="-1.89548">
        <ele>91.199219</ele>
        <time>2016-08-16T12:04:25.000Z</time>
      </trkpt>
      <trkpt lat="49.69755" lon="-1.89533">
        <ele>89.699219</ele>
        <time>2016-08-16T12:04:26.000Z</time>
      </trkpt>
      <trkpt lat="49.69757" lon="-1.89519">
        <ele>86.5</ele>
        <time>2016-08-16T12:04:27.000Z</time>
      </trkpt>
      <trkpt lat="49.69759" lon="-1.8949">
        <ele>84.796875</ele>
        <time>2016-08-16T12:04:29.000Z</time>
      </trkpt>
      <trkpt lat="49.69758" lon="-1.89475">
        <ele>83.398438</ele>
        <time>2016-08-16T12:04:30.000Z</time>
      </trkpt>
      <trkpt lat="49.69757" lon="-1.89401">
        <ele>75.5</ele>
        <time>2016-08-16T12:04:35.000Z</time>
      </trkpt>
      <trkpt lat="49.69756" lon="-1.89385">
        <ele>74.296875</ele>
        <time>2016-08-16T12:04:36.000Z</time>
      </trkpt>
      <trkpt lat="49.69752" lon="-1.89356">
        <ele>72</ele>
        <time>2016-08-16T12:04:38.000Z</time>
      </trkpt>
      <trkpt lat="49.69747" lon="-1.8933">
        <ele>69.796875</ele>
        <time>2016-08-16T12:04:40.000Z</time>
      </trkpt>
      <trkpt lat="49.69741" lon="-1.89307">
        <ele>66.898438</ele>
        <time>2016-08-16T12:04:42.000Z</time>
      </trkpt>
      <trkpt lat="49.69737" lon="-1.89281">
        <ele>65.796875</ele>
        <time>2016-08-16T12:04:44.000Z</time>
      </trkpt>
      <trkpt lat="49.6973" lon="-1.89221">
        <ele>61.796875</ele>
        <time>2016-08-16T12:04:48.000Z</time>
      </trkpt>
      <trkpt lat="49.69723" lon="-1.8919">
        <ele>60.199219</ele>
        <time>2016-08-16T12:04:50.000Z</time>
      </trkpt>
      <trkpt lat="49.69713" lon="-1.89152">
        <ele>58.699219</ele>
        <time>2016-08-16T12:04:53.000Z</time>
      </trkpt>
      <trkpt lat="49.69705" lon="-1.89132">
        <ele>58.5</ele>
        <time>2016-08-16T12:04:55.000Z</time>
      </trkpt>
      <trkpt lat="49.69698" lon="-1.89114">
        <ele>58.796875</ele>
        <time>2016-08-16T12:04:57.000Z</time>
      </trkpt>
      <trkpt lat="49.69684" lon="-1.89085">
        <ele>61.097656</ele>
        <time>2016-08-16T12:05:01.000Z</time>
      </trkpt>
      <trkpt lat="49.69682" lon="-1.89068">
        <ele>61.898438</ele>
        <time>2016-08-16T12:05:04.000Z</time>
      </trkpt>
      <trkpt lat="49.69687" lon="-1.89056">
        <ele>62.398438</ele>
        <time>2016-08-16T12:05:07.000Z</time>
      </trkpt>
      <trkpt lat="49.69695" lon="-1.89047">
        <ele>62.699219</ele>
        <time>2016-08-16T12:05:10.000Z</time>
      </trkpt>
      <trkpt lat="49.6972" lon="-1.89019">
        <ele>62.199219</ele>
        <time>2016-08-16T12:05:19.000Z</time>
      </trkpt>
      <trkpt lat="49.69727" lon="-1.89008">
        <ele>62.199219</ele>
        <time>2016-08-16T12:05:22.000Z</time>
      </trkpt>
      <trkpt lat="49.69732" lon="-1.88996">
        <ele>62.5</ele>
        <time>2016-08-16T12:05:25.000Z</time>
      </trkpt>
      <trkpt lat="49.69736" lon="-1.88982">
        <ele>62.796875</ele>
        <time>2016-08-16T12:05:28.000Z</time>
      </trkpt>
      <trkpt lat="49.69757" lon="-1.88919">
        <ele>66.199219</ele>
        <time>2016-08-16T12:05:43.000Z</time>
      </trkpt>
      <trkpt lat="49.69759" lon="-1.88903">
        <ele>67.097656</ele>
        <time>2016-08-16T12:05:47.000Z</time>
      </trkpt>
      <trkpt lat="49.69761" lon="-1.88886">
        <ele>68.398438</ele>
        <time>2016-08-16T12:05:51.000Z</time>
      </trkpt>
      <trkpt lat="49.69761" lon="-1.88871">
        <ele>69.796875</ele>
        <time>2016-08-16T12:05:54.000Z</time>
      </trkpt>
      <trkpt lat="49.69756" lon="-1.8875">
        <ele>71.5</ele>
        <time>2016-08-16T12:06:18.000Z</time>
      </trkpt>
      <trkpt lat="49.69754" lon="-1.88736">
        <ele>73.097656</ele>
        <time>2016-08-16T12:06:22.000Z</time>
      </trkpt>
      <trkpt lat="49.69747" lon="-1.88728">
        <ele>73.796875</ele>
        <time>2016-08-16T12:06:50.000Z</time>
      </trkpt>
      <trkpt lat="49.69736" lon="-1.88734">
        <ele>75</ele>
        <time>2016-08-16T12:06:55.000Z</time>
      </trkpt>
      <trkpt lat="49.69726" lon="-1.8874">
        <ele>75.597656</ele>
        <time>2016-08-16T12:07:00.000Z</time>
      </trkpt>
      <trkpt lat="49.69717" lon="-1.88732">
        <ele>76.097656</ele>
        <time>2016-08-16T12:07:05.000Z</time>
      </trkpt>
      <trkpt lat="49.69712" lon="-1.88716">
        <ele>75.898438</ele>
        <time>2016-08-16T12:07:09.000Z</time>
      </trkpt>
      <trkpt lat="49.69709" lon="-1.88701">
        <ele>75.5</ele>
        <time>2016-08-16T12:07:12.000Z</time>
      </trkpt>
      <trkpt lat="49.69664" lon="-1.88504">
        <ele>67.796875</ele>
        <time>2016-08-16T12:07:38.000Z</time>
      </trkpt>
      <trkpt lat="49.69658" lon="-1.88488">
        <ele>67.097656</ele>
        <time>2016-08-16T12:07:40.000Z</time>
      </trkpt>
      <trkpt lat="49.69649" lon="-1.88479">
        <ele>66.898438</ele>
        <time>2016-08-16T12:07:42.000Z</time>
      </trkpt>
      <trkpt lat="49.6964" lon="-1.88473">
        <ele>66.796875</ele>
        <time>2016-08-16T12:07:44.000Z</time>
      </trkpt>
      <trkpt lat="49.69631" lon="-1.88468">
        <ele>66.699219</ele>
        <time>2016-08-16T12:07:46.000Z</time>
      </trkpt>
      <trkpt lat="49.69621" lon="-1.88459">
        <ele>66.898438</ele>
        <time>2016-08-16T12:07:49.000Z</time>
      </trkpt>
      <trkpt lat="49.69614" lon="-1.88445">
        <ele>67.699219</ele>
        <time>2016-08-16T12:07:52.000Z</time>
      </trkpt>
      <trkpt lat="49.69612" lon="-1.88431">
        <ele>67.796875</ele>
        <time>2016-08-16T12:07:55.000Z</time>
      </trkpt>
      <trkpt lat="49.69618" lon="-1.88417">
        <ele>67.097656</ele>
        <time>2016-08-16T12:07:59.000Z</time>
      </trkpt>
      <trkpt lat="49.69625" lon="-1.88402">
        <ele>66.296875</ele>
        <time>2016-08-16T12:08:02.000Z</time>
      </trkpt>
      <trkpt lat="49.69635" lon="-1.88392">
        <ele>65.699219</ele>
        <time>2016-08-16T12:08:05.000Z</time>
      </trkpt>
      <trkpt lat="49.69648" lon="-1.88397">
        <ele>64.898438</ele>
        <time>2016-08-16T12:08:08.000Z</time>
      </trkpt>
      <trkpt lat="49.69658" lon="-1.88403">
        <ele>64</ele>
        <time>2016-08-16T12:08:10.000Z</time>
      </trkpt>
      <trkpt lat="49.69668" lon="-1.8841">
        <ele>63.097656</ele>
        <time>2016-08-16T12:08:12.000Z</time>
      </trkpt>
      <trkpt lat="49.6968" lon="-1.88416">
        <ele>62.398438</ele>
        <time>2016-08-16T12:08:14.000Z</time>
      </trkpt>
      <trkpt lat="49.69748" lon="-1.88446">
        <ele>58.699219</ele>
        <time>2016-08-16T12:08:24.000Z</time>
      </trkpt>
      <trkpt lat="49.69777" lon="-1.88455">
        <ele>56.199219</ele>
        <time>2016-08-16T12:08:28.000Z</time>
      </trkpt>
      <trkpt lat="49.69811" lon="-1.8846">
        <ele>53.796875</ele>
        <time>2016-08-16T12:08:32.000Z</time>
      </trkpt>
      <trkpt lat="49.69829" lon="-1.8846">
        <ele>50.597656</ele>
        <time>2016-08-16T12:08:34.000Z</time>
      </trkpt>
      <trkpt lat="49.6986" lon="-1.88457">
        <ele>47.5</ele>
        <time>2016-08-16T12:08:38.000Z</time>
      </trkpt>
      <trkpt lat="49.69872" lon="-1.88453">
        <ele>46.296875</ele>
        <time>2016-08-16T12:08:40.000Z</time>
      </trkpt>
      <trkpt lat="49.69883" lon="-1.88443">
        <ele>45.199219</ele>
        <time>2016-08-16T12:08:42.000Z</time>
      </trkpt>
      <trkpt lat="49.69892" lon="-1.88429">
        <ele>44.398438</ele>
        <time>2016-08-16T12:08:44.000Z</time>
      </trkpt>
      <trkpt lat="49.69923" lon="-1.88378">
        <ele>39.796875</ele>
        <time>2016-08-16T12:08:52.000Z</time>
      </trkpt>
      <trkpt lat="49.6993" lon="-1.88362">
        <ele>39.199219</ele>
        <time>2016-08-16T12:08:54.000Z</time>
      </trkpt>
      <trkpt lat="49.69936" lon="-1.88343">
        <ele>38.5</ele>
        <time>2016-08-16T12:08:56.000Z</time>
      </trkpt>
      <trkpt lat="49.69953" lon="-1.8829">
        <ele>36.898438</ele>
        <time>2016-08-16T12:09:02.000Z</time>
      </trkpt>
      <trkpt lat="49.69954" lon="-1.88275">
        <ele>37.398438</ele>
        <time>2016-08-16T12:09:05.000Z</time>
      </trkpt>
      <trkpt lat="49.6995" lon="-1.88261">
        <ele>53</ele>
        <time>2016-08-16T12:09:10.000Z</time>
      </trkpt>
      <trkpt lat="49.6996" lon="-1.88256">
        <ele>55.5</ele>
        <time>2016-08-16T12:11:09.000Z</time>
      </trkpt>
      <trkpt lat="49.69967" lon="-1.88245">
        <ele>52.097656</ele>
        <time>2016-08-16T12:15:57.000Z</time>
      </trkpt>
      <trkpt lat="49.69975" lon="-1.88238">
        <ele>50</ele>
        <time>2016-08-16T12:16:04.000Z</time>
      </trkpt>
      <trkpt lat="49.69983" lon="-1.8823">
        <ele>47.097656</ele>
        <time>2016-08-16T12:16:12.000Z</time>
      </trkpt>
      <trkpt lat="49.69992" lon="-1.88225">
        <ele>43.199219</ele>
        <time>2016-08-16T12:16:26.000Z</time>
      </trkpt>
      <trkpt lat="49.69999" lon="-1.88216">
        <ele>42</ele>
        <time>2016-08-16T12:16:42.000Z</time>
      </trkpt>
      <trkpt lat="49.70007" lon="-1.88205">
        <ele>40.898438</ele>
        <time>2016-08-16T12:16:45.000Z</time>
      </trkpt>
      <trkpt lat="49.70017" lon="-1.88191">
        <ele>39.796875</ele>
        <time>2016-08-16T12:16:48.000Z</time>
      </trkpt>
      <trkpt lat="49.70044" lon="-1.88144">
        <ele>37.699219</ele>
        <time>2016-08-16T12:16:56.000Z</time>
      </trkpt>
      <trkpt lat="49.7005" lon="-1.88132">
        <ele>37.097656</ele>
        <time>2016-08-16T12:16:58.000Z</time>
      </trkpt>
      <trkpt lat="49.70054" lon="-1.88119">
        <ele>36.296875</ele>
        <time>2016-08-16T12:17:00.000Z</time>
      </trkpt>
      <trkpt lat="49.70056" lon="-1.88103">
        <ele>35.5</ele>
        <time>2016-08-16T12:17:02.000Z</time>
      </trkpt>
      <trkpt lat="49.70058" lon="-1.88085">
        <ele>34.898438</ele>
        <time>2016-08-16T12:17:04.000Z</time>
      </trkpt>
      <trkpt lat="49.70059" lon="-1.88066">
        <ele>34.199219</ele>
        <time>2016-08-16T12:17:06.000Z</time>
      </trkpt>
      <trkpt lat="49.70059" lon="-1.88048">
        <ele>33.597656</ele>
        <time>2016-08-16T12:17:08.000Z</time>
      </trkpt>
      <trkpt lat="49.70058" lon="-1.88031">
        <ele>32.796875</ele>
        <time>2016-08-16T12:17:10.000Z</time>
      </trkpt>
      <trkpt lat="49.70056" lon="-1.88015">
        <ele>32.296875</ele>
        <time>2016-08-16T12:17:12.000Z</time>
      </trkpt>
      <trkpt lat="49.70051" lon="-1.87983">
        <ele>32.199219</ele>
        <time>2016-08-16T12:17:16.000Z</time>
      </trkpt>
      <trkpt lat="49.70037" lon="-1.87892">
        <ele>32.597656</ele>
        <time>2016-08-16T12:17:28.000Z</time>
      </trkpt>
      <trkpt lat="49.70037" lon="-1.87878">
        <ele>32.097656</ele>
        <time>2016-08-16T12:17:30.000Z</time>
      </trkpt>
      <trkpt lat="49.70044" lon="-1.87862">
        <ele>30.398438</ele>
        <time>2016-08-16T12:17:33.000Z</time>
      </trkpt>
      <trkpt lat="49.70051" lon="-1.87851">
        <ele>29</ele>
        <time>2016-08-16T12:17:35.000Z</time>
      </trkpt>
      <trkpt lat="49.70066" lon="-1.87823">
        <ele>28.398438</ele>
        <time>2016-08-16T12:17:39.000Z</time>
      </trkpt>
      <trkpt lat="49.70077" lon="-1.87813">
        <ele>28.097656</ele>
        <time>2016-08-16T12:17:41.000Z</time>
      </trkpt>
      <trkpt lat="49.70096" lon="-1.87796">
        <ele>28.898438</ele>
        <time>2016-08-16T12:17:45.000Z</time>
      </trkpt>
      <trkpt lat="49.70104" lon="-1.87784">
        <ele>30</ele>
        <time>2016-08-16T12:17:48.000Z</time>
      </trkpt>
      <trkpt lat="49.7011" lon="-1.87768">
        <ele>30.597656</ele>
        <time>2016-08-16T12:17:52.000Z</time>
      </trkpt>
      <trkpt lat="49.70112" lon="-1.87754">
        <ele>30.699219</ele>
        <time>2016-08-16T12:17:55.000Z</time>
      </trkpt>
      <trkpt lat="49.70112" lon="-1.87739">
        <ele>30.597656</ele>
        <time>2016-08-16T12:17:58.000Z</time>
      </trkpt>
      <trkpt lat="49.70112" lon="-1.87724">
        <ele>30</ele>
        <time>2016-08-16T12:18:01.000Z</time>
      </trkpt>
      <trkpt lat="49.70111" lon="-1.87689">
        <ele>28.699219</ele>
        <time>2016-08-16T12:18:06.000Z</time>
      </trkpt>
      <trkpt lat="49.70112" lon="-1.87671">
        <ele>28.199219</ele>
        <time>2016-08-16T12:18:08.000Z</time>
      </trkpt>
      <trkpt lat="49.70115" lon="-1.87653">
        <ele>28.097656</ele>
        <time>2016-08-16T12:18:10.000Z</time>
      </trkpt>
      <trkpt lat="49.70121" lon="-1.87621">
        <ele>27.199219</ele>
        <time>2016-08-16T12:18:15.000Z</time>
      </trkpt>
      <trkpt lat="49.70124" lon="-1.87604">
        <ele>26.699219</ele>
        <time>2016-08-16T12:18:19.000Z</time>
      </trkpt>
      <trkpt lat="49.70126" lon="-1.8759">
        <ele>26.296875</ele>
        <time>2016-08-16T12:18:22.000Z</time>
      </trkpt>
      <trkpt lat="49.70125" lon="-1.87575">
        <ele>26.699219</ele>
        <time>2016-08-16T12:18:26.000Z</time>
      </trkpt>
      <trkpt lat="49.70122" lon="-1.87562">
        <ele>27.296875</ele>
        <time>2016-08-16T12:18:32.000Z</time>
      </trkpt>
      <trkpt lat="49.70101" lon="-1.87481">
        <ele>30.597656</ele>
        <time>2016-08-16T12:18:51.000Z</time>
      </trkpt>
      <trkpt lat="49.70071" lon="-1.87387">
        <ele>33.5</ele>
        <time>2016-08-16T12:19:12.000Z</time>
      </trkpt>
      <trkpt lat="49.70056" lon="-1.87346">
        <ele>34.097656</ele>
        <time>2016-08-16T12:19:21.000Z</time>
      </trkpt>
      <trkpt lat="49.7005" lon="-1.87333">
        <ele>34.398438</ele>
        <time>2016-08-16T12:19:24.000Z</time>
      </trkpt>
      <trkpt lat="49.70043" lon="-1.87321">
        <ele>34.597656</ele>
        <time>2016-08-16T12:19:27.000Z</time>
      </trkpt>
      <trkpt lat="49.70036" lon="-1.8731">
        <ele>34.699219</ele>
        <time>2016-08-16T12:19:30.000Z</time>
      </trkpt>
      <trkpt lat="49.70021" lon="-1.87287">
        <ele>35</ele>
        <time>2016-08-16T12:19:36.000Z</time>
      </trkpt>
      <trkpt lat="49.6998" lon="-1.8721">
        <ele>35.5</ele>
        <time>2016-08-16T12:19:54.000Z</time>
      </trkpt>
      <trkpt lat="49.69974" lon="-1.87195">
        <ele>35.398438</ele>
        <time>2016-08-16T12:19:57.000Z</time>
      </trkpt>
      <trkpt lat="49.69955" lon="-1.87144">
        <ele>33.796875</ele>
        <time>2016-08-16T12:20:06.000Z</time>
      </trkpt>
      <trkpt lat="49.6995" lon="-1.87133">
        <ele>33.199219</ele>
        <time>2016-08-16T12:20:08.000Z</time>
      </trkpt>
      <trkpt lat="49.69944" lon="-1.8712">
        <ele>32.699219</ele>
        <time>2016-08-16T12:20:10.000Z</time>
      </trkpt>
      <trkpt lat="49.69936" lon="-1.87109">
        <ele>32.097656</ele>
        <time>2016-08-16T12:20:12.000Z</time>
      </trkpt>
      <trkpt lat="49.69926" lon="-1.871">
        <ele>31.097656</ele>
        <time>2016-08-16T12:20:14.000Z</time>
      </trkpt>
      <trkpt lat="49.69916" lon="-1.87093">
        <ele>29.296875</ele>
        <time>2016-08-16T12:20:16.000Z</time>
      </trkpt>
      <trkpt lat="49.69907" lon="-1.87082">
        <ele>28.898438</ele>
        <time>2016-08-16T12:20:18.000Z</time>
      </trkpt>
      <trkpt lat="49.69899" lon="-1.87064">
        <ele>28.699219</ele>
        <time>2016-08-16T12:20:20.000Z</time>
      </trkpt>
      <trkpt lat="49.69892" lon="-1.87045">
        <ele>28.699219</ele>
        <time>2016-08-16T12:20:22.000Z</time>
      </trkpt>
      <trkpt lat="49.69869" lon="-1.86991">
        <ele>28.597656</ele>
        <time>2016-08-16T12:20:28.000Z</time>
      </trkpt>
      <trkpt lat="49.69862" lon="-1.86976">
        <ele>28.5</ele>
        <time>2016-08-16T12:20:30.000Z</time>
      </trkpt>
      <trkpt lat="49.69857" lon="-1.86961">
        <ele>28.699219</ele>
        <time>2016-08-16T12:20:32.000Z</time>
      </trkpt>
      <trkpt lat="49.69844" lon="-1.86917">
        <ele>31.296875</ele>
        <time>2016-08-16T12:20:39.000Z</time>
      </trkpt>
      <trkpt lat="49.69849" lon="-1.86932">
        <ele>31.199219</ele>
        <time>2016-08-16T12:20:51.000Z</time>
      </trkpt>
      <trkpt lat="49.69852" lon="-1.86948">
        <ele>31</ele>
        <time>2016-08-16T12:20:54.000Z</time>
      </trkpt>
      <trkpt lat="49.69857" lon="-1.86965">
        <ele>31.097656</ele>
        <time>2016-08-16T12:20:57.000Z</time>
      </trkpt>
      <trkpt lat="49.69863" lon="-1.86981">
        <ele>29.898438</ele>
        <time>2016-08-16T12:21:00.000Z</time>
      </trkpt>
      <trkpt lat="49.6987" lon="-1.86994">
        <ele>28.5</ele>
        <time>2016-08-16T12:21:03.000Z</time>
      </trkpt>
      <trkpt lat="49.69878" lon="-1.87001">
        <ele>28</ele>
        <time>2016-08-16T12:21:09.000Z</time>
      </trkpt>
      <trkpt lat="49.69889" lon="-1.87002">
        <ele>27.699219</ele>
        <time>2016-08-16T12:21:16.000Z</time>
      </trkpt>
      <trkpt lat="49.69901" lon="-1.87001">
        <ele>25.5</ele>
        <time>2016-08-16T12:21:19.000Z</time>
      </trkpt>
      <trkpt lat="49.69912" lon="-1.86995">
        <ele>23.398438</ele>
        <time>2016-08-16T12:21:22.000Z</time>
      </trkpt>
      <trkpt lat="49.69923" lon="-1.86995">
        <ele>22</ele>
        <time>2016-08-16T12:21:24.000Z</time>
      </trkpt>
      <trkpt lat="49.69932" lon="-1.87002">
        <ele>21.597656</ele>
        <time>2016-08-16T12:21:26.000Z</time>
      </trkpt>
      <trkpt lat="49.6994" lon="-1.87008">
        <ele>21.796875</ele>
        <time>2016-08-16T12:21:28.000Z</time>
      </trkpt>
      <trkpt lat="49.6995" lon="-1.87013">
        <ele>22.199219</ele>
        <time>2016-08-16T12:21:30.000Z</time>
      </trkpt>
      <trkpt lat="49.6996" lon="-1.87016">
        <ele>23.5</ele>
        <time>2016-08-16T12:21:32.000Z</time>
      </trkpt>
      <trkpt lat="49.69981" lon="-1.87021">
        <ele>25.699219</ele>
        <time>2016-08-16T12:21:36.000Z</time>
      </trkpt>
      <trkpt lat="49.69991" lon="-1.87025">
        <ele>26.5</ele>
        <time>2016-08-16T12:21:38.000Z</time>
      </trkpt>
      <trkpt lat="49.7" lon="-1.87029">
        <ele>27.199219</ele>
        <time>2016-08-16T12:21:40.000Z</time>
      </trkpt>
      <trkpt lat="49.70011" lon="-1.87038">
        <ele>24.796875</ele>
        <time>2016-08-16T12:21:43.000Z</time>
      </trkpt>
      <trkpt lat="49.70066" lon="-1.87084">
        <ele>18.398438</ele>
        <time>2016-08-16T12:21:57.000Z</time>
      </trkpt>
      <trkpt lat="49.70077" lon="-1.87094">
        <ele>18.5</ele>
        <time>2016-08-16T12:21:59.000Z</time>
      </trkpt>
      <trkpt lat="49.70096" lon="-1.87117">
        <ele>19</ele>
        <time>2016-08-16T12:22:03.000Z</time>
      </trkpt>
      <trkpt lat="49.70105" lon="-1.87129">
        <ele>18.796875</ele>
        <time>2016-08-16T12:22:05.000Z</time>
      </trkpt>
      <trkpt lat="49.70114" lon="-1.87143">
        <ele>18.898438</ele>
        <time>2016-08-16T12:22:07.000Z</time>
      </trkpt>
      <trkpt lat="49.70122" lon="-1.87158">
        <ele>19.398438</ele>
        <time>2016-08-16T12:22:09.000Z</time>
      </trkpt>
      <trkpt lat="49.70136" lon="-1.87183">
        <ele>21.097656</ele>
        <time>2016-08-16T12:22:13.000Z</time>
      </trkpt>
      <trkpt lat="49.70153" lon="-1.87208">
        <ele>20.296875</ele>
        <time>2016-08-16T12:22:19.000Z</time>
      </trkpt>
      <trkpt lat="49.70163" lon="-1.87217">
        <ele>18.898438</ele>
        <time>2016-08-16T12:22:22.000Z</time>
      </trkpt>
      <trkpt lat="49.70172" lon="-1.87228">
        <ele>18.199219</ele>
        <time>2016-08-16T12:22:26.000Z</time>
      </trkpt>
      <trkpt lat="49.7019" lon="-1.87247">
        <ele>15.796875</ele>
        <time>2016-08-16T12:22:33.000Z</time>
      </trkpt>
      <trkpt lat="49.70199" lon="-1.87257">
        <ele>15.597656</ele>
        <time>2016-08-16T12:22:36.000Z</time>
      </trkpt>
      <trkpt lat="49.70208" lon="-1.87263">
        <ele>15</ele>
        <time>2016-08-16T12:22:38.000Z</time>
      </trkpt>
      <trkpt lat="49.70216" lon="-1.87271">
        <ele>14.898438</ele>
        <time>2016-08-16T12:22:40.000Z</time>
      </trkpt>
      <trkpt lat="49.70223" lon="-1.87282">
        <ele>15.199219</ele>
        <time>2016-08-16T12:22:42.000Z</time>
      </trkpt>
      <trkpt lat="49.70237" lon="-1.87303">
        <ele>16.796875</ele>
        <time>2016-08-16T12:22:46.000Z</time>
      </trkpt>
      <trkpt lat="49.70248" lon="-1.87315">
        <ele>16.699219</ele>
        <time>2016-08-16T12:22:49.000Z</time>
      </trkpt>
      <trkpt lat="49.70255" lon="-1.87324">
        <ele>16.796875</ele>
        <time>2016-08-16T12:22:51.000Z</time>
      </trkpt>
      <trkpt lat="49.70263" lon="-1.87334">
        <ele>15.597656</ele>
        <time>2016-08-16T12:22:53.000Z</time>
      </trkpt>
      <trkpt lat="49.70273" lon="-1.87342">
        <ele>15.199219</ele>
        <time>2016-08-16T12:22:55.000Z</time>
      </trkpt>
      <trkpt lat="49.70311" lon="-1.87375">
        <ele>13.296875</ele>
        <time>2016-08-16T12:23:03.000Z</time>
      </trkpt>
      <trkpt lat="49.7032" lon="-1.87379">
        <ele>13.097656</ele>
        <time>2016-08-16T12:23:05.000Z</time>
      </trkpt>
      <trkpt lat="49.7033" lon="-1.8738">
        <ele>13</ele>
        <time>2016-08-16T12:23:07.000Z</time>
      </trkpt>
      <trkpt lat="49.70339" lon="-1.87377">
        <ele>12.5</ele>
        <time>2016-08-16T12:23:09.000Z</time>
      </trkpt>
      <trkpt lat="49.70348" lon="-1.87372">
        <ele>13.199219</ele>
        <time>2016-08-16T12:23:12.000Z</time>
      </trkpt>
      <trkpt lat="49.70358" lon="-1.87374">
        <ele>14.597656</ele>
        <time>2016-08-16T12:23:25.000Z</time>
      </trkpt>
      <trkpt lat="49.70359" lon="-1.8736">
        <ele>15.296875</ele>
        <time>2016-08-16T12:24:00.000Z</time>
      </trkpt>
      <trkpt lat="49.7036" lon="-1.87345">
        <ele>15.796875</ele>
        <time>2016-08-16T12:24:05.000Z</time>
      </trkpt>
      <trkpt lat="49.70363" lon="-1.87331">
        <ele>17</ele>
        <time>2016-08-16T12:24:10.000Z</time>
      </trkpt>
      <trkpt lat="49.70366" lon="-1.87317">
        <ele>18.5</ele>
        <time>2016-08-16T12:24:14.000Z</time>
      </trkpt>
      <trkpt lat="49.70368" lon="-1.87303">
        <ele>20.398438</ele>
        <time>2016-08-16T12:24:18.000Z</time>
      </trkpt>
      <trkpt lat="49.70371" lon="-1.87287">
        <ele>22</ele>
        <time>2016-08-16T12:24:23.000Z</time>
      </trkpt>
      <trkpt lat="49.70376" lon="-1.87273">
        <ele>23.796875</ele>
        <time>2016-08-16T12:24:28.000Z</time>
      </trkpt>
      <trkpt lat="49.70382" lon="-1.87258">
        <ele>25.597656</ele>
        <time>2016-08-16T12:24:33.000Z</time>
      </trkpt>
      <trkpt lat="49.70388" lon="-1.87245">
        <ele>27.5</ele>
        <time>2016-08-16T12:24:38.000Z</time>
      </trkpt>
      <trkpt lat="49.70393" lon="-1.87231">
        <ele>29</ele>
        <time>2016-08-16T12:24:43.000Z</time>
      </trkpt>
      <trkpt lat="49.70396" lon="-1.87217">
        <ele>29.898438</ele>
        <time>2016-08-16T12:24:49.000Z</time>
      </trkpt>
      <trkpt lat="49.7041" lon="-1.87145">
        <ele>37.199219</ele>
        <time>2016-08-16T12:25:14.000Z</time>
      </trkpt>
      <trkpt lat="49.70415" lon="-1.87131">
        <ele>38.898438</ele>
        <time>2016-08-16T12:25:20.000Z</time>
      </trkpt>
      <trkpt lat="49.70421" lon="-1.87118">
        <ele>40.398438</ele>
        <time>2016-08-16T12:25:26.000Z</time>
      </trkpt>
      <trkpt lat="49.70427" lon="-1.87107">
        <ele>42.199219</ele>
        <time>2016-08-16T12:25:32.000Z</time>
      </trkpt>
      <trkpt lat="49.70432" lon="-1.87093">
        <ele>44.597656</ele>
        <time>2016-08-16T12:25:38.000Z</time>
      </trkpt>
      <trkpt lat="49.70425" lon="-1.87083">
        <ele>46.398438</ele>
        <time>2016-08-16T12:25:45.000Z</time>
      </trkpt>
      <trkpt lat="49.70415" lon="-1.87079">
        <ele>47.296875</ele>
        <time>2016-08-16T12:25:51.000Z</time>
      </trkpt>
      <trkpt lat="49.70411" lon="-1.87066">
        <ele>48</ele>
        <time>2016-08-16T12:25:56.000Z</time>
      </trkpt>
      <trkpt lat="49.70411" lon="-1.87052">
        <ele>48.398438</ele>
        <time>2016-08-16T12:26:01.000Z</time>
      </trkpt>
      <trkpt lat="49.70412" lon="-1.87037">
        <ele>49.199219</ele>
        <time>2016-08-16T12:26:06.000Z</time>
      </trkpt>
      <trkpt lat="49.70411" lon="-1.87023">
        <ele>49.898438</ele>
        <time>2016-08-16T12:26:10.000Z</time>
      </trkpt>
      <trkpt lat="49.7041" lon="-1.87008">
        <ele>50.597656</ele>
        <time>2016-08-16T12:26:14.000Z</time>
      </trkpt>
      <trkpt lat="49.70408" lon="-1.86994">
        <ele>51.796875</ele>
        <time>2016-08-16T12:26:18.000Z</time>
      </trkpt>
      <trkpt lat="49.70401" lon="-1.86964">
        <ele>53.199219</ele>
        <time>2016-08-16T12:26:26.000Z</time>
      </trkpt>
      <trkpt lat="49.70396" lon="-1.8695">
        <ele>54.597656</ele>
        <time>2016-08-16T12:26:30.000Z</time>
      </trkpt>
      <trkpt lat="49.70393" lon="-1.86935">
        <ele>55.699219</ele>
        <time>2016-08-16T12:26:34.000Z</time>
      </trkpt>
      <trkpt lat="49.70392" lon="-1.86919">
        <ele>56.597656</ele>
        <time>2016-08-16T12:26:38.000Z</time>
      </trkpt>
      <trkpt lat="49.70389" lon="-1.86905">
        <ele>57</ele>
        <time>2016-08-16T12:26:42.000Z</time>
      </trkpt>
      <trkpt lat="49.70377" lon="-1.86843">
        <ele>60</ele>
        <time>2016-08-16T12:26:59.000Z</time>
      </trkpt>
      <trkpt lat="49.70365" lon="-1.86798">
        <ele>60.597656</ele>
        <time>2016-08-16T12:27:10.000Z</time>
      </trkpt>
      <trkpt lat="49.70361" lon="-1.86785">
        <ele>63.898438</ele>
        <time>2016-08-16T12:27:16.000Z</time>
      </trkpt>
      <trkpt lat="49.7035" lon="-1.86758">
        <ele>63.296875</ele>
        <time>2016-08-16T12:28:08.000Z</time>
      </trkpt>
      <trkpt lat="49.70346" lon="-1.86743">
        <ele>63.199219</ele>
        <time>2016-08-16T12:28:12.000Z</time>
      </trkpt>
      <trkpt lat="49.70342" lon="-1.86727">
        <ele>63.199219</ele>
        <time>2016-08-16T12:28:16.000Z</time>
      </trkpt>
      <trkpt lat="49.70337" lon="-1.86698">
        <ele>63.296875</ele>
        <time>2016-08-16T12:28:22.000Z</time>
      </trkpt>
      <trkpt lat="49.70331" lon="-1.8665">
        <ele>63.296875</ele>
        <time>2016-08-16T12:28:31.000Z</time>
      </trkpt>
      <trkpt lat="49.7033" lon="-1.86633">
        <ele>63.199219</ele>
        <time>2016-08-16T12:28:35.000Z</time>
      </trkpt>
      <trkpt lat="49.7033" lon="-1.86617">
        <ele>63</ele>
        <time>2016-08-16T12:28:39.000Z</time>
      </trkpt>
      <trkpt lat="49.70329" lon="-1.86601">
        <ele>62.597656</ele>
        <time>2016-08-16T12:28:43.000Z</time>
      </trkpt>
      <trkpt lat="49.70326" lon="-1.86567">
        <ele>62</ele>
        <time>2016-08-16T12:28:49.000Z</time>
      </trkpt>
      <trkpt lat="49.70323" lon="-1.86549">
        <ele>62</ele>
        <time>2016-08-16T12:28:52.000Z</time>
      </trkpt>
      <trkpt lat="49.70319" lon="-1.86532">
        <ele>61.597656</ele>
        <time>2016-08-16T12:28:55.000Z</time>
      </trkpt>
      <trkpt lat="49.70315" lon="-1.86516">
        <ele>61.597656</ele>
        <time>2016-08-16T12:28:58.000Z</time>
      </trkpt>
      <trkpt lat="49.70309" lon="-1.86501">
        <ele>61.597656</ele>
        <time>2016-08-16T12:29:01.000Z</time>
      </trkpt>
      <trkpt lat="49.7029" lon="-1.86459">
        <ele>61.5</ele>
        <time>2016-08-16T12:29:10.000Z</time>
      </trkpt>
      <trkpt lat="49.70282" lon="-1.86446">
        <ele>61.199219</ele>
        <time>2016-08-16T12:29:13.000Z</time>
      </trkpt>
      <trkpt lat="49.70272" lon="-1.86433">
        <ele>61</ele>
        <time>2016-08-16T12:29:16.000Z</time>
      </trkpt>
      <trkpt lat="49.70265" lon="-1.86424">
        <ele>60.699219</ele>
        <time>2016-08-16T12:29:18.000Z</time>
      </trkpt>
      <trkpt lat="49.70257" lon="-1.86415">
        <ele>59.699219</ele>
        <time>2016-08-16T12:29:20.000Z</time>
      </trkpt>
      <trkpt lat="49.70248" lon="-1.86406">
        <ele>59</ele>
        <time>2016-08-16T12:29:22.000Z</time>
      </trkpt>
      <trkpt lat="49.7024" lon="-1.86394">
        <ele>58.597656</ele>
        <time>2016-08-16T12:29:24.000Z</time>
      </trkpt>
      <trkpt lat="49.70233" lon="-1.86381">
        <ele>58.199219</ele>
        <time>2016-08-16T12:29:26.000Z</time>
      </trkpt>
      <trkpt lat="49.70228" lon="-1.86365">
        <ele>57.898438</ele>
        <time>2016-08-16T12:29:28.000Z</time>
      </trkpt>
      <trkpt lat="49.70224" lon="-1.86349">
        <ele>58</ele>
        <time>2016-08-16T12:29:30.000Z</time>
      </trkpt>
      <trkpt lat="49.70184" lon="-1.86161">
        <ele>57.699219</ele>
        <time>2016-08-16T12:30:26.000Z</time>
      </trkpt>
      <trkpt lat="49.70182" lon="-1.86147">
        <ele>58.5</ele>
        <time>2016-08-16T12:30:29.000Z</time>
      </trkpt>
      <trkpt lat="49.7018" lon="-1.86133">
        <ele>59.199219</ele>
        <time>2016-08-16T12:30:32.000Z</time>
      </trkpt>
      <trkpt lat="49.70179" lon="-1.86115">
        <ele>59.796875</ele>
        <time>2016-08-16T12:30:36.000Z</time>
      </trkpt>
      <trkpt lat="49.70179" lon="-1.86081">
        <ele>60.199219</ele>
        <time>2016-08-16T12:30:44.000Z</time>
      </trkpt>
      <trkpt lat="49.7018" lon="-1.86064">
        <ele>60.699219</ele>
        <time>2016-08-16T12:30:48.000Z</time>
      </trkpt>
      <trkpt lat="49.70181" lon="-1.86047">
        <ele>61.199219</ele>
        <time>2016-08-16T12:30:52.000Z</time>
      </trkpt>
      <trkpt lat="49.70185" lon="-1.86016">
        <ele>62</ele>
        <time>2016-08-16T12:30:59.000Z</time>
      </trkpt>
      <trkpt lat="49.70188" lon="-1.86001">
        <ele>62.097656</ele>
        <time>2016-08-16T12:31:02.000Z</time>
      </trkpt>
      <trkpt lat="49.70194" lon="-1.85971">
        <ele>61.5</ele>
        <time>2016-08-16T12:31:08.000Z</time>
      </trkpt>
      <trkpt lat="49.70198" lon="-1.85957">
        <ele>61.796875</ele>
        <time>2016-08-16T12:31:11.000Z</time>
      </trkpt>
      <trkpt lat="49.70204" lon="-1.85946">
        <ele>62.199219</ele>
        <time>2016-08-16T12:31:14.000Z</time>
      </trkpt>
      <trkpt lat="49.7021" lon="-1.85935">
        <ele>62.898438</ele>
        <time>2016-08-16T12:31:17.000Z</time>
      </trkpt>
      <trkpt lat="49.70216" lon="-1.8592">
        <ele>63.699219</ele>
        <time>2016-08-16T12:31:21.000Z</time>
      </trkpt>
      <trkpt lat="49.7022" lon="-1.85903">
        <ele>64.597656</ele>
        <time>2016-08-16T12:31:25.000Z</time>
      </trkpt>
      <trkpt lat="49.70223" lon="-1.85886">
        <ele>65.597656</ele>
        <time>2016-08-16T12:31:29.000Z</time>
      </trkpt>
      <trkpt lat="49.70241" lon="-1.85751">
        <ele>73.796875</ele>
        <time>2016-08-16T12:32:05.000Z</time>
      </trkpt>
      <trkpt lat="49.7029" lon="-1.85489">
        <ele>69.5</ele>
        <time>2016-08-16T12:32:54.000Z</time>
      </trkpt>
      <trkpt lat="49.70305" lon="-1.85426">
        <ele>66.296875</ele>
        <time>2016-08-16T12:33:00.000Z</time>
      </trkpt>
      <trkpt lat="49.7031" lon="-1.85408">
        <ele>65.398438</ele>
        <time>2016-08-16T12:33:02.000Z</time>
      </trkpt>
      <trkpt lat="49.70318" lon="-1.85394">
        <ele>64.398438</ele>
        <time>2016-08-16T12:33:04.000Z</time>
      </trkpt>
      <trkpt lat="49.7033" lon="-1.85388">
        <ele>63.398438</ele>
        <time>2016-08-16T12:33:06.000Z</time>
      </trkpt>
      <trkpt lat="49.70343" lon="-1.85384">
        <ele>62.597656</ele>
        <time>2016-08-16T12:33:08.000Z</time>
      </trkpt>
      <trkpt lat="49.70358" lon="-1.85381">
        <ele>61.699219</ele>
        <time>2016-08-16T12:33:10.000Z</time>
      </trkpt>
      <trkpt lat="49.70373" lon="-1.85376">
        <ele>60.699219</ele>
        <time>2016-08-16T12:33:12.000Z</time>
      </trkpt>
      <trkpt lat="49.70387" lon="-1.85366">
        <ele>58.898438</ele>
        <time>2016-08-16T12:33:14.000Z</time>
      </trkpt>
      <trkpt lat="49.70399" lon="-1.85352">
        <ele>57.296875</ele>
        <time>2016-08-16T12:33:16.000Z</time>
      </trkpt>
      <trkpt lat="49.70408" lon="-1.85334">
        <ele>55.398438</ele>
        <time>2016-08-16T12:33:18.000Z</time>
      </trkpt>
      <trkpt lat="49.70411" lon="-1.85313">
        <ele>54.097656</ele>
        <time>2016-08-16T12:33:20.000Z</time>
      </trkpt>
      <trkpt lat="49.70418" lon="-1.85294">
        <ele>52.699219</ele>
        <time>2016-08-16T12:33:22.000Z</time>
      </trkpt>
      <trkpt lat="49.70421" lon="-1.85275">
        <ele>51.097656</ele>
        <time>2016-08-16T12:33:24.000Z</time>
      </trkpt>
      <trkpt lat="49.7042" lon="-1.85257">
        <ele>49.796875</ele>
        <time>2016-08-16T12:33:26.000Z</time>
      </trkpt>
      <trkpt lat="49.70419" lon="-1.85241">
        <ele>48</ele>
        <time>2016-08-16T12:33:28.000Z</time>
      </trkpt>
      <trkpt lat="49.70414" lon="-1.85226">
        <ele>47.097656</ele>
        <time>2016-08-16T12:33:32.000Z</time>
      </trkpt>
      <trkpt lat="49.70402" lon="-1.85218">
        <ele>46.398438</ele>
        <time>2016-08-16T12:33:35.000Z</time>
      </trkpt>
      <trkpt lat="49.70393" lon="-1.85207">
        <ele>45.699219</ele>
        <time>2016-08-16T12:33:37.000Z</time>
      </trkpt>
      <trkpt lat="49.70386" lon="-1.85191">
        <ele>44.699219</ele>
        <time>2016-08-16T12:33:39.000Z</time>
      </trkpt>
      <trkpt lat="49.70319" lon="-1.85045">
        <ele>36.398438</ele>
        <time>2016-08-16T12:33:53.000Z</time>
      </trkpt>
      <trkpt lat="49.70315" lon="-1.85033">
        <ele>35.898438</ele>
        <time>2016-08-16T12:33:54.000Z</time>
      </trkpt>
      <trkpt lat="49.70286" lon="-1.84936">
        <ele>31</ele>
        <time>2016-08-16T12:34:02.000Z</time>
      </trkpt>
      <trkpt lat="49.70283" lon="-1.84917">
        <ele>30.199219</ele>
        <time>2016-08-16T12:34:04.000Z</time>
      </trkpt>
      <trkpt lat="49.70281" lon="-1.84897">
        <ele>29.296875</ele>
        <time>2016-08-16T12:34:06.000Z</time>
      </trkpt>
      <trkpt lat="49.7028" lon="-1.84876">
        <ele>28.5</ele>
        <time>2016-08-16T12:34:08.000Z</time>
      </trkpt>
      <trkpt lat="49.7028" lon="-1.84853">
        <ele>27.699219</ele>
        <time>2016-08-16T12:34:10.000Z</time>
      </trkpt>
      <trkpt lat="49.7028" lon="-1.84829">
        <ele>27</ele>
        <time>2016-08-16T12:34:12.000Z</time>
      </trkpt>
      <trkpt lat="49.70279" lon="-1.84805">
        <ele>26.296875</ele>
        <time>2016-08-16T12:34:14.000Z</time>
      </trkpt>
      <trkpt lat="49.7028" lon="-1.84781">
        <ele>25.398438</ele>
        <time>2016-08-16T12:34:16.000Z</time>
      </trkpt>
      <trkpt lat="49.70283" lon="-1.84757">
        <ele>24.5</ele>
        <time>2016-08-16T12:34:18.000Z</time>
      </trkpt>
      <trkpt lat="49.70292" lon="-1.84685">
        <ele>21.699219</ele>
        <time>2016-08-16T12:34:24.000Z</time>
      </trkpt>
      <trkpt lat="49.70304" lon="-1.84613">
        <ele>18.5</ele>
        <time>2016-08-16T12:34:30.000Z</time>
      </trkpt>
      <trkpt lat="49.7031" lon="-1.8459">
        <ele>17.597656</ele>
        <time>2016-08-16T12:34:32.000Z</time>
      </trkpt>
      <trkpt lat="49.70318" lon="-1.84568">
        <ele>16.796875</ele>
        <time>2016-08-16T12:34:34.000Z</time>
      </trkpt>
      <trkpt lat="49.70328" lon="-1.84549">
        <ele>16.199219</ele>
        <time>2016-08-16T12:34:36.000Z</time>
      </trkpt>
      <trkpt lat="49.70335" lon="-1.84534">
        <ele>15.296875</ele>
        <time>2016-08-16T12:34:38.000Z</time>
      </trkpt>
      <trkpt lat="49.70332" lon="-1.8452">
        <ele>14.796875</ele>
        <time>2016-08-16T12:34:41.000Z</time>
      </trkpt>
      <trkpt lat="49.70324" lon="-1.84504">
        <ele>14.5</ele>
        <time>2016-08-16T12:34:44.000Z</time>
      </trkpt>
      <trkpt lat="49.70318" lon="-1.84492">
        <ele>14</ele>
        <time>2016-08-16T12:34:46.000Z</time>
      </trkpt>
      <trkpt lat="49.70314" lon="-1.8448">
        <ele>13.097656</ele>
        <time>2016-08-16T12:34:48.000Z</time>
      </trkpt>
      <trkpt lat="49.70309" lon="-1.84461">
        <ele>12.097656</ele>
        <time>2016-08-16T12:34:51.000Z</time>
      </trkpt>
      <trkpt lat="49.70307" lon="-1.8444">
        <ele>10.199219</ele>
        <time>2016-08-16T12:34:54.000Z</time>
      </trkpt>
      <trkpt lat="49.70314" lon="-1.84423">
        <ele>8.296875</ele>
        <time>2016-08-16T12:34:57.000Z</time>
      </trkpt>
      <trkpt lat="49.70322" lon="-1.84409">
        <ele>6.5</ele>
        <time>2016-08-16T12:35:00.000Z</time>
      </trkpt>
      <trkpt lat="49.7033" lon="-1.84395">
        <ele>5.597656</ele>
        <time>2016-08-16T12:35:03.000Z</time>
      </trkpt>
      <trkpt lat="49.70341" lon="-1.84383">
        <ele>5.597656</ele>
        <time>2016-08-16T12:35:06.000Z</time>
      </trkpt>
      <trkpt lat="49.7035" lon="-1.84378">
        <ele>5.597656</ele>
        <time>2016-08-16T12:35:08.000Z</time>
      </trkpt>
      <trkpt lat="49.70376" lon="-1.84364">
        <ele>5.597656</ele>
        <time>2016-08-16T12:35:14.000Z</time>
      </trkpt>
      <trkpt lat="49.70385" lon="-1.8436">
        <ele>5.5</ele>
        <time>2016-08-16T12:35:16.000Z</time>
      </trkpt>
      <trkpt lat="49.70394" lon="-1.8436">
        <ele>5.199219</ele>
        <time>2016-08-16T12:35:18.000Z</time>
      </trkpt>
      <trkpt lat="49.70407" lon="-1.84363">
        <ele>5.097656</ele>
        <time>2016-08-16T12:35:21.000Z</time>
      </trkpt>
      <trkpt lat="49.70416" lon="-1.84364">
        <ele>7</ele>
        <time>2016-08-16T12:35:23.000Z</time>
      </trkpt>
      <trkpt lat="49.70429" lon="-1.84364">
        <ele>7.898438</ele>
        <time>2016-08-16T12:35:26.000Z</time>
      </trkpt>
      <trkpt lat="49.70437" lon="-1.84352">
        <ele>8.296875</ele>
        <time>2016-08-16T12:35:29.000Z</time>
      </trkpt>
      <trkpt lat="49.70444" lon="-1.84339">
        <ele>8.5</ele>
        <time>2016-08-16T12:35:32.000Z</time>
      </trkpt>
      <trkpt lat="49.70454" lon="-1.8433">
        <ele>8.699219</ele>
        <time>2016-08-16T12:35:35.000Z</time>
      </trkpt>
      <trkpt lat="49.70464" lon="-1.84326">
        <ele>9</ele>
        <time>2016-08-16T12:35:38.000Z</time>
      </trkpt>
      <trkpt lat="49.70528" lon="-1.84304">
        <ele>10.898438</ele>
        <time>2016-08-16T12:35:58.000Z</time>
      </trkpt>
      <trkpt lat="49.70547" lon="-1.843">
        <ele>11.199219</ele>
        <time>2016-08-16T12:36:04.000Z</time>
      </trkpt>
      <trkpt lat="49.70552" lon="-1.84287">
        <ele>11</ele>
        <time>2016-08-16T12:36:09.000Z</time>
      </trkpt>
      <trkpt lat="49.70544" lon="-1.84274">
        <ele>10.898438</ele>
        <time>2016-08-16T12:36:14.000Z</time>
      </trkpt>
      <trkpt lat="49.70537" lon="-1.84265">
        <ele>11.097656</ele>
        <time>2016-08-16T12:36:19.000Z</time>
      </trkpt>
      <trkpt lat="49.70528" lon="-1.84253">
        <ele>10.898438</ele>
        <time>2016-08-16T12:37:40.000Z</time>
      </trkpt>
      <trkpt lat="49.70501" lon="-1.84212">
        <ele>9.898438</ele>
        <time>2016-08-16T12:37:52.000Z</time>
      </trkpt>
      <trkpt lat="49.70399" lon="-1.84052">
        <ele>10.898438</ele>
        <time>2016-08-16T12:38:31.000Z</time>
      </trkpt>
      <trkpt lat="49.70394" lon="-1.84039">
        <ele>10.699219</ele>
        <time>2016-08-16T12:38:34.000Z</time>
      </trkpt>
      <trkpt lat="49.7039" lon="-1.84025">
        <ele>10.699219</ele>
        <time>2016-08-16T12:38:37.000Z</time>
      </trkpt>
      <trkpt lat="49.70391" lon="-1.84009">
        <ele>10.398438</ele>
        <time>2016-08-16T12:38:40.000Z</time>
      </trkpt>
      <trkpt lat="49.70396" lon="-1.83993">
        <ele>10.296875</ele>
        <time>2016-08-16T12:38:43.000Z</time>
      </trkpt>
      <trkpt lat="49.70431" lon="-1.83892">
        <ele>11.199219</ele>
        <time>2016-08-16T12:39:01.000Z</time>
      </trkpt>
      <trkpt lat="49.70442" lon="-1.83857">
        <ele>11.796875</ele>
        <time>2016-08-16T12:39:07.000Z</time>
      </trkpt>
      <trkpt lat="49.70449" lon="-1.83841">
        <ele>11.699219</ele>
        <time>2016-08-16T12:39:10.000Z</time>
      </trkpt>
      <trkpt lat="49.70513" lon="-1.83699">
        <ele>9.398438</ele>
        <time>2016-08-16T12:39:37.000Z</time>
      </trkpt>
      <trkpt lat="49.70535" lon="-1.83661">
        <ele>8.597656</ele>
        <time>2016-08-16T12:39:46.000Z</time>
      </trkpt>
      <trkpt lat="49.70542" lon="-1.83651">
        <ele>8.5</ele>
        <time>2016-08-16T12:39:49.000Z</time>
      </trkpt>
      <trkpt lat="49.7055" lon="-1.83643">
        <ele>8.398438</ele>
        <time>2016-08-16T12:39:53.000Z</time>
      </trkpt>
      <trkpt lat="49.7056" lon="-1.83638">
        <ele>6.097656</ele>
        <time>2016-08-16T12:40:00.000Z</time>
      </trkpt>
      <trkpt lat="49.70569" lon="-1.83644">
        <ele>6</ele>
        <time>2016-08-16T12:42:27.000Z</time>
      </trkpt>
      <trkpt lat="49.70566" lon="-1.83659">
        <ele>6.199219</ele>
        <time>2016-08-16T12:42:31.000Z</time>
      </trkpt>
      <trkpt lat="49.70566" lon="-1.83674">
        <ele>6.597656</ele>
        <time>2016-08-16T12:42:34.000Z</time>
      </trkpt>
      <trkpt lat="49.70566" lon="-1.83689">
        <ele>6.796875</ele>
        <time>2016-08-16T12:42:37.000Z</time>
      </trkpt>
      <trkpt lat="49.70565" lon="-1.83707">
        <ele>7</ele>
        <time>2016-08-16T12:42:41.000Z</time>
      </trkpt>
      <trkpt lat="49.70563" lon="-1.83721">
        <ele>7.199219</ele>
        <time>2016-08-16T12:42:47.000Z</time>
      </trkpt>
      <trkpt lat="49.70557" lon="-1.83731">
        <ele>7.5</ele>
        <time>2016-08-16T12:42:52.000Z</time>
      </trkpt>
      <trkpt lat="49.7055" lon="-1.83742">
        <ele>7.5</ele>
        <time>2016-08-16T12:42:58.000Z</time>
      </trkpt>
      <trkpt lat="49.70536" lon="-1.83762">
        <ele>8</ele>
        <time>2016-08-16T12:43:07.000Z</time>
      </trkpt>
      <trkpt lat="49.70497" lon="-1.83819">
        <ele>8.597656</ele>
        <time>2016-08-16T12:43:22.000Z</time>
      </trkpt>
      <trkpt lat="49.70491" lon="-1.83832">
        <ele>8.398438</ele>
        <time>2016-08-16T12:43:25.000Z</time>
      </trkpt>
      <trkpt lat="49.70487" lon="-1.83848">
        <ele>8.597656</ele>
        <time>2016-08-16T12:43:28.000Z</time>
      </trkpt>
      <trkpt lat="49.70484" lon="-1.83864">
        <ele>8.597656</ele>
        <time>2016-08-16T12:43:31.000Z</time>
      </trkpt>
      <trkpt lat="49.70479" lon="-1.8388">
        <ele>8.296875</ele>
        <time>2016-08-16T12:43:34.000Z</time>
      </trkpt>
      <trkpt lat="49.70465" lon="-1.83923">
        <ele>8.097656</ele>
        <time>2016-08-16T12:43:43.000Z</time>
      </trkpt>
      <trkpt lat="49.70457" lon="-1.83954">
        <ele>8.199219</ele>
        <time>2016-08-16T12:43:51.000Z</time>
      </trkpt>
      <trkpt lat="49.7046" lon="-1.83969">
        <ele>7.597656</ele>
        <time>2016-08-16T12:43:57.000Z</time>
      </trkpt>
      <trkpt lat="49.70457" lon="-1.83982">
        <ele>8.199219</ele>
        <time>2016-08-16T12:44:06.000Z</time>
      </trkpt>
      <trkpt lat="49.70443" lon="-1.84042">
        <ele>10.398438</ele>
        <time>2016-08-16T12:44:19.000Z</time>
      </trkpt>
      <trkpt lat="49.70433" lon="-1.84074">
        <ele>10.898438</ele>
        <time>2016-08-16T12:44:27.000Z</time>
      </trkpt>
      <trkpt lat="49.70436" lon="-1.84088">
        <ele>11.097656</ele>
        <time>2016-08-16T12:44:32.000Z</time>
      </trkpt>
      <trkpt lat="49.70441" lon="-1.84102">
        <ele>11</ele>
        <time>2016-08-16T12:44:45.000Z</time>
      </trkpt>
      <trkpt lat="49.70446" lon="-1.84114">
        <ele>11</ele>
        <time>2016-08-16T12:44:49.000Z</time>
      </trkpt>
      <trkpt lat="49.70452" lon="-1.84125">
        <ele>10.898438</ele>
        <time>2016-08-16T12:44:52.000Z</time>
      </trkpt>
      <trkpt lat="49.70459" lon="-1.84135">
        <ele>10.699219</ele>
        <time>2016-08-16T12:44:55.000Z</time>
      </trkpt>
      <trkpt lat="49.70459" lon="-1.8415">
        <ele>11.199219</ele>
        <time>2016-08-16T12:45:01.000Z</time>
      </trkpt>
      <trkpt lat="49.70453" lon="-1.8416">
        <ele>11.5</ele>
        <time>2016-08-16T12:45:05.000Z</time>
      </trkpt>
      <trkpt lat="49.70386" lon="-1.84277">
        <ele>14</ele>
        <time>2016-08-16T12:45:36.000Z</time>
      </trkpt>
      <trkpt lat="49.70379" lon="-1.84286">
        <ele>14.296875</ele>
        <time>2016-08-16T12:45:39.000Z</time>
      </trkpt>
      <trkpt lat="49.70372" lon="-1.84294">
        <ele>14.796875</ele>
        <time>2016-08-16T12:45:42.000Z</time>
      </trkpt>
      <trkpt lat="49.70364" lon="-1.84302">
        <ele>15.296875</ele>
        <time>2016-08-16T12:45:45.000Z</time>
      </trkpt>
      <trkpt lat="49.70356" lon="-1.84312">
        <ele>15.699219</ele>
        <time>2016-08-16T12:45:48.000Z</time>
      </trkpt>
      <trkpt lat="49.70324" lon="-1.84346">
        <ele>22.597656</ele>
        <time>2016-08-16T12:46:02.000Z</time>
      </trkpt>
      <trkpt lat="49.70327" lon="-1.84363">
        <ele>22.199219</ele>
        <time>2016-08-16T12:46:24.000Z</time>
      </trkpt>
      <trkpt lat="49.70334" lon="-1.84377">
        <ele>21.796875</ele>
        <time>2016-08-16T12:46:28.000Z</time>
      </trkpt>
      <trkpt lat="49.70333" lon="-1.84394">
        <ele>21.699219</ele>
        <time>2016-08-16T12:46:33.000Z</time>
      </trkpt>
      <trkpt lat="49.70328" lon="-1.84405">
        <ele>21.597656</ele>
        <time>2016-08-16T12:46:37.000Z</time>
      </trkpt>
      <trkpt lat="49.7032" lon="-1.84419">
        <ele>21.5</ele>
        <time>2016-08-16T12:46:41.000Z</time>
      </trkpt>
      <trkpt lat="49.70313" lon="-1.8443">
        <ele>22.296875</ele>
        <time>2016-08-16T12:46:44.000Z</time>
      </trkpt>
      <trkpt lat="49.70311" lon="-1.84447">
        <ele>22.796875</ele>
        <time>2016-08-16T12:46:48.000Z</time>
      </trkpt>
      <trkpt lat="49.70313" lon="-1.84461">
        <ele>23.097656</ele>
        <time>2016-08-16T12:46:51.000Z</time>
      </trkpt>
      <trkpt lat="49.70317" lon="-1.84474">
        <ele>23</ele>
        <time>2016-08-16T12:46:54.000Z</time>
      </trkpt>
      <trkpt lat="49.70323" lon="-1.8449">
        <ele>22.796875</ele>
        <time>2016-08-16T12:46:58.000Z</time>
      </trkpt>
      <trkpt lat="49.70329" lon="-1.84502">
        <ele>22.699219</ele>
        <time>2016-08-16T12:47:01.000Z</time>
      </trkpt>
      <trkpt lat="49.70335" lon="-1.84513">
        <ele>22.597656</ele>
        <time>2016-08-16T12:47:04.000Z</time>
      </trkpt>
      <trkpt lat="49.7034" lon="-1.84525">
        <ele>22.5</ele>
        <time>2016-08-16T12:47:07.000Z</time>
      </trkpt>
      <trkpt lat="49.70335" lon="-1.84542">
        <ele>22.699219</ele>
        <time>2016-08-16T12:47:11.000Z</time>
      </trkpt>
      <trkpt lat="49.70328" lon="-1.84554">
        <ele>22.898438</ele>
        <time>2016-08-16T12:47:14.000Z</time>
      </trkpt>
      <trkpt lat="49.70323" lon="-1.84567">
        <ele>23.199219</ele>
        <time>2016-08-16T12:47:17.000Z</time>
      </trkpt>
      <trkpt lat="49.70314" lon="-1.84593">
        <ele>23.5</ele>
        <time>2016-08-16T12:47:23.000Z</time>
      </trkpt>
      <trkpt lat="49.7031" lon="-1.84606">
        <ele>23.898438</ele>
        <time>2016-08-16T12:47:26.000Z</time>
      </trkpt>
      <trkpt lat="49.70304" lon="-1.84634">
        <ele>24.796875</ele>
        <time>2016-08-16T12:47:32.000Z</time>
      </trkpt>
      <trkpt lat="49.70283" lon="-1.84774">
        <ele>30.5</ele>
        <time>2016-08-16T12:48:02.000Z</time>
      </trkpt>
      <trkpt lat="49.70282" lon="-1.84793">
        <ele>31.199219</ele>
        <time>2016-08-16T12:48:06.000Z</time>
      </trkpt>
      <trkpt lat="49.70281" lon="-1.84807">
        <ele>31.796875</ele>
        <time>2016-08-16T12:48:09.000Z</time>
      </trkpt>
      <trkpt lat="49.70282" lon="-1.84821">
        <ele>32.5</ele>
        <time>2016-08-16T12:48:12.000Z</time>
      </trkpt>
      <trkpt lat="49.70283" lon="-1.84835">
        <ele>33.199219</ele>
        <time>2016-08-16T12:48:15.000Z</time>
      </trkpt>
      <trkpt lat="49.70283" lon="-1.84849">
        <ele>33.898438</ele>
        <time>2016-08-16T12:48:18.000Z</time>
      </trkpt>
      <trkpt lat="49.70281" lon="-1.84898">
        <ele>36.199219</ele>
        <time>2016-08-16T12:48:29.000Z</time>
      </trkpt>
      <trkpt lat="49.70283" lon="-1.84916">
        <ele>36.699219</ele>
        <time>2016-08-16T12:48:33.000Z</time>
      </trkpt>
      <trkpt lat="49.70286" lon="-1.8493">
        <ele>37.296875</ele>
        <time>2016-08-16T12:48:36.000Z</time>
      </trkpt>
      <trkpt lat="49.70293" lon="-1.84961">
        <ele>38.097656</ele>
        <time>2016-08-16T12:48:43.000Z</time>
      </trkpt>
      <trkpt lat="49.703" lon="-1.84987">
        <ele>39</ele>
        <time>2016-08-16T12:48:49.000Z</time>
      </trkpt>
      <trkpt lat="49.70321" lon="-1.85051">
        <ele>41.699219</ele>
        <time>2016-08-16T12:49:04.000Z</time>
      </trkpt>
      <trkpt lat="49.70327" lon="-1.85066">
        <ele>42.5</ele>
        <time>2016-08-16T12:49:08.000Z</time>
      </trkpt>
      <trkpt lat="49.7034" lon="-1.85093">
        <ele>43.898438</ele>
        <time>2016-08-16T12:49:16.000Z</time>
      </trkpt>
      <trkpt lat="49.70347" lon="-1.85105">
        <ele>44.597656</ele>
        <time>2016-08-16T12:49:20.000Z</time>
      </trkpt>
      <trkpt lat="49.70353" lon="-1.85119">
        <ele>45.296875</ele>
        <time>2016-08-16T12:49:24.000Z</time>
      </trkpt>
      <trkpt lat="49.70364" lon="-1.85148">
        <ele>46.898438</ele>
        <time>2016-08-16T12:49:32.000Z</time>
      </trkpt>
      <trkpt lat="49.70371" lon="-1.85161">
        <ele>47.699219</ele>
        <time>2016-08-16T12:49:36.000Z</time>
      </trkpt>
      <trkpt lat="49.70384" lon="-1.85187">
        <ele>49.597656</ele>
        <time>2016-08-16T12:49:44.000Z</time>
      </trkpt>
      <trkpt lat="49.7039" lon="-1.852">
        <ele>51.199219</ele>
        <time>2016-08-16T12:49:48.000Z</time>
      </trkpt>
      <trkpt lat="49.70398" lon="-1.85211">
        <ele>52.597656</ele>
        <time>2016-08-16T12:49:52.000Z</time>
      </trkpt>
      <trkpt lat="49.70407" lon="-1.85218">
        <ele>54.097656</ele>
        <time>2016-08-16T12:49:56.000Z</time>
      </trkpt>
      <trkpt lat="49.70417" lon="-1.85225">
        <ele>56.199219</ele>
        <time>2016-08-16T12:50:00.000Z</time>
      </trkpt>
      <trkpt lat="49.70423" lon="-1.85236">
        <ele>58</ele>
        <time>2016-08-16T12:50:04.000Z</time>
      </trkpt>
      <trkpt lat="49.70424" lon="-1.85251">
        <ele>59.5</ele>
        <time>2016-08-16T12:50:08.000Z</time>
      </trkpt>
      <trkpt lat="49.70425" lon="-1.85265">
        <ele>61.097656</ele>
        <time>2016-08-16T12:50:12.000Z</time>
      </trkpt>
      <trkpt lat="49.70425" lon="-1.85281">
        <ele>62.398438</ele>
        <time>2016-08-16T12:50:16.000Z</time>
      </trkpt>
      <trkpt lat="49.70421" lon="-1.85296">
        <ele>64.097656</ele>
        <time>2016-08-16T12:50:20.000Z</time>
      </trkpt>
      <trkpt lat="49.70417" lon="-1.8531">
        <ele>65.898438</ele>
        <time>2016-08-16T12:50:24.000Z</time>
      </trkpt>
      <trkpt lat="49.70414" lon="-1.85323">
        <ele>66.5</ele>
        <time>2016-08-16T12:50:28.000Z</time>
      </trkpt>
      <trkpt lat="49.7041" lon="-1.85338">
        <ele>68</ele>
        <time>2016-08-16T12:50:33.000Z</time>
      </trkpt>
      <trkpt lat="49.70403" lon="-1.8535">
        <ele>69.199219</ele>
        <time>2016-08-16T12:50:37.000Z</time>
      </trkpt>
      <trkpt lat="49.70395" lon="-1.8536">
        <ele>69.898438</ele>
        <time>2016-08-16T12:50:41.000Z</time>
      </trkpt>
      <trkpt lat="49.70387" lon="-1.85369">
        <ele>70.097656</ele>
        <time>2016-08-16T12:50:45.000Z</time>
      </trkpt>
      <trkpt lat="49.70377" lon="-1.85376">
        <ele>70.296875</ele>
        <time>2016-08-16T12:50:49.000Z</time>
      </trkpt>
      <trkpt lat="49.70366" lon="-1.8538">
        <ele>70.597656</ele>
        <time>2016-08-16T12:50:53.000Z</time>
      </trkpt>
      <trkpt lat="49.70322" lon="-1.85392">
        <ele>72.5</ele>
        <time>2016-08-16T12:51:09.000Z</time>
      </trkpt>
      <trkpt lat="49.70315" lon="-1.85402">
        <ele>73</ele>
        <time>2016-08-16T12:51:13.000Z</time>
      </trkpt>
      <trkpt lat="49.7031" lon="-1.85415">
        <ele>73.5</ele>
        <time>2016-08-16T12:51:17.000Z</time>
      </trkpt>
      <trkpt lat="49.70306" lon="-1.8543">
        <ele>74</ele>
        <time>2016-08-16T12:51:21.000Z</time>
      </trkpt>
      <trkpt lat="49.70298" lon="-1.85461">
        <ele>75.199219</ele>
        <time>2016-08-16T12:51:29.000Z</time>
      </trkpt>
      <trkpt lat="49.70288" lon="-1.85509">
        <ele>77.398438</ele>
        <time>2016-08-16T12:51:41.000Z</time>
      </trkpt>
      <trkpt lat="49.70282" lon="-1.85541">
        <ele>78.597656</ele>
        <time>2016-08-16T12:51:49.000Z</time>
      </trkpt>
      <trkpt lat="49.70277" lon="-1.85553">
        <ele>78.097656</ele>
        <time>2016-08-16T12:51:54.000Z</time>
      </trkpt>
      <trkpt lat="49.70278" lon="-1.85568">
        <ele>78.898438</ele>
        <time>2016-08-16T12:52:09.000Z</time>
      </trkpt>
      <trkpt lat="49.70275" lon="-1.85583">
        <ele>79.796875</ele>
        <time>2016-08-16T12:52:13.000Z</time>
      </trkpt>
      <trkpt lat="49.70256" lon="-1.8569">
        <ele>82.5</ele>
        <time>2016-08-16T12:52:47.000Z</time>
      </trkpt>
      <trkpt lat="49.70255" lon="-1.85705">
        <ele>81.398438</ele>
        <time>2016-08-16T12:56:11.000Z</time>
      </trkpt>
      <trkpt lat="49.70252" lon="-1.8572">
        <ele>79.796875</ele>
        <time>2016-08-16T12:56:18.000Z</time>
      </trkpt>
      <trkpt lat="49.7025" lon="-1.85735">
        <ele>78.5</ele>
        <time>2016-08-16T12:56:26.000Z</time>
      </trkpt>
      <trkpt lat="49.70243" lon="-1.85745">
        <ele>77.097656</ele>
        <time>2016-08-16T12:56:35.000Z</time>
      </trkpt>
      <trkpt lat="49.70232" lon="-1.85745">
        <ele>77.199219</ele>
        <time>2016-08-16T12:58:16.000Z</time>
      </trkpt>
      <trkpt lat="49.70223" lon="-1.85741">
        <ele>77.097656</ele>
        <time>2016-08-16T12:58:21.000Z</time>
      </trkpt>
      <trkpt lat="49.70205" lon="-1.85732">
        <ele>75.898438</ele>
        <time>2016-08-16T12:58:28.000Z</time>
      </trkpt>
      <trkpt lat="49.70183" lon="-1.85719">
        <ele>74.898438</ele>
        <time>2016-08-16T12:58:33.000Z</time>
      </trkpt>
      <trkpt lat="49.70132" lon="-1.85684">
        <ele>73.898438</ele>
        <time>2016-08-16T12:58:43.000Z</time>
      </trkpt>
      <trkpt lat="49.70122" lon="-1.8568">
        <ele>73.796875</ele>
        <time>2016-08-16T12:58:45.000Z</time>
      </trkpt>
      <trkpt lat="49.70112" lon="-1.85677">
        <ele>73.5</ele>
        <time>2016-08-16T12:58:47.000Z</time>
      </trkpt>
      <trkpt lat="49.70102" lon="-1.85676">
        <ele>73.296875</ele>
        <time>2016-08-16T12:58:49.000Z</time>
      </trkpt>
      <trkpt lat="49.70081" lon="-1.85674">
        <ele>73.199219</ele>
        <time>2016-08-16T12:58:53.000Z</time>
      </trkpt>
      <trkpt lat="49.70071" lon="-1.85671">
        <ele>73.097656</ele>
        <time>2016-08-16T12:58:55.000Z</time>
      </trkpt>
      <trkpt lat="49.70062" lon="-1.85668">
        <ele>72.898438</ele>
        <time>2016-08-16T12:58:57.000Z</time>
      </trkpt>
      <trkpt lat="49.70052" lon="-1.85663">
        <ele>72.898438</ele>
        <time>2016-08-16T12:58:59.000Z</time>
      </trkpt>
      <trkpt lat="49.70043" lon="-1.85658">
        <ele>72.699219</ele>
        <time>2016-08-16T12:59:01.000Z</time>
      </trkpt>
      <trkpt lat="49.70035" lon="-1.85651">
        <ele>72.296875</ele>
        <time>2016-08-16T12:59:03.000Z</time>
      </trkpt>
      <trkpt lat="49.70027" lon="-1.85641">
        <ele>71.699219</ele>
        <time>2016-08-16T12:59:05.000Z</time>
      </trkpt>
      <trkpt lat="49.70011" lon="-1.85617">
        <ele>70.398438</ele>
        <time>2016-08-16T12:59:09.000Z</time>
      </trkpt>
      <trkpt lat="49.69998" lon="-1.85612">
        <ele>70.398438</ele>
        <time>2016-08-16T12:59:11.000Z</time>
      </trkpt>
      <trkpt lat="49.69986" lon="-1.85612">
        <ele>70.796875</ele>
        <time>2016-08-16T12:59:13.000Z</time>
      </trkpt>
      <trkpt lat="49.69976" lon="-1.85609">
        <ele>71.097656</ele>
        <time>2016-08-16T12:59:15.000Z</time>
      </trkpt>
      <trkpt lat="49.69966" lon="-1.85605">
        <ele>71.398438</ele>
        <time>2016-08-16T12:59:17.000Z</time>
      </trkpt>
      <trkpt lat="49.69954" lon="-1.85598">
        <ele>71.796875</ele>
        <time>2016-08-16T12:59:20.000Z</time>
      </trkpt>
      <trkpt lat="49.69906" lon="-1.85569">
        <ele>74.097656</ele>
        <time>2016-08-16T12:59:35.000Z</time>
      </trkpt>
      <trkpt lat="49.69814" lon="-1.85514">
        <ele>79.898438</ele>
        <time>2016-08-16T13:00:07.000Z</time>
      </trkpt>
      <trkpt lat="49.69662" lon="-1.8543">
        <ele>90.398438</ele>
        <time>2016-08-16T13:01:07.000Z</time>
      </trkpt>
      <trkpt lat="49.69643" lon="-1.85423">
        <ele>92.5</ele>
        <time>2016-08-16T13:01:16.000Z</time>
      </trkpt>
      <trkpt lat="49.69634" lon="-1.8542">
        <ele>93.699219</ele>
        <time>2016-08-16T13:01:20.000Z</time>
      </trkpt>
      <trkpt lat="49.69624" lon="-1.85419">
        <ele>94.898438</ele>
        <time>2016-08-16T13:01:24.000Z</time>
      </trkpt>
      <trkpt lat="49.69615" lon="-1.85419">
        <ele>95.898438</ele>
        <time>2016-08-16T13:01:28.000Z</time>
      </trkpt>
      <trkpt lat="49.69605" lon="-1.8542">
        <ele>96.699219</ele>
        <time>2016-08-16T13:01:32.000Z</time>
      </trkpt>
      <trkpt lat="49.69595" lon="-1.8542">
        <ele>97.597656</ele>
        <time>2016-08-16T13:01:36.000Z</time>
      </trkpt>
      <trkpt lat="49.69585" lon="-1.85421">
        <ele>98.5</ele>
        <time>2016-08-16T13:01:40.000Z</time>
      </trkpt>
      <trkpt lat="49.69532" lon="-1.85431">
        <ele>103</ele>
        <time>2016-08-16T13:02:00.000Z</time>
      </trkpt>
      <trkpt lat="49.69521" lon="-1.85431">
        <ele>103.898438</ele>
        <time>2016-08-16T13:02:04.000Z</time>
      </trkpt>
      <trkpt lat="49.69477" lon="-1.85423">
        <ele>106.699219</ele>
        <time>2016-08-16T13:02:20.000Z</time>
      </trkpt>
      <trkpt lat="49.69422" lon="-1.85413">
        <ele>109.296875</ele>
        <time>2016-08-16T13:02:39.000Z</time>
      </trkpt>
      <trkpt lat="49.69395" lon="-1.85407">
        <ele>110.296875</ele>
        <time>2016-08-16T13:02:48.000Z</time>
      </trkpt>
      <trkpt lat="49.69386" lon="-1.85403">
        <ele>110.5</ele>
        <time>2016-08-16T13:02:51.000Z</time>
      </trkpt>
      <trkpt lat="49.69376" lon="-1.85401">
        <ele>110.597656</ele>
        <time>2016-08-16T13:02:55.000Z</time>
      </trkpt>
      <trkpt lat="49.69335" lon="-1.85393">
        <ele>109.097656</ele>
        <time>2016-08-16T13:03:11.000Z</time>
      </trkpt>
      <trkpt lat="49.69324" lon="-1.85389">
        <ele>108.5</ele>
        <time>2016-08-16T13:03:14.000Z</time>
      </trkpt>
      <trkpt lat="49.69314" lon="-1.85384">
        <ele>107.699219</ele>
        <time>2016-08-16T13:03:16.000Z</time>
      </trkpt>
      <trkpt lat="49.69292" lon="-1.85372">
        <ele>106.097656</ele>
        <time>2016-08-16T13:03:20.000Z</time>
      </trkpt>
      <trkpt lat="49.69281" lon="-1.85364">
        <ele>105.5</ele>
        <time>2016-08-16T13:03:22.000Z</time>
      </trkpt>
      <trkpt lat="49.69269" lon="-1.85355">
        <ele>105</ele>
        <time>2016-08-16T13:03:24.000Z</time>
      </trkpt>
      <trkpt lat="49.69191" lon="-1.85282">
        <ele>102.5</ele>
        <time>2016-08-16T13:03:38.000Z</time>
      </trkpt>
      <trkpt lat="49.69182" lon="-1.85272">
        <ele>102.097656</ele>
        <time>2016-08-16T13:03:40.000Z</time>
      </trkpt>
      <trkpt lat="49.69172" lon="-1.85264">
        <ele>102.097656</ele>
        <time>2016-08-16T13:03:42.000Z</time>
      </trkpt>
      <trkpt lat="49.69162" lon="-1.85258">
        <ele>102.199219</ele>
        <time>2016-08-16T13:03:44.000Z</time>
      </trkpt>
      <trkpt lat="49.69152" lon="-1.85254">
        <ele>102.398438</ele>
        <time>2016-08-16T13:03:46.000Z</time>
      </trkpt>
      <trkpt lat="49.69139" lon="-1.8525">
        <ele>102.597656</ele>
        <time>2016-08-16T13:03:49.000Z</time>
      </trkpt>
      <trkpt lat="49.69052" lon="-1.85233">
        <ele>103.398438</ele>
        <time>2016-08-16T13:04:13.000Z</time>
      </trkpt>
      <trkpt lat="49.69039" lon="-1.85228">
        <ele>103.199219</ele>
        <time>2016-08-16T13:04:16.000Z</time>
      </trkpt>
      <trkpt lat="49.69027" lon="-1.85219">
        <ele>103</ele>
        <time>2016-08-16T13:04:19.000Z</time>
      </trkpt>
      <trkpt lat="49.69001" lon="-1.85198">
        <ele>101.5</ele>
        <time>2016-08-16T13:04:25.000Z</time>
      </trkpt>
      <trkpt lat="49.68969" lon="-1.85172">
        <ele>100</ele>
        <time>2016-08-16T13:04:31.000Z</time>
      </trkpt>
      <trkpt lat="49.68946" lon="-1.85158">
        <ele>99.796875</ele>
        <time>2016-08-16T13:04:35.000Z</time>
      </trkpt>
      <trkpt lat="49.68848" lon="-1.85115">
        <ele>99</ele>
        <time>2016-08-16T13:04:53.000Z</time>
      </trkpt>
      <trkpt lat="49.68797" lon="-1.851">
        <ele>100.097656</ele>
        <time>2016-08-16T13:05:03.000Z</time>
      </trkpt>
      <trkpt lat="49.6873" lon="-1.85087">
        <ele>101.398438</ele>
        <time>2016-08-16T13:05:21.000Z</time>
      </trkpt>
      <trkpt lat="49.68718" lon="-1.85082">
        <ele>101.097656</ele>
        <time>2016-08-16T13:05:24.000Z</time>
      </trkpt>
      <trkpt lat="49.68688" lon="-1.85069">
        <ele>98.898438</ele>
        <time>2016-08-16T13:05:30.000Z</time>
      </trkpt>
      <trkpt lat="49.68675" lon="-1.85069">
        <ele>97.597656</ele>
        <time>2016-08-16T13:05:32.000Z</time>
      </trkpt>
      <trkpt lat="49.68662" lon="-1.85072">
        <ele>96.199219</ele>
        <time>2016-08-16T13:05:34.000Z</time>
      </trkpt>
      <trkpt lat="49.68649" lon="-1.85076">
        <ele>94.699219</ele>
        <time>2016-08-16T13:05:36.000Z</time>
      </trkpt>
      <trkpt lat="49.68596" lon="-1.851">
        <ele>86.699219</ele>
        <time>2016-08-16T13:05:44.000Z</time>
      </trkpt>
      <trkpt lat="49.68582" lon="-1.85103">
        <ele>86.097656</ele>
        <time>2016-08-16T13:05:46.000Z</time>
      </trkpt>
      <trkpt lat="49.68569" lon="-1.85095">
        <ele>86.199219</ele>
        <time>2016-08-16T13:05:48.000Z</time>
      </trkpt>
      <trkpt lat="49.68555" lon="-1.85082">
        <ele>87.898438</ele>
        <time>2016-08-16T13:05:50.000Z</time>
      </trkpt>
      <trkpt lat="49.68542" lon="-1.85069">
        <ele>86.898438</ele>
        <time>2016-08-16T13:05:52.000Z</time>
      </trkpt>
      <trkpt lat="49.68529" lon="-1.85063">
        <ele>86.097656</ele>
        <time>2016-08-16T13:05:54.000Z</time>
      </trkpt>
      <trkpt lat="49.68516" lon="-1.85063">
        <ele>85.199219</ele>
        <time>2016-08-16T13:05:56.000Z</time>
      </trkpt>
      <trkpt lat="49.68505" lon="-1.85066">
        <ele>89</ele>
        <time>2016-08-16T13:05:58.000Z</time>
      </trkpt>
      <trkpt lat="49.68491" lon="-1.85063">
        <ele>88.597656</ele>
        <time>2016-08-16T13:06:00.000Z</time>
      </trkpt>
      <trkpt lat="49.68481" lon="-1.85065">
        <ele>89</ele>
        <time>2016-08-16T13:06:02.000Z</time>
      </trkpt>
      <trkpt lat="49.68457" lon="-1.85068">
        <ele>91.097656</ele>
        <time>2016-08-16T13:06:08.000Z</time>
      </trkpt>
      <trkpt lat="49.68446" lon="-1.85066">
        <ele>92</ele>
        <time>2016-08-16T13:06:11.000Z</time>
      </trkpt>
      <trkpt lat="49.68438" lon="-1.85056">
        <ele>93</ele>
        <time>2016-08-16T13:06:14.000Z</time>
      </trkpt>
      <trkpt lat="49.68431" lon="-1.85046">
        <ele>93.398438</ele>
        <time>2016-08-16T13:06:17.000Z</time>
      </trkpt>
      <trkpt lat="49.68424" lon="-1.85035">
        <ele>91.898438</ele>
        <time>2016-08-16T13:06:20.000Z</time>
      </trkpt>
      <trkpt lat="49.68415" lon="-1.85025">
        <ele>92.398438</ele>
        <time>2016-08-16T13:06:24.000Z</time>
      </trkpt>
      <trkpt lat="49.68364" lon="-1.84971">
        <ele>96.398438</ele>
        <time>2016-08-16T13:06:47.000Z</time>
      </trkpt>
      <trkpt lat="49.68349" lon="-1.8495">
        <ele>97.5</ele>
        <time>2016-08-16T13:06:55.000Z</time>
      </trkpt>
      <trkpt lat="49.68341" lon="-1.84938">
        <ele>95.597656</ele>
        <time>2016-08-16T13:06:59.000Z</time>
      </trkpt>
      <trkpt lat="49.68333" lon="-1.84927">
        <ele>94.699219</ele>
        <time>2016-08-16T13:07:03.000Z</time>
      </trkpt>
      <trkpt lat="49.68324" lon="-1.84916">
        <ele>93.199219</ele>
        <time>2016-08-16T13:07:07.000Z</time>
      </trkpt>
      <trkpt lat="49.68315" lon="-1.84907">
        <ele>93.199219</ele>
        <time>2016-08-16T13:07:11.000Z</time>
      </trkpt>
      <trkpt lat="49.68296" lon="-1.84889">
        <ele>94</ele>
        <time>2016-08-16T13:07:19.000Z</time>
      </trkpt>
      <trkpt lat="49.68286" lon="-1.84881">
        <ele>94.398438</ele>
        <time>2016-08-16T13:07:23.000Z</time>
      </trkpt>
      <trkpt lat="49.68276" lon="-1.84875">
        <ele>94.5</ele>
        <time>2016-08-16T13:07:27.000Z</time>
      </trkpt>
      <trkpt lat="49.68235" lon="-1.84853">
        <ele>94.199219</ele>
        <time>2016-08-16T13:07:43.000Z</time>
      </trkpt>
      <trkpt lat="49.68215" lon="-1.84844">
        <ele>99.097656</ele>
        <time>2016-08-16T13:07:50.000Z</time>
      </trkpt>
      <trkpt lat="49.68204" lon="-1.8484">
        <ele>100.199219</ele>
        <time>2016-08-16T13:07:54.000Z</time>
      </trkpt>
      <trkpt lat="49.68193" lon="-1.84836">
        <ele>100.5</ele>
        <time>2016-08-16T13:07:58.000Z</time>
      </trkpt>
      <trkpt lat="49.68183" lon="-1.84831">
        <ele>101.796875</ele>
        <time>2016-08-16T13:08:02.000Z</time>
      </trkpt>
      <trkpt lat="49.68174" lon="-1.84823">
        <ele>102.5</ele>
        <time>2016-08-16T13:08:06.000Z</time>
      </trkpt>
      <trkpt lat="49.68156" lon="-1.84806">
        <ele>106.898438</ele>
        <time>2016-08-16T13:08:14.000Z</time>
      </trkpt>
      <trkpt lat="49.68147" lon="-1.84801">
        <ele>110.597656</ele>
        <time>2016-08-16T13:08:18.000Z</time>
      </trkpt>
      <trkpt lat="49.68136" lon="-1.84804">
        <ele>114.296875</ele>
        <time>2016-08-16T13:08:23.000Z</time>
      </trkpt>
      <trkpt lat="49.68081" lon="-1.84823">
        <ele>126</ele>
        <time>2016-08-16T13:08:48.000Z</time>
      </trkpt>
      <trkpt lat="49.68054" lon="-1.84838">
        <ele>130.796875</ele>
        <time>2016-08-16T13:09:02.000Z</time>
      </trkpt>
      <trkpt lat="49.68045" lon="-1.84845">
        <ele>133.296875</ele>
        <time>2016-08-16T13:09:07.000Z</time>
      </trkpt>
      <trkpt lat="49.68036" lon="-1.84855">
        <ele>134.898438</ele>
        <time>2016-08-16T13:09:13.000Z</time>
      </trkpt>
      <trkpt lat="49.68026" lon="-1.84854">
        <ele>139.5</ele>
        <time>2016-08-16T13:09:20.000Z</time>
      </trkpt>
      <trkpt lat="49.6802" lon="-1.84866">
        <ele>140.796875</ele>
        <time>2016-08-16T13:12:01.000Z</time>
      </trkpt>
      <trkpt lat="49.68011" lon="-1.84869">
        <ele>142</ele>
        <time>2016-08-16T13:12:06.000Z</time>
      </trkpt>
      <trkpt lat="49.68001" lon="-1.84872">
        <ele>143.296875</ele>
        <time>2016-08-16T13:12:11.000Z</time>
      </trkpt>
      <trkpt lat="49.67991" lon="-1.84873">
        <ele>144</ele>
        <time>2016-08-16T13:12:16.000Z</time>
      </trkpt>
      <trkpt lat="49.6798" lon="-1.84868">
        <ele>145.097656</ele>
        <time>2016-08-16T13:12:21.000Z</time>
      </trkpt>
      <trkpt lat="49.67972" lon="-1.84861">
        <ele>144.597656</ele>
        <time>2016-08-16T13:12:25.000Z</time>
      </trkpt>
      <trkpt lat="49.67963" lon="-1.84849">
        <ele>144.296875</ele>
        <time>2016-08-16T13:12:30.000Z</time>
      </trkpt>
      <trkpt lat="49.67915" lon="-1.84789">
        <ele>142.097656</ele>
        <time>2016-08-16T13:12:50.000Z</time>
      </trkpt>
      <trkpt lat="49.67896" lon="-1.84769">
        <ele>142.699219</ele>
        <time>2016-08-16T13:12:56.000Z</time>
      </trkpt>
      <trkpt lat="49.67885" lon="-1.8476">
        <ele>142.796875</ele>
        <time>2016-08-16T13:12:59.000Z</time>
      </trkpt>
      <trkpt lat="49.67774" lon="-1.8467">
        <ele>134.796875</ele>
        <time>2016-08-16T13:13:25.000Z</time>
      </trkpt>
      <trkpt lat="49.67619" lon="-1.84508">
        <ele>132.5</ele>
        <time>2016-08-16T13:13:49.000Z</time>
      </trkpt>
      <trkpt lat="49.67591" lon="-1.84486">
        <ele>131.199219</ele>
        <time>2016-08-16T13:13:58.000Z</time>
      </trkpt>
      <trkpt lat="49.6756" lon="-1.84464">
        <ele>129.898438</ele>
        <time>2016-08-16T13:14:10.000Z</time>
      </trkpt>
      <trkpt lat="49.67491" lon="-1.84423">
        <ele>133.097656</ele>
        <time>2016-08-16T13:14:36.000Z</time>
      </trkpt>
      <trkpt lat="49.6748" lon="-1.84415">
        <ele>134.796875</ele>
        <time>2016-08-16T13:14:40.000Z</time>
      </trkpt>
      <trkpt lat="49.67429" lon="-1.84374">
        <ele>142.296875</ele>
        <time>2016-08-16T13:14:58.000Z</time>
      </trkpt>
      <trkpt lat="49.6742" lon="-1.84369">
        <ele>143.796875</ele>
        <time>2016-08-16T13:15:01.000Z</time>
      </trkpt>
      <trkpt lat="49.67392" lon="-1.84358">
        <ele>146.398438</ele>
        <time>2016-08-16T13:15:10.000Z</time>
      </trkpt>
      <trkpt lat="49.67374" lon="-1.84351">
        <ele>146.398438</ele>
        <time>2016-08-16T13:15:16.000Z</time>
      </trkpt>
      <trkpt lat="49.67356" lon="-1.84343">
        <ele>143.097656</ele>
        <time>2016-08-16T13:15:22.000Z</time>
      </trkpt>
      <trkpt lat="49.67334" lon="-1.84332">
        <ele>141.398438</ele>
        <time>2016-08-16T13:15:28.000Z</time>
      </trkpt>
      <trkpt lat="49.67312" lon="-1.84317">
        <ele>139.597656</ele>
        <time>2016-08-16T13:15:34.000Z</time>
      </trkpt>
      <trkpt lat="49.67126" lon="-1.84177">
        <ele>128.199219</ele>
        <time>2016-08-16T13:16:03.000Z</time>
      </trkpt>
      <trkpt lat="49.67097" lon="-1.84147">
        <ele>127.699219</ele>
        <time>2016-08-16T13:16:06.000Z</time>
      </trkpt>
      <trkpt lat="49.67071" lon="-1.8412">
        <ele>129.699219</ele>
        <time>2016-08-16T13:16:09.000Z</time>
      </trkpt>
      <trkpt lat="49.67062" lon="-1.84114">
        <ele>131.699219</ele>
        <time>2016-08-16T13:16:10.000Z</time>
      </trkpt>
      <trkpt lat="49.66991" lon="-1.84062">
        <ele>135.796875</ele>
        <time>2016-08-16T13:16:31.000Z</time>
      </trkpt>
      <trkpt lat="49.66937" lon="-1.84006">
        <ele>146.296875</ele>
        <time>2016-08-16T13:16:55.000Z</time>
      </trkpt>
      <trkpt lat="49.66917" lon="-1.83988">
        <ele>148.199219</ele>
        <time>2016-08-16T13:17:03.000Z</time>
      </trkpt>
      <trkpt lat="49.66908" lon="-1.83982">
        <ele>148.796875</ele>
        <time>2016-08-16T13:17:08.000Z</time>
      </trkpt>
      <trkpt lat="49.66891" lon="-1.83967">
        <ele>152</ele>
        <time>2016-08-16T13:17:19.000Z</time>
      </trkpt>
      <trkpt lat="49.66884" lon="-1.83958">
        <ele>152.296875</ele>
        <time>2016-08-16T13:17:47.000Z</time>
      </trkpt>
      <trkpt lat="49.66875" lon="-1.83951">
        <ele>152.796875</ele>
        <time>2016-08-16T13:17:52.000Z</time>
      </trkpt>
      <trkpt lat="49.66866" lon="-1.83946">
        <ele>153.296875</ele>
        <time>2016-08-16T13:17:56.000Z</time>
      </trkpt>
      <trkpt lat="49.6672" lon="-1.83854">
        <ele>156.5</ele>
        <time>2016-08-16T13:18:45.000Z</time>
      </trkpt>
      <trkpt lat="49.66672" lon="-1.83813">
        <ele>156.796875</ele>
        <time>2016-08-16T13:19:00.000Z</time>
      </trkpt>
      <trkpt lat="49.66608" lon="-1.83752">
        <ele>155.597656</ele>
        <time>2016-08-16T13:19:15.000Z</time>
      </trkpt>
      <trkpt lat="49.66404" lon="-1.83523">
        <ele>167.199219</ele>
        <time>2016-08-16T13:20:31.000Z</time>
      </trkpt>
      <trkpt lat="49.66396" lon="-1.83529">
        <ele>167.796875</ele>
        <time>2016-08-16T13:20:35.000Z</time>
      </trkpt>
      <trkpt lat="49.66391" lon="-1.83541">
        <ele>169</ele>
        <time>2016-08-16T13:20:38.000Z</time>
      </trkpt>
      <trkpt lat="49.66333" lon="-1.8369">
        <ele>174.898438</ele>
        <time>2016-08-16T13:21:05.000Z</time>
      </trkpt>
      <trkpt lat="49.66326" lon="-1.83716">
        <ele>175.597656</ele>
        <time>2016-08-16T13:21:09.000Z</time>
      </trkpt>
      <trkpt lat="49.66324" lon="-1.83734">
        <ele>175.699219</ele>
        <time>2016-08-16T13:21:12.000Z</time>
      </trkpt>
      <trkpt lat="49.66322" lon="-1.8375">
        <ele>175.5</ele>
        <time>2016-08-16T13:21:15.000Z</time>
      </trkpt>
      <trkpt lat="49.66328" lon="-1.83766">
        <ele>175.097656</ele>
        <time>2016-08-16T13:21:19.000Z</time>
      </trkpt>
      <trkpt lat="49.66334" lon="-1.83776">
        <ele>174.597656</ele>
        <time>2016-08-16T13:21:22.000Z</time>
      </trkpt>
      <trkpt lat="49.66344" lon="-1.83795">
        <ele>172.613281</ele>
        <time>2016-08-16T13:22:13.000Z</time>
      </trkpt>
    </trkseg>
  </trk>
</gpx>